[[{"header":{"parameterUnit":"m.s-1","parameterCategory":1,"la1":31.0,"la2":29.5877,"lo1":-88.7671,"lo2":-86.6584,"dx":0.0162,"dy":0.0185,"nx":115,"ny":88,"refTime":"2022-11-30T18:00:00:Z","depth":0,"parameterNumber":2,"parameterNumberName":"U-component_of_WINDS"},"data":[0.0,0.0,0.0,0.0,0.0,0.0,0.0,0.0,0.0,0.0,0.0,0.0,0.0,0.0,0.0,0.0,0.0,0.0,0.0,0.0,0.0,0.0,0.0,0.0,0.0,0.0,0.0,0.0,0.0,0.0,0.0,0.0,0.0,0.0,0.0,0.0,0.0,0.0,0.0,0.0,0.0,0.0,0.0,0.0,0.0,0.0,0.0,0.0,0.0,0.0,0.0,0.0,0.0,0.0,0.0,0.0,0.0,0.0,0.0,0.0,0.0,0.0,0.0,0.0,0.0,0.0,0.0,0.0,0.0,0.0,0.0,0.0,0.0,0.0,0.0,0.0,0.0,0.0,0.0,0.0,0.0,0.0,0.0,0.0,0.0,0.0,0.0,0.0,0.0,0.0,0.0,0.0,0.0,0.0,0.0,0.0,0.0,0.0,0.0,0.0,0.0,0.0,0.0,0.0,0.0,0.0,0.0,0.0,0.0,0.0,0.0,0.0,0.0,0.0,0.0,0.0,0.0,0.0,0.0,0.0,0.0,0.0,0.0,0.0,0.0,0.0,0.0,0.0,0.0,0.0,0.0,0.0,0.0,0.0,0.0,0.0,0.0,0.0,0.0,0.0,0.0,0.0,0.0,0.0,0.0,0.0,0.0,0.0,0.0,0.0,0.0,0.0,0.0,0.0,0.0,0.0,0.0,0.0,0.0,0.0,0.0,0.0,0.0,0.0,0.0,0.0,0.0,0.0,0.0,0.0,0.0,0.0,0.0,0.0,0.0,0.0,0.0,0.0,0.0,0.0,0.0,0.0,0.0,0.0,0.0,0.0,0.0,0.0,0.0,0.0,0.0,0.0,0.0,0.0,0.0,0.0,0.0,0.0,0.0,0.0,0.0,0.0,0.0,0.0,0.0,0.0,0.0,0.0,0.0,0.0,0.0,0.0,0.0,0.0,0.0,0.0,0.0,0.0,0.0,0.0,0.0,0.0,0.0,0.0,0.0,0.0,0.0,0.0,0.0,0.0,0.0,0.0,0.0,0.0,0.0,0.0,0.0,0.0,0.0,0.0,0.0,0.0,0.0,0.0,0.0,0.0,0.0,0.0,0.0,0.0,0.0,0.0,0.0,0.0,0.0,0.0,0.0,0.0,0.0,0.0,0.0,0.0,0.0,0.0,0.0,0.0,0.0,0.0,0.0,0.0,0.0,0.0,0.0,0.0,0.0,0.0,0.0,0.0,0.0,0.0,0.0,0.0,0.0,0.0,0.0,0.0,0.0,0.0,0.0,0.0,0.0,0.0,0.0,0.0,0.0,0.0,0.0,0.0,0.0,0.0,0.0,0.0,0.0,0.0,0.0,0.0,0.0,0.0,0.0,0.0,0.0,0.0,0.0,0.0,0.0,0.0,0.0,0.0,0.0,0.0,0.0,0.0,0.0,0.0,0.0,0.0,0.0,0.0,0.0,0.0,0.0,0.0,0.0,0.0,0.0,0.0,0.0,0.0,0.0,0.0,0.0,0.0,0.0,0.0,0.0,0.0,0.0,0.0,0.0,0.0,0.0,0.0,0.0,0.0,0.0,0.0,0.0,0.0,0.0,0.0,0.0,0.0,0.0,0.0,0.0,0.0,0.0,0.0,0.0,0.0,0.0,0.0,0.0,0.0,0.0,0.0,0.0,0.0,0.0,0.0,0.0,0.0,0.0,0.0,0.0,0.0,0.0,0.0,0.0,0.0,0.0,0.0,0.0,0.0,0.0,0.0,0.0,0.0,0.0,0.0,0.0,0.0,0.0,0.0,0.0,0.0,0.0,0.0,0.0,0.0,0.0,0.0,0.0,0.0,0.0,0.0,0.0,0.0,0.0,0.0,0.0,0.0,0.0,0.0,0.0,0.0,0.0,0.0,0.0,0.0,0.0,0.0,0.0,0.0,0.0,0.0,0.0,0.0,0.0,0.0,0.0,0.0,0.0,0.0,0.0,0.0,0.0,0.0,0.0,0.0,0.0,0.0,0.0,0.0,0.0,0.0,0.0,0.0,0.0,0.0,0.0,0.0,0.0,0.0,0.0,0.0,0.0,0.0,0.0,0.0,0.0,0.0,0.0,0.0,0.0,0.0,0.0,0.0,0.0,0.0,0.0,0.0,0.0,0.0,0.0,0.0,0.0,0.0,0.0,0.0,0.0,0.0,0.0,0.0,0.0,0.0,0.0,0.0,0.0,0.0,0.0,0.0,0.0,0.0,0.0,0.0,0.0,0.0,0.0,0.0,0.0,0.0,0.0,0.0,0.0,0.0,0.0,0.0,0.0,0.0,0.0,0.0,0.0,0.0,0.0,0.0,0.0,0.0,0.0,0.0,0.0,0.0,0.0,0.0,0.0,0.0,0.0,0.0,0.0,0.0,0.0,0.0,0.0,0.0,0.0,0.0,0.0,0.0,0.0,0.0,0.0,0.0,0.0,0.0,0.0,0.0,0.0,0.0,0.0,0.0,0.0,0.0,0.0,0.0,0.0,0.0,0.0,0.0,0.0,0.0,0.0,0.0,0.0,0.0,0.0,0.0,0.0,0.0,0.0,0.0,0.0,0.0,0.0,0.0,0.0,0.0,0.0,0.0,0.0,0.0,0.0,0.0,0.0,0.0,0.0,0.0,0.0,0.0,0.0,0.0,0.0,0.0,0.0,0.0,0.0,0.0,0.0,0.0,0.0,0.0,0.0,0.0,0.0,0.0,0.0,0.0,0.0,0.0,0.0,0.0,0.0,0.0,0.0,0.0,0.0,0.0,0.0,0.0,0.0,0.0,0.0,0.0,0.0,0.0,0.0,0.0,0.0,0.0,0.0,0.0,0.0,0.0,0.0,0.0,0.0,0.0,0.0,0.0,0.0,0.0,0.0,0.0,0.0,0.0,0.0,0.0,0.0,0.0,0.0,0.0,0.0,0.0,0.0,0.0,0.0,0.0,0.0,0.0,0.0,0.0,0.0,0.0,0.0,0.0,0.0,0.0,0.0,0.0,0.0,0.0,0.0,0.0,0.0,0.0,0.0,0.0,0.0,0.0,0.0,0.0,0.0,0.0,0.0,0.0,0.0,0.0,0.0,0.0,0.0,0.0,0.0,0.0,0.0,0.0,0.0,0.0,0.0,0.0,0.0,0.0,0.0,0.0,0.0,0.0,0.0,0.0,0.0,0.0,0.0,0.0,0.0,0.0,0.0,0.0,0.0,0.0,0.0,0.0,0.0,0.0,0.0,0.0,0.0,0.0,0.0,0.0,0.0,0.0,0.0,0.0,0.0,0.0,0.0,0.0,0.0,0.0,0.0,0.0,0.0,0.0,0.0,0.0,0.0,0.0,0.0,0.0,0.0,0.0,0.0,0.0,0.0,0.0,0.0,0.0,0.0,0.0,0.0,0.0,0.0,0.0,0.0,0.0,0.0,0.0,0.0,0.0,0.0,0.0,0.0,0.0,0.0,0.0,0.0,0.0,0.0,0.0,0.0,0.0,0.0,0.0,0.0,0.0,0.0,0.0,0.0,0.0,0.0,0.0,0.0,0.0,0.0,0.0,0.0,0.0,0.0,0.0,0.0,0.0,0.0,0.0,0.0,0.0,0.0,0.0,0.0,0.0,0.0,0.0,0.0,0.0,0.0,0.0,0.0,0.0,0.0,0.0,0.0,0.0,0.0,0.0,0.0,0.0,0.0,0.0,0.0,0.0,0.0,0.0,0.0,0.0,0.0,0.0,0.0,0.0,0.0,0.0,0.0,0.0,0.0,0.0,0.0,0.0,0.0,0.0,0.0,0.0,0.0,0.0,0.0,0.0,0.0,0.0,0.0,0.0,0.0,0.0,0.0,0.0,0.0,0.0,0.0,0.0,0.0,0.0,0.0,0.0,0.0,0.0,0.0,0.0,0.0,0.0,0.0,0.0,0.0,0.0,0.0,0.0,0.0,0.0,0.0,0.0,0.0,0.0,0.0,0.0,0.0,0.0,0.0,0.0,0.0,0.0,0.0,0.0,0.0,0.0,0.0,0.0,0.0,0.0,0.0,0.0,0.0,0.0,0.0,0.0,0.0,0.0,0.0,0.0,0.0,0.0,0.0,0.0,0.0,0.0,0.0,0.0,0.0,0.0,0.0,0.0,0.0,0.0,0.0,0.0,0.0,0.0,0.0,0.0,0.0,0.0,0.0,0.0,0.0,0.0,0.0,0.0,0.0,0.0,0.0,0.0,0.0,0.0,0.0,0.0,0.0,0.0,0.0,0.0,0.0,0.0,-2.4538,0.0,0.0,0.0,-2.1806,0.0,0.0,0.0,0.0,0.0,0.0,0.0,0.0,0.0,0.0,0.0,0.0,0.0,0.0,0.0,0.0,0.0,0.0,0.0,0.0,0.0,0.0,0.0,0.0,0.0,0.0,0.0,0.0,0.0,0.0,0.0,0.0,0.0,0.0,0.0,0.0,0.0,0.0,0.0,0.0,0.0,0.0,0.0,0.0,0.0,0.0,0.0,0.0,0.0,0.0,0.0,0.0,0.0,0.0,0.0,0.0,0.0,0.0,0.0,0.0,0.0,0.0,0.0,0.0,0.0,0.0,0.0,0.0,0.0,0.0,0.0,0.0,0.0,0.0,0.0,0.0,0.0,0.0,0.0,0.0,0.0,0.0,0.0,0.0,0.0,0.0,0.0,0.0,0.0,0.0,0.0,0.0,0.0,0.0,0.0,0.0,0.0,0.0,0.0,0.0,0.0,0.0,0.0,0.0,0.0,0.0,0.0,0.0,0.0,0.0,-2.4782,-2.4601,-2.3361,-2.2455,-2.1962,0.0,0.0,0.0,0.0,0.0,0.0,0.0,0.0,0.0,0.0,0.0,0.0,0.0,0.0,0.0,0.0,0.0,0.0,0.0,0.0,0.0,0.0,0.0,0.0,0.0,0.0,0.0,0.0,0.0,0.0,0.0,0.0,0.0,0.0,0.0,0.0,0.0,0.0,0.0,0.0,0.0,0.0,0.0,0.0,0.0,0.0,0.0,0.0,0.0,0.0,0.0,0.0,0.0,0.0,0.0,0.0,0.0,0.0,0.0,0.0,0.0,0.0,0.0,0.0,0.0,0.0,0.0,0.0,0.0,0.0,0.0,0.0,0.0,0.0,0.0,0.0,0.0,0.0,0.0,0.0,0.0,0.0,0.0,0.0,0.0,0.0,0.0,0.0,0.0,0.0,0.0,0.0,0.0,0.0,0.0,0.0,0.0,0.0,0.0,0.0,0.0,0.0,0.0,0.0,0.0,0.0,0.0,0.0,0.0,0.0,0.0,0.0,-2.3943,-2.2932,-2.1857,0.0,0.0,0.0,0.0,0.0,0.0,0.0,0.0,0.0,0.0,0.0,0.0,0.0,0.0,0.0,0.0,0.0,0.0,0.0,0.0,0.0,0.0,0.0,0.0,0.0,0.0,0.0,0.0,0.0,0.0,0.0,0.0,0.0,0.0,0.0,0.0,0.0,0.0,0.0,0.0,0.0,0.0,0.0,0.0,0.0,0.0,0.0,0.0,0.0,0.0,0.0,0.0,0.0,0.0,0.0,0.0,0.0,0.0,0.0,0.0,0.0,0.0,0.0,0.0,0.0,0.0,0.0,0.0,0.0,0.0,0.0,0.0,0.0,0.0,0.0,0.0,0.0,0.0,0.0,0.0,0.0,0.0,0.0,0.0,0.0,0.0,0.0,0.0,0.0,0.0,0.0,0.0,0.0,0.0,0.0,0.0,0.0,0.0,0.0,0.0,0.0,0.0,0.0,0.0,0.0,0.0,0.0,0.0,0.0,0.0,-2.5212,-2.5069,-2.4151,0.0,-2.1159,0.0,0.0,0.0,0.0,0.0,0.0,0.0,0.0,0.0,0.0,0.0,0.0,0.0,0.0,0.0,0.0,0.0,0.0,0.0,0.0,0.0,0.0,0.0,0.0,0.0,0.0,0.0,0.0,0.0,0.0,0.0,0.0,0.0,0.0,0.0,0.0,0.0,0.0,0.0,0.0,0.0,0.0,0.0,0.0,0.0,0.0,0.0,0.0,0.0,0.0,0.0,0.0,0.0,0.0,0.0,0.0,0.0,0.0,0.0,0.0,0.0,0.0,0.0,0.0,0.0,0.0,0.0,0.0,0.0,0.0,0.0,0.0,0.0,0.0,0.0,0.0,0.0,0.0,0.0,0.0,0.0,0.0,0.0,0.0,0.0,0.0,0.0,0.0,0.0,0.0,0.0,0.0,0.0,0.0,0.0,0.0,0.0,0.0,0.0,0.0,0.0,0.0,0.0,0.0,0.0,0.0,0.0,0.0,0.0,0.0,-2.5322,-2.5225,-2.3797,-2.264,0.0,0.0,0.0,0.0,0.0,0.0,0.0,0.0,0.0,0.0,0.0,0.0,0.0,0.0,0.0,0.0,0.0,0.0,0.0,0.0,0.0,0.0,0.0,0.0,0.0,0.0,0.0,0.0,0.0,0.0,0.0,0.0,0.0,0.0,0.0,0.0,0.0,0.0,0.0,0.0,0.0,0.0,0.0,0.0,0.0,0.0,0.0,0.0,0.0,0.0,0.0,0.0,0.0,0.0,0.0,0.0,0.0,0.0,0.0,0.0,0.0,0.0,0.0,0.0,0.0,0.0,0.0,0.0,0.0,0.0,0.0,0.0,0.0,0.0,0.0,0.0,0.0,0.0,0.0,0.0,0.0,0.0,0.0,0.0,0.0,0.0,0.0,0.0,0.0,0.0,0.0,0.0,0.0,0.0,0.0,0.0,0.0,0.0,0.0,0.0,0.0,0.0,0.0,0.0,0.0,0.0,0.0,0.0,0.0,0.0,-2.5471,-2.5393,-2.5212,-2.3574,-2.2445,-2.2036,0.0,0.0,0.0,0.0,0.0,0.0,0.0,0.0,0.0,0.0,0.0,0.0,0.0,0.0,0.0,0.0,0.0,0.0,0.0,0.0,0.0,0.0,0.0,0.0,0.0,0.0,0.0,0.0,0.0,0.0,0.0,0.0,0.0,0.0,0.0,0.0,0.0,0.0,0.0,0.0,0.0,0.0,0.0,0.0,0.0,0.0,0.0,0.0,0.0,0.0,0.0,0.0,0.0,0.0,0.0,0.0,0.0,0.0,0.0,0.0,0.0,0.0,0.0,0.0,0.0,0.0,0.0,0.0,0.0,0.0,0.0,0.0,0.0,0.0,0.0,0.0,0.0,0.0,0.0,0.0,0.0,0.0,0.0,0.0,0.0,0.0,0.0,0.0,0.0,0.0,0.0,0.0,0.0,0.0,0.0,0.0,0.0,0.0,0.0,0.0,0.0,0.0,0.0,0.0,0.0,0.0,0.0,0.0,-2.5586,-2.552,-2.5414,-2.5279,-2.3626,-2.2263,0.0,0.0,0.0,0.0,0.0,0.0,0.0,0.0,0.0,0.0,0.0,0.0,0.0,0.0,0.0,0.0,0.0,0.0,0.0,0.0,0.0,0.0,0.0,0.0,0.0,0.0,0.0,0.0,0.0,0.0,0.0,0.0,0.0,0.0,0.0,0.0,0.0,0.0,0.0,0.0,0.0,0.0,0.0,0.0,0.0,0.0,0.0,0.0,0.0,0.0,0.0,0.0,0.0,0.0,0.0,0.0,0.0,0.0,0.0,0.0,0.0,0.0,0.0,0.0,0.0,0.0,0.0,0.0,0.0,0.0,0.0,0.0,0.0,0.0,0.0,0.0,0.0,0.0,0.0,0.0,0.0,0.0,0.0,0.0,0.0,0.0,0.0,0.0,0.0,0.0,0.0,0.0,0.0,0.0,0.0,0.0,0.0,0.0,0.0,0.0,0.0,0.0,0.0,0.0,0.0,0.0,0.0,0.0,0.0,-2.5671,-2.5595,-2.5492,-2.5307,-2.367,-2.2325,0.0,0.0,0.0,0.0,0.0,0.0,0.0,0.0,0.0,0.0,0.0,0.0,0.0,0.0,0.0,0.0,0.0,0.0,0.0,0.0,0.0,0.0,0.0,0.0,0.0,0.0,0.0,0.0,0.0,0.0,0.0,0.0,0.0,0.0,0.0,0.0,0.0,0.0,0.0,0.0,0.0,0.0,0.0,0.0,0.0,0.0,0.0,0.0,0.0,0.0,0.0,0.0,0.0,0.0,0.0,0.0,0.0,0.0,0.0,0.0,0.0,0.0,0.0,0.0,0.0,0.0,0.0,0.0,0.0,0.0,0.0,0.0,0.0,0.0,0.0,0.0,0.0,0.0,0.0,0.0,0.0,0.0,0.0,0.0,0.0,0.0,0.0,0.0,0.0,0.0,0.0,0.0,0.0,0.0,0.0,0.0,0.0,0.0,0.0,0.0,0.0,0.0,0.0,0.0,0.0,0.0,0.0,0.0,0.0,-2.6079,-2.5775,-2.5695,-2.5788,-2.3891,-2.2411,0.0,0.0,0.0,0.0,0.0,0.0,0.0,0.0,0.0,0.0,0.0,0.0,0.0,0.0,0.0,0.0,0.0,0.0,0.0,0.0,0.0,0.0,0.0,0.0,0.0,0.0,0.0,0.0,0.0,0.0,0.0,0.0,0.0,0.0,0.0,0.0,0.0,0.0,0.0,0.0,0.0,0.0,0.0,0.0,0.0,0.0,0.0,0.0,0.0,0.0,0.0,0.0,0.0,0.0,0.0,0.0,0.0,0.0,0.0,0.0,0.0,0.0,0.0,0.0,0.0,0.0,0.0,0.0,0.0,0.0,0.0,0.0,0.0,0.0,0.0,0.0,0.0,0.0,0.0,0.0,0.0,0.0,0.0,0.0,0.0,0.0,0.0,0.0,0.0,0.0,0.0,0.0,0.0,0.0,0.0,0.0,0.0,0.0,0.0,0.0,0.0,0.0,0.0,0.0,0.0,0.0,0.0,0.0,-2.6146,-2.6919,-2.6131,-2.6077,-2.672,-2.4339,-2.2552,0.0,0.0,0.0,0.0,0.0,0.0,0.0,0.0,0.0,0.0,0.0,0.0,0.0,0.0,0.0,0.0,0.0,0.0,0.0,0.0,0.0,0.0,0.0,0.0,0.0,0.0,0.0,0.0,0.0,0.0,0.0,0.0,0.0,0.0,0.0,0.0,0.0,0.0,0.0,0.0,0.0,0.0,0.0,0.0,0.0,0.0,0.0,0.0,0.0,0.0,0.0,0.0,0.0,0.0,0.0,0.0,0.0,0.0,0.0,0.0,0.0,0.0,0.0,0.0,0.0,0.0,0.0,0.0,0.0,0.0,0.0,0.0,0.0,0.0,0.0,0.0,0.0,0.0,0.0,0.0,0.0,0.0,0.0,0.0,0.0,0.0,0.0,0.0,0.0,0.0,0.0,0.0,0.0,0.0,0.0,0.0,0.0,0.0,0.0,0.0,0.0,0.0,0.0,0.0,0.0,0.0,0.0,0.0,0.0,-2.7011,-2.7293,-2.7562,-2.7675,-2.5813,-2.4035,0.0,0.0,0.0,0.0,0.0,0.0,0.0,0.0,0.0,0.0,0.0,0.0,0.0,0.0,0.0,0.0,0.0,0.0,0.0,0.0,0.0,0.0,0.0,0.0,0.0,0.0,0.0,0.0,0.0,0.0,0.0,0.0,0.0,0.0,0.0,0.0,0.0,0.0,0.0,0.0,0.0,0.0,0.0,0.0,0.0,0.0,0.0,0.0,0.0,0.0,0.0,0.0,0.0,0.0,0.0,0.0,0.0,0.0,0.0,0.0,0.0,0.0,0.0,0.0,0.0,0.0,0.0,0.0,0.0,0.0,0.0,0.0,0.0,0.0,0.0,0.0,0.0,0.0,0.0,0.0,0.0,0.0,0.0,0.0,0.0,0.0,0.0,0.0,0.0,0.0,0.0,0.0,0.0,0.0,0.0,0.0,0.0,0.0,0.0,0.0,0.0,0.0,0.0,0.0,0.0,0.0,0.0,0.0,0.0,-2.8921,-2.944,-2.97,-2.9652,-2.7658,-2.5576,-2.3488,0.0,0.0,0.0,0.0,0.0,0.0,0.0,0.0,0.0,0.0,0.0,0.0,0.0,0.0,0.0,0.0,0.0,0.0,0.0,0.0,0.0,0.0,0.0,0.0,0.0,0.0,0.0,0.0,0.0,0.0,0.0,0.0,0.0,0.0,0.0,0.0,0.0,0.0,0.0,0.0,0.0,0.0,0.0,0.0,0.0,0.0,0.0,0.0,0.0,0.0,0.0,0.0,0.0,0.0,0.0,0.0,0.0,0.0,0.0,0.0,0.0,0.0,0.0,0.0,0.0,0.0,0.0,0.0,0.0,0.0,0.0,0.0,0.0,0.0,0.0,0.0,0.0,0.0,0.0,0.0,0.0,0.0,0.0,0.0,0.0,0.0,0.0,0.0,0.0,0.0,0.0,0.0,0.0,0.0,0.0,0.0,0.0,0.0,0.0,0.0,0.0,0.0,0.0,0.0,0.0,0.0,0.0,0.0,-3.2383,-3.2478,-3.249,-3.2284,-2.979,-2.7225,0.0,0.0,0.0,0.0,0.0,0.0,0.0,0.0,0.0,0.0,0.0,0.0,0.0,0.0,0.0,0.0,0.0,0.0,0.0,0.0,0.0,0.0,0.0,0.0,0.0,0.0,0.0,0.0,0.0,0.0,0.0,0.0,0.0,0.0,0.0,0.0,0.0,0.0,0.0,0.0,0.0,0.0,0.0,0.0,0.0,0.0,0.0,0.0,0.0,0.0,0.0,0.0,0.0,0.0,0.0,0.0,0.0,0.0,0.0,0.0,0.0,0.0,0.0,0.0,0.0,0.0,0.0,0.0,0.0,0.0,0.0,0.0,0.0,0.0,0.0,0.0,0.0,0.0,0.0,0.0,0.0,0.0,0.0,0.0,0.0,0.0,0.0,0.0,0.0,0.0,0.0,0.0,0.0,0.0,0.0,0.0,0.0,0.0,0.0,0.0,0.0,0.0,0.0,0.0,0.0,0.0,0.0,0.0,0.0,-3.5876,-3.7187,-3.6951,-3.5028,-3.2459,-3.0159,0.0,0.0,0.0,0.0,0.0,0.0,0.0,0.0,0.0,0.0,0.0,0.0,0.0,0.0,0.0,0.0,0.0,0.0,0.0,0.0,0.0,0.0,0.0,0.0,0.0,0.0,0.0,0.0,0.0,0.0,0.0,0.0,0.0,0.0,0.0,0.0,0.0,0.0,0.0,0.0,0.0,0.0,0.0,0.0,0.0,0.0,0.0,0.0,0.0,0.0,0.0,0.0,0.0,0.0,0.0,0.0,0.0,0.0,0.0,0.0,0.0,0.0,0.0,0.0,0.0,0.0,0.0,0.0,0.0,0.0,0.0,0.0,0.0,0.0,0.0,0.0,0.0,0.0,0.0,0.0,0.0,0.0,0.0,0.0,0.0,0.0,0.0,0.0,0.0,0.0,0.0,0.0,0.0,0.0,0.0,0.0,0.0,0.0,0.0,0.0,0.0,0.0,0.0,0.0,0.0,0.0,0.0,0.0,-3.5026,-3.7217,-3.9335,-3.9726,-3.82,-3.4952,-3.203,0.0,0.0,0.0,0.0,0.0,0.0,0.0,0.0,0.0,0.0,0.0,0.0,0.0,0.0,0.0,0.0,0.0,0.0,0.0,0.0,0.0,0.0,0.0,0.0,0.0,0.0,0.0,0.0,0.0,0.0,0.0,0.0,0.0,0.0,0.0,0.0,0.0,0.0,0.0,0.0,0.0,0.0,0.0,0.0,0.0,0.0,0.0,0.0,0.0,0.0,0.0,0.0,0.0,0.0,0.0,0.0,0.0,0.0,0.0,0.0,0.0,0.0,0.0,0.0,0.0,0.0,0.0,0.0,0.0,0.0,0.0,0.0,0.0,0.0,0.0,0.0,0.0,0.0,0.0,0.0,0.0,0.0,0.0,0.0,0.0,0.0,0.0,0.0,0.0,0.0,0.0,0.0,0.0,0.0,0.0,0.0,0.0,0.0,0.0,0.0,0.0,0.0,0.0,0.0,0.0,0.0,0.0,0.0,-3.5654,-3.7439,-3.9879,-4.1172,-4.1074,-3.7146,-3.3406,0.0,0.0,0.0,0.0,0.0,0.0,0.0,0.0,0.0,0.0,0.0,0.0,0.0,0.0,0.0,0.0,0.0,0.0,0.0,0.0,0.0,0.0,0.0,0.0,0.0,0.0,0.0,0.0,0.0,0.0,0.0,0.0,0.0,0.0,0.0,0.0,0.0,0.0,0.0,0.0,0.0,0.0,0.0,0.0,0.0,0.0,0.0,0.0,0.0,0.0,0.0,0.0,0.0,0.0,0.0,0.0,0.0,0.0,0.0,0.0,0.0,0.0,0.0,0.0,0.0,0.0,0.0,0.0,0.0,0.0,0.0,0.0,0.0,0.0,0.0,0.0,0.0,0.0,0.0,0.0,0.0,0.0,0.0,0.0,0.0,0.0,0.0,0.0,0.0,0.0,0.0,0.0,0.0,0.0,0.0,0.0,0.0,0.0,0.0,0.0,0.0,0.0,0.0,0.0,0.0,0.0,0.0,0.0,-3.6743,-3.9113,-4.0398,-4.1083,-4.1172,-3.8318,-3.5755,0.0,0.0,0.0,0.0,0.0,0.0,0.0,0.0,0.0,0.0,0.0,0.0,0.0,0.0,0.0,0.0,0.0,0.0,0.0,0.0,0.0,0.0,0.0,0.0,0.0,0.0,0.0,0.0,0.0,0.0,0.0,0.0,0.0,0.0,0.0,0.0,0.0,0.0,0.0,0.0,0.0,0.0,0.0,0.0,0.0,0.0,0.0,0.0,-3.1464,0.0,0.0,0.0,0.0,0.0,0.0,0.0,0.0,0.0,0.0,0.0,0.0,0.0,0.0,0.0,0.0,0.0,0.0,0.0,0.0,0.0,0.0,0.0,0.0,0.0,0.0,0.0,0.0,0.0,0.0,0.0,0.0,0.0,0.0,0.0,0.0,0.0,0.0,0.0,0.0,0.0,0.0,0.0,0.0,0.0,0.0,0.0,0.0,0.0,0.0,0.0,0.0,0.0,0.0,0.0,0.0,0.0,0.0,0.0,-3.7405,-3.9535,-4.0521,-4.1028,-4.1026,-3.9434,-3.732,0.0,0.0,0.0,0.0,0.0,0.0,0.0,0.0,0.0,0.0,0.0,0.0,0.0,0.0,0.0,0.0,0.0,0.0,0.0,0.0,0.0,0.0,0.0,0.0,0.0,0.0,0.0,0.0,0.0,0.0,0.0,0.0,0.0,0.0,0.0,0.0,0.0,0.0,0.0,0.0,0.0,0.0,0.0,0.0,0.0,0.0,0.0,0.0,0.0,0.0,0.0,0.0,0.0,0.0,0.0,0.0,0.0,0.0,0.0,0.0,0.0,0.0,0.0,0.0,0.0,0.0,0.0,0.0,0.0,0.0,0.0,0.0,0.0,0.0,0.0,0.0,0.0,0.0,0.0,0.0,0.0,0.0,0.0,0.0,0.0,0.0,0.0,0.0,0.0,0.0,0.0,0.0,0.0,0.0,0.0,0.0,0.0,0.0,0.0,0.0,0.0,0.0,0.0,0.0,0.0,0.0,0.0,-3.533,-3.7851,-3.9621,-4.0503,-4.0976,-4.0976,-4.0131,-3.8164,-3.4976,0.0,0.0,0.0,0.0,0.0,0.0,0.0,0.0,0.0,0.0,0.0,0.0,0.0,0.0,0.0,0.0,0.0,0.0,0.0,0.0,0.0,0.0,0.0,0.0,0.0,0.0,0.0,0.0,0.0,0.0,0.0,0.0,0.0,0.0,0.0,0.0,0.0,0.0,-2.7439,-2.874,0.0,0.0,0.0,0.0,0.0,0.0,0.0,0.0,-3.2069,0.0,0.0,0.0,0.0,0.0,0.0,0.0,0.0,0.0,0.0,0.0,0.0,0.0,0.0,0.0,0.0,0.0,0.0,0.0,0.0,0.0,0.0,0.0,0.0,0.0,0.0,0.0,0.0,0.0,0.0,0.0,0.0,0.0,0.0,0.0,0.0,0.0,0.0,0.0,0.0,0.0,0.0,0.0,0.0,0.0,0.0,0.0,0.0,0.0,0.0,0.0,0.0,0.0,0.0,0.0,0.0,-3.3762,-3.5804,-3.8035,-4.0438,-4.0676,-4.0816,-4.0951,-3.9474,-3.7737,-3.5801,0.0,0.0,0.0,0.0,0.0,0.0,0.0,0.0,0.0,0.0,0.0,0.0,0.0,0.0,0.0,0.0,0.0,0.0,0.0,0.0,0.0,0.0,0.0,0.0,0.0,0.0,0.0,0.0,0.0,0.0,0.0,0.0,0.0,0.0,0.0,0.0,0.0,0.0,0.0,-3.0781,-3.1496,0.0,0.0,0.0,0.0,0.0,0.0,0.0,0.0,-3.2192,0.0,0.0,0.0,0.0,0.0,0.0,0.0,0.0,0.0,0.0,0.0,0.0,0.0,0.0,0.0,0.0,0.0,0.0,0.0,0.0,0.0,0.0,0.0,0.0,0.0,0.0,0.0,0.0,0.0,0.0,0.0,0.0,0.0,0.0,0.0,0.0,0.0,0.0,0.0,0.0,0.0,0.0,0.0,0.0,0.0,0.0,0.0,0.0,0.0,0.0,0.0,0.0,0.0,0.0,0.0,-3.4096,-3.6752,-3.8919,-4.0531,-4.0674,-4.0745,-4.0828,-3.9273,-3.7407,0.0,0.0,0.0,0.0,0.0,0.0,0.0,0.0,0.0,0.0,0.0,0.0,0.0,0.0,0.0,0.0,0.0,0.0,0.0,0.0,0.0,0.0,0.0,0.0,0.0,0.0,0.0,0.0,0.0,0.0,0.0,0.0,0.0,0.0,0.0,0.0,0.0,0.0,0.0,0.0,-3.1755,-3.2069,-3.2914,0.0,0.0,0.0,0.0,0.0,0.0,-3.3432,-3.3188,0.0,0.0,0.0,0.0,0.0,0.0,0.0,0.0,0.0,0.0,0.0,0.0,0.0,0.0,0.0,0.0,0.0,0.0,0.0,0.0,0.0,0.0,0.0,0.0,0.0,0.0,0.0,0.0,0.0,0.0,0.0,0.0,0.0,0.0,0.0,0.0,0.0,0.0,0.0,0.0,0.0,0.0,0.0,0.0,0.0,0.0,0.0,0.0,0.0,0.0,0.0,0.0,0.0,0.0,0.0,-3.4368,-3.7608,-3.9708,-4.0446,-4.0448,-4.0416,-4.0394,-3.8738,-3.6732,0.0,0.0,0.0,0.0,0.0,0.0,0.0,0.0,0.0,0.0,0.0,0.0,0.0,0.0,0.0,0.0,0.0,0.0,0.0,0.0,0.0,0.0,0.0,0.0,0.0,0.0,0.0,0.0,0.0,0.0,0.0,0.0,0.0,0.0,0.0,0.0,0.0,0.0,0.0,0.0,0.0,-3.2474,-3.3961,-3.3634,0.0,0.0,0.0,0.0,-3.4205,-3.4286,0.0,0.0,0.0,0.0,0.0,0.0,0.0,0.0,0.0,0.0,0.0,0.0,0.0,0.0,0.0,0.0,0.0,0.0,0.0,0.0,0.0,0.0,0.0,0.0,0.0,0.0,0.0,0.0,0.0,0.0,0.0,0.0,0.0,0.0,0.0,0.0,0.0,0.0,0.0,0.0,0.0,0.0,0.0,0.0,0.0,0.0,0.0,0.0,0.0,0.0,0.0,0.0,0.0,0.0,0.0,0.0,-3.5242,-3.792,-3.9688,-4.0419,-3.9846,-3.9495,-3.9508,-3.7186,-3.5141,0.0,0.0,0.0,0.0,0.0,0.0,0.0,0.0,0.0,0.0,0.0,0.0,0.0,0.0,0.0,0.0,0.0,0.0,0.0,0.0,0.0,0.0,0.0,0.0,0.0,0.0,0.0,0.0,0.0,0.0,0.0,0.0,0.0,0.0,0.0,0.0,0.0,0.0,0.0,0.0,0.0,-3.3023,-3.3976,-3.4069,-3.3821,0.0,0.0,-3.4206,-3.4218,-3.4205,0.0,0.0,0.0,0.0,0.0,0.0,0.0,0.0,0.0,0.0,0.0,0.0,0.0,0.0,0.0,0.0,0.0,0.0,0.0,0.0,0.0,0.0,0.0,0.0,0.0,0.0,0.0,0.0,0.0,0.0,0.0,0.0,0.0,0.0,0.0,0.0,0.0,0.0,0.0,0.0,0.0,0.0,0.0,0.0,0.0,0.0,0.0,0.0,0.0,0.0,0.0,0.0,0.0,0.0,0.0,-3.2938,-3.5091,-3.815,-3.9914,-4.0248,-4.0087,-3.9764,-3.9367,-3.692,-3.4622,0.0,0.0,0.0,0.0,0.0,0.0,0.0,0.0,0.0,0.0,0.0,0.0,0.0,0.0,0.0,0.0,0.0,0.0,0.0,0.0,0.0,0.0,0.0,0.0,0.0,0.0,0.0,0.0,0.0,0.0,0.0,0.0,0.0,0.0,0.0,0.0,0.0,0.0,0.0,0.0,0.0,0.0,-3.4573,-3.4753,0.0,0.0,0.0,-3.4949,-3.4943,0.0,0.0,0.0,0.0,0.0,0.0,0.0,0.0,0.0,0.0,0.0,0.0,0.0,0.0,0.0,0.0,0.0,0.0,0.0,0.0,0.0,0.0,0.0,0.0,0.0,0.0,0.0,0.0,0.0,0.0,0.0,0.0,0.0,0.0,0.0,0.0,0.0,0.0,0.0,0.0,0.0,0.0,0.0,0.0,0.0,0.0,0.0,0.0,0.0,0.0,0.0,0.0,0.0,0.0,0.0,0.0,0.0,-3.4762,-3.8191,-3.9982,-3.9973,-3.9818,-3.9448,-3.8823,-3.6491,0.0,0.0,0.0,0.0,0.0,0.0,0.0,0.0,0.0,0.0,0.0,0.0,0.0,0.0,0.0,0.0,0.0,0.0,0.0,0.0,0.0,0.0,0.0,0.0,0.0,0.0,0.0,-1.9961,0.0,0.0,0.0,0.0,0.0,0.0,0.0,0.0,0.0,0.0,0.0,0.0,0.0,0.0,-3.3056,-3.4964,-3.519,-3.5246,0.0,0.0,-3.5486,-3.55,-3.55,-3.5205,0.0,0.0,0.0,0.0,0.0,0.0,0.0,0.0,0.0,0.0,0.0,0.0,0.0,0.0,0.0,0.0,0.0,0.0,0.0,0.0,0.0,0.0,0.0,0.0,0.0,0.0,0.0,0.0,0.0,0.0,0.0,0.0,0.0,0.0,0.0,0.0,0.0,0.0,0.0,0.0,0.0,0.0,0.0,0.0,0.0,0.0,0.0,0.0,0.0,0.0,0.0,0.0,0.0,0.0,-3.2886,-3.4569,-3.7879,-3.9615,-3.9577,-3.8355,-3.7669,-3.7573,-3.5456,-3.3505,0.0,0.0,0.0,0.0,0.0,0.0,0.0,0.0,0.0,0.0,0.0,0.0,0.0,0.0,0.0,0.0,0.0,0.0,0.0,0.0,0.0,0.0,0.0,0.0,0.0,0.0,0.0,0.0,0.0,0.0,0.0,0.0,0.0,0.0,0.0,0.0,0.0,0.0,0.0,0.0,0.0,-3.3179,-3.4778,-3.5219,-3.5405,0.0,-3.5453,-3.5439,-3.5493,-3.55,-3.5191,-3.4263,0.0,0.0,0.0,0.0,0.0,0.0,0.0,0.0,0.0,0.0,0.0,0.0,0.0,0.0,0.0,0.0,0.0,0.0,0.0,0.0,0.0,0.0,0.0,0.0,0.0,0.0,0.0,0.0,0.0,0.0,0.0,0.0,0.0,0.0,0.0,0.0,0.0,0.0,0.0,0.0,0.0,0.0,0.0,0.0,0.0,0.0,0.0,0.0,0.0,0.0,0.0,0.0,0.0,-3.2486,-3.4123,-3.7542,-3.9046,-3.8571,-3.8225,-3.758,-3.6548,-3.5384,-3.3688,0.0,0.0,0.0,0.0,0.0,0.0,0.0,0.0,0.0,0.0,0.0,0.0,0.0,0.0,0.0,0.0,0.0,0.0,0.0,0.0,0.0,0.0,0.0,0.0,0.0,0.0,0.0,0.0,-2.6579,-2.7585,-2.7619,0.0,0.0,0.0,0.0,0.0,0.0,0.0,0.0,0.0,0.0,-3.2687,-3.443,-3.4686,0.0,0.0,-3.5965,-3.6009,-3.6151,-3.6185,-3.5852,-3.4877,-3.395,0.0,0.0,0.0,0.0,0.0,0.0,0.0,0.0,0.0,0.0,0.0,0.0,0.0,0.0,0.0,0.0,0.0,0.0,0.0,0.0,0.0,0.0,0.0,0.0,0.0,0.0,0.0,0.0,0.0,0.0,0.0,0.0,0.0,0.0,0.0,0.0,0.0,0.0,0.0,0.0,0.0,0.0,0.0,0.0,0.0,0.0,0.0,0.0,0.0,0.0,0.0,0.0,-3.2184,-3.3807,-3.6989,-3.8354,-3.7779,-3.7622,-3.6979,-3.5824,-3.5268,-3.3992,0.0,0.0,0.0,0.0,0.0,0.0,0.0,0.0,0.0,0.0,0.0,0.0,0.0,0.0,0.0,0.0,0.0,0.0,0.0,0.0,0.0,0.0,0.0,0.0,0.0,0.0,0.0,0.0,-2.8071,-2.8459,-2.7203,0.0,0.0,0.0,0.0,0.0,0.0,0.0,0.0,0.0,0.0,-3.2676,-3.4214,-3.439,-3.4803,-3.6064,-3.6224,-3.6307,-3.6485,-3.6493,-3.6216,-3.5466,0.0,0.0,0.0,0.0,0.0,0.0,0.0,0.0,0.0,0.0,0.0,0.0,0.0,0.0,0.0,0.0,0.0,0.0,0.0,0.0,0.0,0.0,0.0,0.0,0.0,0.0,0.0,-2.7115,0.0,0.0,-2.8233,0.0,0.0,0.0,0.0,0.0,0.0,0.0,0.0,0.0,0.0,0.0,0.0,0.0,0.0,0.0,0.0,0.0,0.0,0.0,0.0,0.0,0.0,-3.2064,-3.3629,-3.6227,-3.7529,-3.747,-3.6237,-3.5578,-3.5497,-3.498,-3.4279,-3.3325,0.0,0.0,0.0,0.0,0.0,0.0,0.0,0.0,0.0,0.0,0.0,0.0,0.0,0.0,0.0,0.0,0.0,0.0,0.0,0.0,0.0,0.0,0.0,0.0,0.0,0.0,-2.7397,-2.8263,-2.8075,0.0,0.0,0.0,0.0,0.0,0.0,0.0,0.0,0.0,-3.1436,-3.2448,-3.3359,-3.4188,-3.45,-3.4996,-3.5968,-3.612,-3.6159,-3.6311,-3.6274,-3.615,0.0,0.0,0.0,0.0,0.0,0.0,0.0,0.0,0.0,0.0,0.0,0.0,0.0,0.0,0.0,0.0,0.0,0.0,0.0,0.0,0.0,0.0,0.0,0.0,0.0,0.0,0.0,-2.7994,-2.9986,0.0,0.0,0.0,0.0,0.0,0.0,0.0,0.0,0.0,0.0,0.0,-3.1841,-3.1356,0.0,0.0,0.0,0.0,0.0,0.0,0.0,0.0,0.0,0.0,0.0,0.0,-3.2184,-3.3777,-3.6107,-3.7177,-3.6953,-3.6006,-3.5392,-3.5164,-3.4641,-3.3775,-3.249,0.0,0.0,0.0,0.0,0.0,0.0,0.0,0.0,0.0,0.0,0.0,0.0,0.0,0.0,0.0,0.0,0.0,0.0,0.0,0.0,0.0,0.0,0.0,0.0,0.0,-2.7869,0.0,0.0,0.0,0.0,0.0,0.0,0.0,0.0,0.0,0.0,-2.9991,-3.1184,-3.2201,-3.2625,-3.3105,-3.3881,-3.4055,-3.468,0.0,0.0,0.0,0.0,0.0,0.0,0.0,0.0,0.0,0.0,0.0,0.0,0.0,0.0,-3.4574,-3.3026,-3.3156,-3.3487,-3.3506,0.0,0.0,0.0,0.0,0.0,0.0,0.0,0.0,0.0,0.0,0.0,0.0,0.0,0.0,-3.0283,-3.2117,-3.241,0.0,0.0,0.0,0.0,0.0,0.0,0.0,0.0,-3.2818,-3.3157,-3.3425,-3.298,-3.2327,-3.1538,-3.1081,-2.9179,0.0,0.0,0.0,0.0,0.0,0.0,0.0,0.0,-3.2147,-3.3669,-3.5703,-3.6629,-3.6396,-3.5393,-3.4735,-3.451,-3.4078,-3.3475,-3.265,-3.1823,-3.053,0.0,0.0,0.0,0.0,0.0,0.0,0.0,0.0,0.0,0.0,0.0,0.0,0.0,0.0,0.0,0.0,0.0,0.0,0.0,0.0,0.0,0.0,0.0,-2.925,0.0,0.0,0.0,0.0,0.0,0.0,0.0,0.0,0.0,-2.9584,-3.0983,-3.2152,-3.2605,-3.3162,-3.3682,-3.4156,0.0,0.0,0.0,0.0,0.0,0.0,0.0,-3.7723,-3.6527,-3.6658,-3.6934,-3.6916,-3.6639,-3.6445,-3.6445,0.0,0.0,-3.4537,-3.4642,-3.4994,-3.4994,-3.5012,-3.4981,-3.4936,-3.4911,-3.5051,0.0,0.0,0.0,0.0,-2.744,0.0,0.0,0.0,-3.1706,-3.2339,0.0,-3.387,0.0,0.0,0.0,0.0,-3.2317,-3.2236,0.0,0.0,-3.4914,-3.5277,-3.472,-3.4686,-3.4313,-3.3511,-3.2256,-3.1598,-3.1376,-2.9435,0.0,0.0,0.0,0.0,0.0,0.0,-3.2052,-3.3476,-3.5079,-3.5894,-3.5824,-3.4412,-3.3617,-3.358,-3.3331,-3.3343,-3.3698,-3.3083,-3.2391,-3.1581,-2.9322,0.0,0.0,0.0,0.0,0.0,0.0,0.0,0.0,0.0,0.0,0.0,0.0,0.0,0.0,0.0,0.0,0.0,0.0,0.0,0.0,-3.0702,0.0,0.0,0.0,0.0,0.0,0.0,0.0,0.0,0.0,-3.0325,-3.047,-3.1777,-3.2715,-3.2724,0.0,0.0,0.0,0.0,-3.6689,-3.7552,-3.7748,-3.7803,-3.7872,-3.7868,-3.7799,-3.7706,0.0,0.0,-3.7544,-3.6905,-3.6431,-3.6409,-3.7052,-3.7334,-3.6653,-3.6551,-3.657,-3.6556,-3.6556,-3.657,-3.6574,-3.6569,-3.6601,-3.1117,0.0,0.0,0.0,0.0,-2.9025,-3.0413,-3.3091,-3.2505,-3.3222,-3.4774,-3.4969,0.0,0.0,0.0,0.0,0.0,0.0,-3.3342,-3.4218,-3.457,-3.4947,-3.534,-3.534,-3.5221,-3.4984,-3.4617,-3.4401,-3.4367,-3.3778,-3.174,-2.8408,0.0,0.0,0.0,0.0,-3.2949,-3.4338,-3.5252,-3.5625,-3.5473,-3.4476,-3.3596,-3.2855,-3.2756,-3.2761,-3.2854,-3.2688,-3.2235,-3.1476,-3.0536,0.0,0.0,0.0,0.0,0.0,0.0,0.0,0.0,0.0,0.0,0.0,0.0,0.0,0.0,0.0,0.0,0.0,0.0,0.0,-3.0312,-3.0951,-3.0808,0.0,0.0,0.0,0.0,0.0,0.0,0.0,0.0,0.0,-3.2713,-3.3191,-3.3692,0.0,0.0,-3.5224,-3.5844,-3.6152,-3.6622,-3.7441,-3.761,0.0,-3.7696,-3.8161,-3.8317,-3.7731,-3.8044,-3.8355,-3.834,-3.8157,-3.801,-3.7991,-3.8212,-3.83,-3.8128,-3.807,-3.8051,-3.807,-3.807,-3.807,-3.8088,-3.8496,-3.8866,-3.2514,-3.1625,-3.069,-3.0555,-3.0888,-3.0406,-3.1675,-3.4028,-3.3547,-3.3879,-3.4785,-3.5055,-3.453,-3.3462,-3.3623,0.0,0.0,0.0,-3.3644,-3.448,-3.421,-3.4489,-3.5168,-3.5207,-3.5207,-3.5191,-3.4906,-3.4768,-3.4783,-3.4518,-3.3212,-3.1009,0.0,-3.1549,-3.1295,-3.2378,-3.3509,-3.4627,-3.5011,-3.5103,-3.4984,-3.3951,-3.3012,-3.2266,-3.223,-3.2316,-3.2501,-3.2501,-3.2287,-3.1859,-3.1266,-3.0097,0.0,0.0,0.0,0.0,0.0,0.0,0.0,0.0,0.0,0.0,0.0,-2.3985,-2.4334,0.0,0.0,0.0,-2.8945,-3.0338,-3.1618,-3.1863,0.0,0.0,0.0,0.0,0.0,0.0,0.0,-3.0381,-3.1977,-3.3371,-3.4174,-3.4578,-3.4963,-3.5445,-3.5775,-3.6193,-3.6707,0.0,-3.7422,-3.79,-3.8,-3.8029,-3.8048,-3.8434,-3.8581,-3.8121,-3.8389,-3.8689,-3.8707,-3.8707,-3.8707,-3.8707,-3.8707,-3.8707,-3.8707,-3.8707,-3.8707,-3.8707,-3.8707,-3.8707,-3.8707,-3.935,-3.9832,-3.3031,-3.3332,-3.114,-3.0807,-3.1742,-3.1638,-3.27,-3.4487,-3.4528,-3.4309,-3.4012,-3.4358,-3.3836,-3.2676,-3.2832,0.0,-3.4128,-3.351,-3.3688,-3.4479,-3.3887,-3.3912,-3.452,-3.4544,-3.4528,-3.4487,-3.3822,-3.3551,-3.3585,-3.2933,-3.291,-3.3517,-3.3538,-3.3207,-3.2629,-3.3219,-3.391,-3.4573,-3.459,-3.4523,-3.4404,-3.3038,-3.2122,-3.1751,-3.177,-3.195,-3.2367,-3.2401,-3.2401,-3.2383,-3.1664,-3.0876,-3.0002,0.0,0.0,0.0,0.0,0.0,0.0,0.0,0.0,0.0,0.0,0.0,0.0,0.0,0.0,-3.0283,-3.1768,0.0,-3.3642,-3.3054,0.0,0.0,0.0,-3.1403,-3.1403,-3.1452,-3.1806,-3.2601,0.0,0.0,-3.5096,-3.5899,-3.6413,-3.6486,-3.707,-3.7529,-3.7584,-3.8193,-3.8707,-3.8652,-3.8689,-3.8689,-3.8615,-3.867,-3.8689,-3.8634,-3.8707,-3.8707,-3.8726,-3.8817,-3.8799,-3.8707,-3.8762,-3.8781,-3.8726,-3.8707,-3.871,-3.8724,-3.8716,-3.8692,-3.8776,-3.9365,-3.982,-3.3155,-3.2795,-3.2217,-3.2418,-3.312,-3.3102,-3.3379,-3.3836,-3.3836,-3.377,-3.371,-3.3786,-3.3659,-3.3349,-3.3396,-3.354,-3.3735,-3.3574,-3.3641,-3.382,-3.3659,-3.3668,-3.3836,-3.3836,-3.3836,-3.382,-3.365,-3.3574,-3.3608,-3.3422,-3.3535,-3.386,-3.3868,-3.3869,-3.3852,-3.4026,-3.4498,-3.5251,-3.5251,-3.4739,-3.3677,-3.2763,-3.2015,-3.1349,-3.1332,-3.1389,-3.1523,-3.1506,-3.1523,-3.1506,-3.1597,-3.1219,-3.028,-2.8753,0.0,0.0,0.0,0.0,0.0,0.0,0.0,0.0,0.0,-2.6252,-2.7666,0.0,-3.0621,0.0,-3.2657,-3.3227,-3.29,-3.2711,0.0,0.0,-3.188,-3.1403,-3.1403,-3.1953,-3.2619,-3.3421,-3.4215,-3.5261,-3.6725,-3.7088,-3.7422,-3.8028,-3.7734,-3.7731,-3.8303,-3.856,-3.8707,-3.8707,-3.8707,-3.8707,-3.8707,-3.8707,-3.8726,-3.8707,-3.8707,-3.8707,-3.8707,-3.9221,-3.9441,-3.8891,-3.9221,-3.9331,-3.8805,-3.8707,-3.8777,-3.8865,-3.8794,-3.8763,-3.8912,-3.9569,-4.0149,-3.2183,-3.2104,-3.212,-3.2312,-3.2648,-3.2664,-3.2853,-3.3156,-3.3156,-3.3172,-3.3145,-3.2826,-3.2664,-3.2691,-3.3013,-3.3145,-3.3172,-3.3172,-3.3172,-3.3145,-3.2826,-3.2853,-3.313,-3.3145,-3.3156,-3.3145,-3.3156,-3.2986,-3.2691,-3.2648,-3.2906,-3.3371,-3.3397,-3.3558,-3.3897,-3.4237,-3.4609,-3.5024,-3.4283,-3.3416,-3.2498,-3.1767,-3.1318,-3.1112,-3.1072,-3.1032,-3.0975,-3.0915,-3.0895,-3.0895,-3.1162,-3.1072,-3.0492,-2.9092,-2.7684,0.0,0.0,0.0,0.0,0.0,0.0,0.0,0.0,0.0,0.0,0.0,-3.1738,-3.2145,-3.2755,-3.2958,-3.2582,-3.256,-3.2632,-3.2853,-3.2447,-3.226,-3.2454,-3.2852,-3.3453,-3.4246,-3.505,-3.6064,-3.7323,-3.7804,-3.8193,-3.8634,-3.8303,-3.8175,-3.8597,-3.8707,-3.8707,-3.8707,-3.8707,-3.8707,-3.8707,-3.9022,-3.9242,-3.9261,-3.9303,-3.9374,-3.9374,-3.953,-3.9517,-3.9138,-3.939,-3.9552,-3.9111,-3.9317,-3.9535,-3.9641,-3.9842,-3.977,-3.9315,-3.9804,-4.0387,-3.0957,-3.1496,-3.1496,-3.1496,-3.1496,-3.1496,-3.1881,-3.2465,-3.2465,-3.2465,-3.2437,-3.1768,-3.1496,-3.1524,-3.2176,-3.2449,-3.2465,-3.2465,-3.2449,-3.241,-3.1796,-3.1853,-3.2465,-3.2449,-3.2465,-3.2465,-3.2449,-3.212,-3.1496,-3.1496,-3.1898,-3.2616,-3.2659,-3.2901,-3.3404,-3.4046,-3.4381,-3.4366,-3.2901,-3.1902,-3.1374,-3.08,-3.0654,-3.0892,-3.0834,-3.077,-3.063,-3.051,-3.0464,-3.0464,-3.0584,-3.0651,-3.0679,-2.9005,-2.8008,0.0,-2.6146,0.0,0.0,0.0,0.0,0.0,0.0,0.0,0.0,-3.161,-3.2457,-3.2372,-3.2439,-3.2484,-3.2501,-3.2501,-3.2681,-3.3139,-3.3199,-3.3346,-3.3734,-3.3807,-3.4159,-3.505,-3.5845,-3.6629,-3.7581,-3.8282,-3.8689,-3.8707,-3.867,-3.8652,-3.8707,-3.8707,-3.8707,-3.8707,-3.8707,-3.8658,-3.8635,-3.9241,-3.9668,-3.969,-3.9822,-4.0074,-4.002,-3.9784,-3.9537,-3.9434,-3.9527,-3.9554,-3.9435,-3.9984,-4.0468,-4.0496,-4.1017,-4.1089,-4.0064,-4.0278,-4.052,-3.1391,-3.1496,-3.1496,-3.1496,-3.1496,-3.1496,-3.1582,-3.171,-3.1726,-3.171,-3.1682,-3.1568,-3.1496,-3.1496,-3.164,-3.1726,-3.1682,-3.171,-3.171,-3.1682,-3.1553,-3.1582,-3.1682,-3.1726,-3.171,-3.171,-3.1726,-3.164,-3.1496,-3.1496,-3.1983,-3.2886,-3.293,-3.3071,-3.3395,0.0,0.0,0.0,-3.357,-3.291,-3.1848,-3.1769,-3.1307,-3.0387,-3.0338,0.0,-3.0295,-3.029,-3.0269,-3.0253,-3.0274,0.0,0.0,0.0,0.0,0.0,0.0,0.0,0.0,0.0,0.0,0.0,-2.9552,-3.0123,-3.0491,-3.1428,-3.2056,-3.2162,-3.2265,-3.2384,-3.2466,-3.2501,-3.2681,-3.3121,-3.3217,-3.3346,-3.3753,-3.3825,-3.4366,-3.5887,-3.6213,-3.6853,-3.8212,-3.8615,-3.8707,-3.8707,-3.8707,-3.8707,-3.8692,-3.8692,-3.8707,-3.8707,-3.8658,-3.853,-3.8133,-3.8737,-3.9157,-3.8793,-3.9155,-3.9554,-3.9658,-4.0055,-4.0079,-3.9579,-3.9941,-4.0153,-3.958,-3.9994,-4.0695,-4.0798,-4.1462,-4.166,-4.0814,-4.1202,-4.1389,-3.051,-3.0896,-3.0896,-3.1146,0.0,-3.1496,-3.1496,-3.1496,-3.1496,-3.1496,-3.1496,-3.1496,-3.1496,-3.1496,-3.1496,-3.1496,-3.1496,-3.1496,-3.1496,-3.1496,-3.1496,-3.1496,-3.1496,-3.1496,-3.1496,-3.1496,-3.1496,-3.1675,-3.1974,-3.1989,-3.2421,-3.3216,-3.3231,-3.332,-3.3454,-3.3454,-3.3227,-3.2803,-3.2551,-3.2164,-3.1659,-3.1092,-3.0623,-3.0209,-2.9832,0.0,0.0,0.0,0.0,0.0,0.0,0.0,0.0,-2.9489,0.0,-2.8578,-2.8459,-2.8426,-2.8505,-2.8758,-2.9279,-3.0063,-3.0472,-3.0921,-3.1487,-3.1884,-3.2282,-3.2685,-3.2796,-3.2873,-3.2948,-3.295,-3.3135,-3.3599,-3.3853,-3.4163,-3.4585,-3.4887,-3.551,-3.6607,-3.6881,-3.7367,-3.8542,-3.8707,-3.8707,-3.8692,-3.8465,-3.83,-3.8332,-3.8546,-3.8627,-3.8366,-3.83,-3.8262,-3.8205,-3.8739,-3.9342,-3.9438,-3.9821,-4.0088,-4.0158,-4.0264,-4.0199,-3.987,-4.0389,-4.0701,-4.0516,-4.1168,-4.1968,-4.2162,-4.2762,-4.2992,-4.2312,-4.2165,-4.1993,-2.9411,-3.0072,-3.0072,-3.045,-3.1073,-3.1219,-3.1365,-3.1496,-3.1496,0.0,0.0,-3.1496,-3.1496,-3.1496,-3.1496,-3.1496,-3.1496,-3.1496,-3.1496,-3.1496,-3.1496,-3.1496,-3.1496,-3.1496,-3.1496,-3.1511,-3.163,-3.1944,-3.2482,-3.2632,-3.3021,-3.3604,-3.3695,-3.3695,-3.3649,-3.344,-3.2961,-3.229,-3.1622,-3.1287,-3.1274,-3.0212,-2.9781,-3.0029,-2.9344,-2.8928,-2.8826,-2.8716,-2.8654,-2.8654,-2.874,-2.8834,-2.8889,-2.895,-2.8801,-2.8401,-2.8783,-2.9126,-2.9235,-2.9699,-3.0297,-3.1001,-3.1035,-3.1385,-3.2187,-3.2164,-3.2412,-3.3136,-3.322,-3.3254,-3.3389,-3.3389,-3.3598,-3.4047,-3.4436,-3.4889,-3.5479,-3.5944,-3.6507,-3.7411,-3.7625,-3.7929,-3.8707,-3.8702,-3.8636,-3.8569,-3.8123,-3.7772,-3.7843,-3.81,-3.8201,-3.786,-3.779,-3.7829,-3.8003,-3.873,-3.9503,-3.9764,-4.0318,-4.0763,-4.0703,-4.0392,-4.0172,-4.0332,-4.084,-4.1155,-4.1444,-4.2387,-4.3337,-4.3407,-4.4035,-4.4429,-4.3758,-4.3149,-4.2651,-2.9052,-2.9192,-2.9192,-2.9254,-2.9411,-3.0133,-3.0866,-3.1496,-3.1496,-3.1496,-3.1496,-3.1496,-3.1496,-3.1496,-3.1496,-3.1496,-3.1496,-3.1496,-3.1496,-3.1496,-3.1496,-3.1496,-3.1496,-3.1496,-3.1496,-3.154,-3.2079,-3.2422,-3.2557,-3.308,-3.3694,-3.4262,-3.4369,-3.4337,-3.4279,-3.323,-3.2871,-3.3291,-3.2764,-3.1976,-3.1004,-3.0407,-2.9874,-2.9425,-2.8848,-2.8493,-2.8468,-2.8444,-2.8444,-2.8429,-2.8444,-2.8597,-2.8881,-2.891,-2.9007,-2.9195,-2.9299,-2.9365,-2.9364,-2.9462,-2.9773,-3.0356,-3.0435,-3.0708,-3.1323,-3.1379,-3.1667,-3.2378,-3.2547,-3.2713,-3.3288,-3.344,-3.3696,-3.4093,-3.4181,-3.4639,-3.5772,-3.6024,-3.6631,-3.7933,-3.8095,-3.8394,-3.9068,-3.877,-3.843,-3.8267,-3.7751,-3.7285,-3.7267,-3.7341,-3.7378,-3.7304,-3.7285,-3.7111,-3.7129,-3.787,-3.8602,-3.8303,-3.9477,-4.0286,-4.0262,-4.0179,-4.0299,-4.0882,-4.1119,-4.1467,-4.1967,-4.2821,-4.3371,-4.3519,-4.4103,-4.4485,-4.4333,-4.4209,-4.3802,-2.7582,-2.8225,-2.7993,-2.8289,-2.9034,-2.9442,-2.9797,-3.0147,-3.0133,-3.0434,-3.0777,-3.0359,-3.0147,-3.0147,-3.0133,-3.0147,-3.0133,-3.0133,-3.0133,-3.0178,-3.0628,-3.0837,-3.0837,-3.0851,-3.1265,-3.1975,-3.1855,-3.2387,-3.3514,-3.3888,-3.4116,-3.4226,-3.4222,-3.4076,-3.3771,-3.4012,-3.3918,-3.3484,-3.2556,-3.2135,-3.2269,-3.1028,-3.0416,-3.0461,-2.9576,-2.8864,-2.8516,-2.8516,-2.8359,-2.7965,-2.7965,-2.8033,-2.8189,-2.8503,-2.8606,-2.8472,-2.9042,-2.9248,-2.8943,-2.9203,-2.9518,-2.9805,-3.0123,-3.0414,-3.0679,-3.1369,-3.2124,-3.2831,-3.3258,-3.3609,-3.3964,-3.437,-3.4847,-3.551,-3.5773,-3.6336,-3.7205,-3.7662,-3.8082,-3.87,-3.8858,-3.8998,-3.9356,-3.9094,-3.8704,-3.8333,-3.7453,-3.6701,-3.6433,-3.6354,-3.646,-3.6684,-3.6781,-3.6939,-3.7173,-3.7706,-3.841,-3.8928,-3.9656,-4.0062,-4.0113,-4.0113,-4.0265,-4.0578,-4.1187,-4.1847,-4.2303,-4.3267,-4.3882,-4.4091,-4.4294,-4.4581,-4.4598,-4.4598,-4.4192,-2.6047,-2.6987,-2.6752,-2.7408,-2.8671,-2.873,-2.8812,-2.8971,-2.8812,-2.9097,-2.9597,-2.9192,-2.8989,-2.8989,-2.8989,-2.8989,-2.8989,-2.8989,-2.8989,-2.9066,-2.98,-3.0195,-3.0209,-3.0292,-3.0976,-3.1918,-3.1536,-3.2176,-3.3701,-3.3986,-3.3966,-3.3696,-3.3671,-3.3545,-3.3317,-3.4391,-3.4624,-3.3918,-3.2647,-3.2467,-3.338,-3.1674,-3.0972,-3.1361,-3.0253,-2.9367,-2.8861,-2.8831,-2.8577,-2.8094,-2.8049,-2.8049,-2.8075,-2.8499,-2.8488,-2.7991,-2.8704,-2.9014,-2.8629,-2.9099,-2.9484,-2.964,-3.02,-3.0553,-3.0597,-3.1778,-3.2679,-3.3136,-3.3575,-3.4032,-3.4421,-3.4945,-3.574,-3.6666,-3.7091,-3.761,-3.852,-3.9082,-3.9386,-3.9505,-3.9582,-3.9552,-3.9532,-3.9404,-3.8996,-3.8199,-3.7203,-3.6345,-3.5966,-3.5876,-3.6026,-3.614,-3.6362,-3.6847,-3.7723,-3.8099,-3.8623,-3.974,-3.9994,-4.0079,-4.013,-4.0214,-4.0502,-4.0807,-4.1711,-4.2557,-4.2861,-4.369,-4.4418,-4.4519,-4.4553,-4.4598,-4.4598,-4.4598,-4.4445,-2.4965,-2.5118,-2.5562,-2.6521,-2.7776,-2.7848,-2.826,-2.8826,-2.8182,-2.7855,-2.8045,-2.8684,-2.8939,-2.8989,-2.8925,-2.8907,-2.8907,-2.8989,-2.8939,-2.9022,-2.9569,-2.985,-2.9905,-3.0323,-3.066,-3.0918,-3.1294,-3.1667,-3.2109,-3.2563,-3.2785,-3.2735,-3.2749,-3.3108,-3.3762,-3.3528,-3.3977,-3.5248,-3.3993,-3.3365,-3.341,-3.2108,-3.1451,-3.1481,-3.0283,-2.9577,-2.9517,-2.9517,-2.9487,-2.9427,-2.9382,-2.9412,-2.9397,-2.945,-2.918,-2.8562,-2.8617,-2.8617,-2.8636,-2.923,-2.9771,-3.0291,-3.0918,-3.1225,-3.1126,-3.2411,-3.2996,-3.2641,-3.251,-3.3258,-3.4286,-3.4607,-3.5318,-3.6626,-3.6915,-3.7407,-3.8676,-3.9016,-3.9312,-3.9983,-3.9971,-4.0042,-3.9921,-3.9467,-3.8812,-3.819,-3.7411,-3.6814,-3.6717,-3.6654,-3.6518,-3.6152,-3.6305,-3.7091,-3.7804,-3.8481,-3.8853,-3.9174,-3.9706,-4.0062,-4.0265,-4.0722,-4.1255,-4.167,-4.2591,-4.3352,-4.3921,-4.4564,-4.4547,-4.4598,-4.4598,-4.4598,-4.4598,-4.4598,-4.4496,-2.4499,-2.48,-2.5046,-2.5836,-2.6947,-2.7319,-2.7459,-2.749,-2.749,-2.746,-2.7443,-2.7507,-2.755,-2.7517,-2.7504,-2.7517,-2.7517,-2.7504,-2.77,-2.8035,-2.8698,-2.9215,-2.9577,-2.977,-3.0329,-3.1096,-3.0986,-3.1341,-3.2009,-3.1911,-3.1779,-3.1792,-3.1779,-3.196,-3.233,-3.2653,-3.3408,-3.4547,-3.405,-3.3885,-3.3901,-3.2796,-3.2273,-3.2527,-3.1435,-3.0537,-3.0163,-3.0118,-2.9953,-2.9624,-2.9621,-2.9621,-2.9621,-2.9621,-2.9487,-2.9205,-2.9175,-2.9175,-2.9217,-2.9472,-2.9686,-2.9925,-3.0532,-3.0877,-3.0828,-3.1667,-3.2212,-3.2463,-3.3114,-3.3901,-3.4438,-3.4895,-3.5605,-3.6626,-3.7161,-3.7855,-3.8853,-3.9402,-3.9791,-4.0079,-4.0113,-4.0113,-4.0011,-3.9469,-3.892,-3.8497,-3.7905,-3.7466,-3.7449,-3.7449,-3.7516,-3.7635,-3.7905,-3.7939,-3.8058,-3.8125,-3.87,-3.9453,-3.9893,-4.0163,-4.0679,-4.0933,-4.1441,-4.2185,-4.298,-4.3504,-4.3694,-4.4327,-4.4598,-4.4598,-4.4598,-4.4598,-4.4598,-4.4598,-4.4462,-2.4318,-2.482,-2.5134,-2.5912,-2.6964,-2.7331,-2.7316,-2.7014,-2.7379,-2.7507,-2.7469,-2.708,-2.6939,-2.6927,-2.6801,-2.6725,-2.6738,-2.6876,-2.7153,-2.7578,-2.8257,-2.8872,-2.9227,-2.9421,-3.0056,-3.0855,-3.0526,-3.0811,-3.1692,-3.1193,-3.0796,-3.0796,-3.0833,-3.0932,-3.1241,-3.1924,-3.2678,-3.3553,-3.3842,-3.3926,-3.3683,-3.3135,-3.2931,-3.3095,-3.2108,-3.1256,-3.0821,-3.0748,-3.0597,-3.0148,-3.0118,-3.0118,-3.0118,-3.0118,-3.0043,-2.9864,-2.9861,-2.9834,-2.9819,-2.9998,-3.0111,-3.0132,-3.0703,-3.0996,-3.0935,-3.151,-3.2088,-3.2443,-3.3705,-3.4471,-3.4573,-3.4979,-3.5707,-3.6677,-3.7466,-3.8193,-3.8903,-3.9656,-4.0079,-4.0113,-4.0113,-4.0113,-4.0045,-3.9673,-3.9334,-3.9249,-3.8667,-3.8193,-3.8193,-3.821,-3.8328,-3.8667,-3.8802,-3.887,-3.8548,-3.8667,-3.9106,-3.9588,-4.0113,-4.0367,-4.1068,-4.1288,-4.1762,-4.2692,-4.3284,-4.3724,-4.4005,-4.4412,-4.4598,-4.4598,-4.4598,-4.4598,-4.4598,-4.4598,-4.435,-2.4318,-2.4983,-2.5971,-2.6979,-2.8021,-2.8059,-2.801,-2.7812,-2.7961,-2.8035,-2.7913,-2.7911,-2.7972,-2.7886,-2.7471,-2.7291,-2.7306,-2.7733,-2.7971,-2.8109,-2.8623,-2.8875,-2.8976,-2.9517,-2.9807,-3.0025,-2.9961,-2.9947,-3.0037,-2.9921,-2.9856,-2.9895,-2.9921,-3.0343,-3.1007,-3.1217,-3.1719,-3.2642,-3.3394,-3.3337,-3.2258,-3.294,-3.3034,-3.2497,-3.1869,-3.1466,-3.1421,-3.1436,-3.1406,-3.1391,-3.1331,-3.1361,-3.1376,-3.1361,-3.1047,-3.0552,-3.0462,-3.0462,-3.0552,-3.0972,-3.1289,-3.1367,-3.1809,-3.2106,-3.1423,-3.2368,-3.2844,-3.2565,-3.3681,-3.4402,-3.4526,-3.4704,-3.5284,-3.6558,-3.7432,-3.8176,-3.8836,-3.9588,-4.0045,-4.0062,-4.0062,-4.0096,-4.0113,-4.0079,-3.9977,-3.9859,-3.9385,-3.8937,-3.8954,-3.8937,-3.8751,-3.8481,-3.8717,-3.9249,-3.9808,-3.9462,-3.9673,-4.013,-4.0248,-4.0451,-4.1085,-4.1762,-4.2489,-4.32,-4.3859,-4.4299,-4.4496,-4.4564,-4.4581,-4.4598,-4.4598,-4.4598,-4.4598,-4.4598,-4.435,-2.5272,-2.6414,-2.6864,-2.7454,-2.8109,-2.8473,-2.8052,-2.7148,-2.7463,-2.7153,-2.6658,-2.6906,-2.7256,-2.761,-2.8114,-2.8134,-2.7846,-2.8021,-2.8285,-2.8574,-2.8813,-2.9088,-2.949,-2.9704,-2.9779,-2.9779,-2.9779,-2.9779,-2.9779,-2.9779,-2.9779,-2.9779,-2.9779,-3.0011,-3.0241,-3.0317,-3.0771,-3.1633,-3.2055,-3.202,-3.1661,-3.1754,-3.1711,-3.162,-3.156,-3.1496,-3.1496,-3.1496,-3.1496,-3.1496,-3.1496,-3.1496,-3.1496,-3.1496,-3.1406,-3.1167,-3.1137,-3.1137,-3.1167,-3.1361,-3.1492,-3.1479,-3.1715,-3.184,-3.1583,-3.1965,-3.2326,-3.2603,-3.293,-3.36,-3.4478,-3.4936,-3.5419,-3.6028,-3.7144,-3.7787,-3.7956,-3.9029,-3.9926,-3.958,-3.9774,-4.0096,-4.0096,-4.0113,-4.0113,-4.0079,-3.9859,-3.9681,-3.9706,-3.9706,-3.9537,-3.9419,-3.9554,-3.9977,-4.0696,-3.9851,-3.952,-4.0079,-4.0443,-4.1119,-4.1779,-4.2439,-4.3149,-4.3758,-4.4434,-4.4547,-4.4581,-4.4581,-4.4598,-4.4598,-4.4598,-4.4615,-4.4598,-4.4649,-4.435,-2.5566,-2.6929,-2.6858,-2.7273,-2.8062,-2.81,-2.7523,-2.6566,-2.6869,-2.6799,-2.6491,-2.6503,-2.7069,-2.8028,-2.8502,-2.8686,-2.8637,-2.8662,-2.885,-2.9151,-2.9176,-2.9415,-2.9729,-2.9779,-2.9779,-2.9779,-2.9779,-2.9779,-2.9779,-2.9779,-2.9779,-2.9779,-2.9779,-2.9779,-2.9779,-2.9779,-3.0139,-3.0696,-3.1044,-3.103,-3.0618,-3.0713,-3.0642,-3.0523,-3.0877,-3.1263,-3.1467,-3.1496,-3.1496,-3.1496,-3.1496,-3.1496,-3.1496,-3.1496,-3.1496,-3.1496,-3.1496,-3.1496,-3.1496,-3.1496,-3.1496,-3.1496,-3.1496,-3.1496,-3.1496,-3.1496,-3.1768,-3.2132,-3.2504,-3.3066,-3.3786,-3.4528,-3.5115,-3.5605,-3.6772,-3.733,-3.6981,-3.8335,-3.9131,-3.9157,-3.9394,-3.9774,-4.0062,-4.0096,-4.0113,-4.0113,-4.0113,-4.0113,-4.0113,-4.0113,-4.0113,-4.013,-4.0299,-4.0578,-4.1085,-4.073,-4.0595,-4.1068,-4.1187,-4.1813,-4.2388,-4.3064,-4.3656,-4.4299,-4.4598,-4.4598,-4.4598,-4.4598,-4.4598,-4.4598,-4.4632,-4.4666,-4.4699,-4.4722,-4.4587,-2.5191,-2.6446,-2.5904,-2.6656,-2.773,-2.7076,-2.6573,-2.6371,-2.6416,-2.6751,-2.6949,-2.6751,-2.7325,-2.8861,-2.8251,-2.8576,-2.919,-2.9231,-2.9435,-2.9665,-2.9716,-2.9729,-2.9779,-2.9779,-2.9779,-2.9779,-2.9779,-2.9779,-2.9779,-2.9779,-2.9779,-2.9779,-2.9779,-2.9779,-2.9779,-2.9779,-2.9818,-3.0024,-3.0696,-3.0188,-2.8613,-2.9792,-3.0088,-2.9315,-2.987,-3.0658,-3.1409,-3.1467,-3.1496,-3.1496,-3.1496,-3.1496,-3.1496,-3.1496,-3.1496,-3.1496,-3.1496,-3.1496,-3.1496,-3.1496,-3.1496,-3.1496,-3.1496,-3.1496,-3.1496,-3.1496,-3.1524,-3.1682,-3.2148,-3.2614,-3.2788,-3.3313,-3.4153,-3.536,-3.6169,-3.6596,-3.6717,-3.7368,-3.821,-3.8802,-3.9089,-3.9343,-3.9876,-4.0113,-4.0113,-4.0113,-4.0113,-4.0163,-4.0265,-4.0299,-4.018,-4.0367,-4.0798,-4.1322,-4.1559,-4.1779,-4.2066,-4.232,-4.2269,-4.2506,-4.2946,-4.3494,-4.391,-4.4479,-4.4581,-4.4598,-4.4598,-4.4598,-4.4598,-4.4615,-4.4666,-4.4818,-4.501,-4.5128,-4.5111,-2.5712,-2.6485,-2.6292,-2.6479,-2.6953,-2.6648,-2.6099,-2.5378,-2.5336,-2.5083,-2.4798,-2.5126,-2.5744,-2.6378,-2.6748,-2.7221,-2.7504,-2.7597,-2.8331,-2.9534,-2.974,-2.9779,-2.9779,-2.9779,-2.9779,-2.9779,-2.9779,-2.9779,-2.9779,-2.9779,-2.9779,-2.9779,-2.9779,-2.9779,-2.9779,-2.9779,-2.9779,-2.9818,-3.0075,-2.9656,-2.8699,-2.8843,-2.8839,-2.8759,-2.916,-2.9797,-3.0628,-3.1219,-3.1467,-3.1496,-3.1496,-3.1496,-3.1496,-3.1496,-3.1496,-3.1496,-3.1496,-3.1496,-3.1496,-3.1496,-3.1496,-3.1496,-3.1496,-3.1496,-3.1496,-3.1496,-3.1496,-3.1496,-3.1739,-3.2023,-3.252,-3.2776,-3.3287,-3.4128,-3.4904,-3.5175,-3.498,-3.5712,-3.7126,-3.8644,-3.8988,-3.9351,-3.9868,-4.0045,-4.0088,-4.0113,-4.0155,-4.0316,-4.073,-4.0865,-4.1119,-4.1508,-4.1863,-4.2083,-4.2388,-4.2709,-4.3047,-4.32,-4.3183,-4.3098,-4.3504,-4.3826,-4.4215,-4.4445,-4.4547,-4.4598,-4.4598,-4.4598,-4.4598,-4.4598,-4.4632,-4.4942,-4.5432,-4.5449,-4.5196,-2.4554,-2.5314,-2.5097,-2.5364,-2.5755,-2.5431,-2.484,-2.4211,-2.4168,-2.3996,-2.3877,-2.4006,-2.467,-2.5336,-2.5755,-2.6099,-2.6442,-2.6483,-2.7221,-2.8514,-2.9067,-2.9365,-2.9702,-2.9779,-2.9654,-2.949,-2.9465,-2.9578,-2.9779,-2.9591,-2.9578,-2.9754,-2.9779,-2.9779,-2.9779,-2.9779,-2.9779,-2.9767,-2.9578,-2.9202,-2.8637,-2.8084,-2.7921,-2.8189,-2.8421,-2.9111,-3.0178,-3.0524,-3.0866,-3.138,-3.1496,-3.1496,-3.1496,-3.1496,-3.1496,-3.1496,-3.1496,-3.1496,-3.1496,-3.1496,-3.1496,-3.1496,-3.1496,-3.1496,-3.1496,-3.1496,-3.1496,-3.1496,-3.1524,-3.1697,-3.2092,-3.2203,-3.2394,-3.2772,-3.3715,-3.4004,-3.3803,-3.4351,-3.5487,-3.6869,-3.7509,-3.8116,-3.8648,-3.9802,-4.0005,-4.0124,-4.0584,-4.101,-4.1474,-4.1593,-4.1948,-4.2286,-4.2523,-4.2828,-4.324,-4.3639,-4.4012,-4.4062,-4.4073,-4.3944,-4.4028,-4.4215,-4.453,-4.453,-4.4598,-4.4598,-4.4598,-4.4598,-4.4598,-4.4598,-4.4632,-4.4976,-4.5314,-4.5026,-4.4874,-2.2201,-2.3305,-2.2806,-2.3501,-2.4522,-2.3714,-2.3309,-2.3178,-2.3178,-2.3714,-2.4211,-2.3627,-2.4221,-2.5599,-2.5041,-2.5179,-2.611,-2.6016,-2.6141,-2.6737,-2.7475,-2.8421,-2.9392,-2.9663,-2.9578,-2.9202,-2.9076,-2.9289,-2.9616,-2.934,-2.9189,-2.9641,-2.9729,-2.9779,-2.9779,-2.9779,-2.9779,-2.9716,-2.9252,-2.8675,-2.8172,-2.7643,-2.7379,-2.7629,-2.7762,-2.846,-2.9566,-2.9628,-3.0011,-3.119,-3.1336,-3.1351,-3.1467,-3.1496,-3.1496,-3.1496,-3.1496,-3.1496,-3.1496,-3.1496,-3.1496,-3.1496,-3.1496,-3.1496,-3.1496,-3.1496,-3.1496,-3.1496,-3.1496,-3.1524,-3.1582,-3.1611,-3.1655,-3.1742,-3.2738,-3.3314,-3.3575,-3.369,-3.4412,-3.5091,-3.5492,-3.6165,-3.7302,-3.8939,-3.9731,-4.026,-4.1115,-4.1715,-4.2126,-4.2166,-4.2361,-4.2743,-4.3267,-4.347,-4.3859,-4.4012,-4.4333,-4.4333,-4.4412,-4.435,-4.4333,-4.4496,-4.4598,-4.4598,-4.4598,-4.4598,-4.4598,-4.4598,-4.4598,-4.4598,-4.475,-4.501,-4.5162,-4.5128,-4.5094,-2.2689,-2.2752,-2.2879,-2.3201,-2.3497,-2.3178,-2.3101,-2.3101,-2.3101,-2.3309,-2.3474,-2.3266,-2.343,-2.393,-2.3757,-2.3724,-2.4059,-2.4102,-2.4553,-2.5272,-2.5935,-2.7127,-2.8497,-2.9404,-2.9691,-2.9503,-2.939,-2.9428,-2.9202,-2.934,-2.9377,-2.9189,-2.9616,-2.9779,-2.9779,-2.9779,-2.9779,-2.9716,-2.9227,-2.8624,-2.8109,-2.758,-2.7145,-2.6879,-2.7397,-2.7868,-2.8524,-2.9442,-3.0086,-3.0524,-3.0614,-3.0911,-3.1453,-3.1496,-3.1496,-3.1496,-3.1496,-3.1496,-3.1496,-3.1496,-3.1496,-3.1496,-3.1496,-3.1496,-3.1496,-3.1496,-3.1496,-3.1496,-3.1496,-3.1511,-3.1511,-3.1555,-3.1735,-3.2137,-3.2374,-3.2644,-3.3313,-3.3576,-3.4148,-3.5784,-3.6175,-3.68,-3.7703,-3.863,-3.9366,-3.9887,-4.082,-4.1754,-4.2294,-4.2913,-4.3183,-4.3785,-4.4225,-4.4231,-4.435,-4.4479,-4.4564,-4.4547,-4.4547,-4.453,-4.4513,-4.4564,-4.4598,-4.4598,-4.4598,-4.4598,-4.4598,-4.4598,-4.4598,-4.4598,-4.5043,-4.5432,-4.5838,-4.5974,-4.5805,-2.2262,-2.2295,-2.2662,-2.2935,-2.3081,-2.3101,-2.3101,-2.3101,-2.3101,-2.3101,-2.3101,-2.3101,-2.3101,-2.3101,-2.3091,-2.3091,-2.3101,-2.3101,-2.3507,-2.417,-2.5452,-2.6805,-2.8089,-2.9248,-2.9553,-2.9089,-2.9101,-2.9026,-2.8888,-2.9076,-2.9126,-2.9377,-2.9616,-2.9779,-2.9779,-2.9779,-2.9779,-2.9641,-2.9038,-2.8411,-2.8084,-2.7354,-2.6876,-2.6593,-2.6973,-2.7196,-2.7417,-2.8844,-2.9889,-3.0254,-3.0614,-3.1029,-3.1409,-3.1496,-3.1496,-3.1496,-3.1496,-3.1496,-3.1496,-3.1496,-3.1496,-3.1496,-3.1496,-3.1496,-3.1496,-3.1496,-3.1496,-3.1496,-3.1496,-3.163,-3.1914,-3.2153,-3.2497,-3.2811,-3.2572,-3.2675,-3.3448,-3.3508,-3.4034,-3.5033,-3.5646,-3.602,-3.7,-3.7979,-3.881,-3.9594,-4.1075,-4.1947,-4.2699,-4.3349,-4.3833,-4.4136,-4.4384,-4.4299,-4.4078,-4.4059,-4.4179,-4.4207,-4.4412,-4.444,-4.4468,-4.4497,-4.4598,-4.4598,-4.4598,-4.4598,-4.4598,-4.4598,-4.4598,-4.4801,-4.5331,-4.5585,-4.5805,-4.6194,-4.6109,-2.1592,-2.1992,-2.2402,-2.275,-2.3071,-2.3101,-2.3101,-2.3101,-2.3101,-2.3101,-2.3101,-2.3101,-2.3101,-2.3101,-2.3101,-2.3101,-2.3101,-2.3101,-2.3371,-2.4151,-2.5422,-2.6923,-2.8127,-2.9088,-2.9139,-2.8524,-2.8197,-2.8348,-2.8524,-2.8335,-2.8725,-2.9277,-2.9591,-2.9779,-2.9779,-2.9779,-2.9779,-2.9591,-2.8725,-2.8222,-2.7921,-2.713,-2.6587,-2.6559,-2.6555,-2.6611,-2.7007,-2.8149,-2.938,-3.0117,-3.0925,-3.1292,-3.1409,-3.1496,-3.1496,-3.1496,-3.1496,-3.1496,-3.1496,-3.1496,-3.1496,-3.1496,-3.1496,-3.1496,-3.1496,-3.1496,-3.157,-3.1795,-3.166,-3.1974,-3.2542,-3.3125,-3.3395,-3.3514,-3.3559,-3.3589,-3.3664,-3.3634,-3.3619,-3.3724,-3.434,-3.4548,-3.5339,-3.6725,-3.8579,-3.8982,-4.0499,-4.1595,-4.2275,-4.2827,-4.3326,-4.3727,-4.3931,-4.4121,-4.3827,-4.3545,-4.368,-4.3768,-4.4018,-4.415,-4.4224,-4.4327,-4.4497,-4.4598,-4.4598,-4.4598,-4.4598,-4.4598,-4.457,-4.479,-4.5246,-4.5179,-4.5145,-4.5686,-4.5855,-2.2295,-2.2412,-2.2789,-2.3013,-2.3081,-2.3101,-2.3101,-2.3101,-2.3101,-2.3101,-2.3101,-2.3101,-2.3101,-2.3101,-2.3101,-2.3101,-2.3091,-2.3139,-2.3715,-2.5117,-2.5514,-2.6796,-2.7916,-2.8775,-2.8913,-2.8574,-2.8273,-2.7984,-2.7858,-2.8373,-2.8637,-2.8624,-2.9465,-2.9779,-2.9779,-2.9779,-2.9779,-2.9591,-2.8674,-2.8147,-2.7908,-2.7055,-2.6487,-2.6487,-2.6487,-2.6487,-2.6803,-2.8103,-2.902,-2.9442,-3.0133,-3.0999,-3.138,-3.1496,-3.1496,-3.1496,-3.1496,-3.1496,-3.1511,-3.1555,-3.1525,-3.163,-3.1675,-3.1496,-3.1496,-3.1585,-3.1884,-3.2303,-3.2408,-3.2602,-3.3215,-3.341,-3.3799,-3.4158,-3.4277,-3.4503,-3.4816,-3.4562,-3.4502,-3.4876,-3.51,-3.5444,-3.5923,-3.6745,-3.7952,-3.8595,-3.9724,-4.1021,-4.1723,-4.2284,-4.2707,-4.3122,-4.3092,-4.3213,-4.3122,-4.2831,-4.2831,-4.2953,-4.3273,-4.3798,-4.3873,-4.3977,-4.4093,-4.431,-4.4598,-4.4598,-4.4598,-4.4457,-4.44,-4.4772,-4.5076,-4.5074,-4.5151,-4.5491,-4.5327,-2.2324,-2.2549,-2.2925,-2.3101,-2.3101,-2.3101,-2.3101,-2.3101,-2.3101,-2.3101,-2.3101,-2.3101,-2.3101,-2.3101,-2.3101,-2.3101,-2.3042,-2.291,-2.3374,-2.4422,-2.5085,-2.6109,-2.7198,-2.7828,-2.8147,-2.8122,-2.7871,-2.7632,-2.7858,-2.8222,-2.8662,-2.89,-2.9515,-2.9754,-2.9779,-2.9779,-2.9779,-2.9566,-2.8699,-2.8109,-2.7946,-2.709,-2.6487,-2.6487,-2.6487,-2.6487,-2.6611,-2.8103,-2.8862,-2.9286,-3.0178,-3.1029,-3.138,-3.1496,-3.1496,-3.1496,-3.1496,-3.169,-3.1854,-3.1989,-3.2153,-3.2407,-3.2422,-3.2452,-3.2452,-3.2451,-3.2616,-3.296,-3.3078,-3.3241,-3.3903,-3.4352,-3.4637,-3.4816,-3.4936,-3.513,-3.534,-3.5175,-3.5055,-3.5415,-3.5429,-3.5609,-3.6103,-3.6806,-3.7379,-3.8039,-3.9646,-4.0899,-4.118,-4.1707,-4.2062,-4.2316,-4.2221,-4.2173,-4.2189,-4.2045,-4.1917,-4.2045,-4.2236,-4.2892,-4.3426,-4.3486,-4.3545,-4.3931,-4.4384,-4.457,-4.457,-4.44,-4.4165,-4.4457,-4.4696,-4.496,-4.5003,-4.483,-4.455,-2.2227,-2.2594,-2.2945,-2.3101,-2.3101,-2.3101,-2.3101,-2.3101,-2.3101,-2.3101,-2.3101,-2.3101,-2.3101,-2.3101,-2.3101,-2.3071,-2.2867,-2.2523,-2.2766,-2.3998,-2.4603,-2.5677,-2.6673,-2.7258,-2.7344,-2.718,-2.719,-2.7356,-2.7645,-2.8072,-2.8524,-2.9352,-2.9741,-2.9779,-2.9779,-2.9779,-2.9779,-2.9641,-2.8699,-2.8109,-2.7934,-2.709,-2.6537,-2.6487,-2.6487,-2.6487,-2.6803,-2.7986,-2.8939,-2.8939,-3.0404,-3.1161,-3.1351,-3.1482,-3.1496,-3.1511,-3.1615,-3.1944,-3.2318,-3.2587,-3.2901,-3.3484,-3.3455,-3.3455,-3.341,-3.3351,-3.3441,-3.3649,-3.3825,-3.409,-3.4622,-3.4981,-3.5325,-3.5444,-3.5474,-3.5489,-3.5489,-3.5489,-3.5474,-3.5474,-3.5489,-3.5594,-3.5908,-3.6462,-3.6956,-3.7657,-3.931,-4.0511,-4.0761,-4.0927,-4.1147,-4.1213,-4.1028,-4.0961,-4.0961,-4.1028,-4.0927,-4.1113,-4.128,-4.1933,-4.2676,-4.28,-4.2953,-4.371,-4.4121,-4.4121,-4.3885,-4.3456,-4.3424,-4.3925,-4.3924,-4.3768,-4.3846,-4.3994,-4.3682,-2.2613,-2.2994,-2.3062,-2.3101,-2.3101,-2.3101,-2.3101,-2.3101,-2.3101,-2.3101,-2.3101,-2.3101,-2.3101,-2.3091,-2.3091,-2.2906,-2.2519,-2.1995,-2.2634,-2.4142,-2.4628,-2.5254,-2.6807,-2.7165,-2.7077,-2.6725,-2.6763,-2.6939,-2.719,-2.762,-2.8323,-2.8637,-2.9365,-2.9779,-2.9779,-2.9779,-2.9779,-2.9628,-2.8712,-2.8147,-2.7871,-2.7115,-2.6487,-2.6487,-2.6487,-2.6487,-2.6837,-2.7986,-2.8684,-2.8182,-2.9597,-3.0359,-3.0732,-3.1176,-3.1511,-3.16,-3.1974,-3.2333,-3.2632,-3.308,-3.332,-3.3484,-3.3634,-3.3619,-3.3589,-3.362,-3.395,-3.4339,-3.4754,-3.5173,-3.531,-3.5415,-3.5459,-3.5489,-3.5489,-3.5489,-3.5489,-3.5489,-3.5489,-3.5489,-3.5489,-3.5519,-3.5833,-3.6237,-3.6821,-3.7419,-3.851,-3.954,-4.001,-3.9955,-3.9935,-3.99,-3.9737,-3.9702,-3.9702,-3.9809,-3.9864,-4.015,-4.0413,-4.0844,-4.1462,-4.1853,-4.2347,-4.2831,-4.3,-4.28,-4.2567,-4.2459,-4.2527,-4.2845,-4.2654,-4.2478,-4.2671,-4.2864,-4.2607,-2.2721,-2.3091,-2.3101,-2.3101,-2.3101,-2.3101,-2.3101,-2.3101,-2.3101,-2.3101,-2.3101,-2.3101,-2.3101,-2.3042,-2.2838,-2.2545,-2.2109,-2.1562,-2.2536,-2.4117,-2.4243,-2.4951,-2.6801,-2.7178,-2.6952,-2.6813,-2.7014,-2.7256,-2.7392,-2.7833,-2.8386,-2.9038,-2.9591,-2.9779,-2.9779,-2.9779,-2.9779,-2.9553,-2.875,-2.8097,-2.7996,-2.704,-2.6549,-2.6487,-2.6487,-2.6487,-2.6714,-2.7571,-2.8117,-2.8117,-2.938,-3.0117,-3.0611,-3.1234,-3.1854,-3.1735,-3.2168,-3.2691,-3.3066,-3.3634,-3.4143,-3.4517,-3.4502,-3.4532,-3.4547,-3.4622,-3.4622,-3.4951,-3.5175,-3.5489,-3.5474,-3.5489,-3.5489,-3.5489,-3.5489,-3.5489,-3.5489,-3.5489,-3.5489,-3.5489,-3.5489,-3.5534,-3.5609,-3.6103,-3.6716,-3.7345,-3.7973,-3.8631,-3.9305,-3.9388,-3.9388,-3.9424,-3.9424,-3.9424,-3.9424,-3.9424,-3.9388,-3.9538,-3.9702,-4.017,-4.0432,-4.0878,-4.1213,-4.1609,-4.1609,-4.1658,-4.1963,-4.2075,-4.1952,-4.1805,-4.1891,-4.1911,-4.1803,-4.1677,-4.1474,-2.2799,-2.3101,-2.3101,-2.3101,-2.3101,-2.3101,-2.3101,-2.3101,-2.3101,-2.3033,-2.2974,-2.2964,-2.2955,-2.2886,-2.2676,-2.2334,-2.1995,-2.1666,-2.2676,-2.3857,-2.4124,-2.4897,-2.6344,-2.7002,-2.7178,-2.7216,-2.7544,-2.8047,-2.7821,-2.8172,-2.8812,-2.9264,-2.9628,-2.9779,-2.9779,-2.9779,-2.9779,-2.9453,-2.8712,-2.8084,-2.7595,-2.7002,-2.6487,-2.6487,-2.6487,-2.6487,-2.6589,-2.7364,-2.7617,-2.792,-2.8921,-3.0083,-3.0422,-3.1511,-3.2124,-3.2049,-3.2557,-3.314,-3.3664,-3.4322,-3.4876,-3.5235,-3.5429,-3.5459,-3.5429,-3.528,-3.54,-3.5489,-3.5489,-3.5489,-3.5489,-3.5489,-3.5489,-3.5489,-3.5489,-3.5489,-3.5489,-3.5489,-3.5489,-3.5489,-3.5489,-3.5519,-3.5579,-3.5774,-3.6357,-3.715,-3.7793,-3.8512,-3.9074,-3.9343,-3.9388,-3.9388,-3.9424,-3.9424,-3.9388,-3.9424,-3.9388,-3.946,-3.9502,-3.9758,-3.9849,-3.9975,-4.0309,-4.0672,-4.0758,-4.0891,-4.1312,-4.1513,-4.1183,-4.1071,-4.132,-4.1217,-4.0847,-4.0666,-4.0497,-2.3052,-2.3101,-2.3101,-2.3101,-2.3101,-2.3101,-2.3091,-2.3071,-2.3062,-2.2877,-2.2588,-2.2588,-2.2578,-2.251,-2.25,-2.2432,-2.2338,-2.2281,-2.2843,-2.4051,-2.4503,-2.5469,-2.6987,-2.7205,-2.7595,-2.7733,-2.8034,-2.7795,-2.7871,-2.8424,-2.8813,-2.9164,-2.9616,-2.9779,-2.9779,-2.9779,-2.9779,-2.9591,-2.8674,-2.767,-2.6914,-2.66,-2.6512,-2.6487,-2.6487,-2.6487,-2.6589,-2.7162,-2.7317,-2.6973,-2.8298,-2.9392,-3.0047,-3.0854,-3.2066,-3.3016,-3.3829,-3.4324,-3.4429,-3.4876,-3.528,-3.5474,-3.5489,-3.5489,-3.5489,-3.5489,-3.5489,-3.5489,-3.5489,-3.5489,-3.5489,-3.5489,-3.5489,-3.5489,-3.5489,-3.5489,-3.5489,-3.5489,-3.5489,-3.5489,-3.5489,-3.5489,-3.5519,-3.5714,-3.5998,-3.6821,-3.7629,-3.8347,-3.8925,-3.9224,-3.9388,-3.9388,-3.9388,-3.9388,-3.9388,-3.9388,-3.9388,-3.9388,-3.9424,-3.9481,-3.9538,-3.9595,-3.9538,-3.9844,-3.999,-4.0167,-4.0497,-4.0512,-4.0246,-4.0342,-4.0619,-4.026,-3.9703,-3.9625,-3.9748,-2.3101,-2.3101,-2.3101,-2.3101,-2.3101,-2.3101,-2.2955,-2.2812,-2.274,-2.2549,-2.2217,-2.2158,-2.2031,-2.1875,-2.1746,-2.1736,-2.1722,-2.1739,-2.2569,-2.4015,-2.4708,-2.5624,-2.7083,-2.7871,-2.831,-2.8273,-2.8662,-2.8812,-2.8599,-2.8587,-2.9001,-2.9428,-2.9654,-2.9779,-2.9779,-2.9779,-2.9779,-2.9478,-2.8687,-2.7582,-2.6788,-2.6487,-2.6487,-2.6487,-2.6487,-2.6487,-2.6577,-2.6748,-2.6871,-2.6803,-2.8084,-2.9279,-3.0251,-3.1504,-3.3059,-3.39,-3.4666,-3.4831,-3.4668,-3.5175,-3.5415,-3.5489,-3.5489,-3.5489,-3.5489,-3.5489,-3.5489,-3.5489,-3.5489,-3.5489,-3.5489,-3.5489,-3.5489,-3.5489,-3.5489,-3.5489,-3.5489,-3.5489,-3.5489,-3.5489,-3.5489,-3.5489,-3.5489,-3.5594,-3.6043,-3.7,-3.7659,-3.8242,-3.8835,-3.9298,-3.9388,-3.9388,-3.9388,-3.9388,-3.9388,-3.9388,-3.9388,-3.9388,-3.9388,-3.9424,-3.9424,-3.9424,-3.9388,-3.9388,-3.961,-3.9769,-3.9815,-4.0106,-4.0352,-4.0196,-3.9958,-3.9801,-3.9621,-3.9439,-3.9523,-2.3033,-2.2945,-2.3052,-2.3042,-2.2945,-2.2945,-2.2734,-2.2383,-2.2353,-2.2119,-2.1807,-2.1709,-2.1533,-2.1317,-2.1366,-2.1543,-2.1456,-2.1459,-2.2629,-2.3946,-2.5044,-2.6164,-2.7519,-2.8536,-2.8762,-2.8487,-2.9277,-2.9402,-2.9239,-2.9176,-2.9415,-2.9779,-2.9754,-2.9779,-2.9779,-2.9741,-2.9679,-2.9139,-2.8499,-2.7557,-2.6713,-2.6487,-2.6487,-2.6487,-2.6487,-2.6487,-2.6487,-2.6521,-2.6521,-2.6816,-2.8084,-2.9251,-3.0014,-3.1945,-3.3423,-3.428,-3.4949,-3.5235,-3.507,-3.5235,-3.5444,-3.5489,-3.5489,-3.5489,-3.5489,-3.5489,-3.5489,-3.5489,-3.5489,-3.5489,-3.5489,-3.5489,-3.5489,-3.5489,-3.5489,-3.5489,-3.5489,-3.5489,-3.5489,-3.5489,-3.5489,-3.5489,-3.5489,-3.5489,-3.6073,-3.712,-3.7764,-3.8242,-3.8781,-3.9343,-3.9388,-3.9388,-3.9388,-3.9388,-3.9388,-3.9388,-3.9388,-3.9388,-3.9388,-3.9388,-3.9388,-3.9388,-3.9388,-3.9388,-3.9388,-3.9493,-3.9672,-4.0091,-4.0502,-4.0375,-4.0226,-4.001,-3.983,-3.9568,-3.9388,-2.2867,-2.2588,-2.2925,-2.2857,-2.2578,-2.2559,-2.2344,-2.2002,-2.1963,-2.1699,-2.1268,-2.1229,-2.121,-2.1239,-2.1455,-2.1641,-2.1861,-2.3278,-2.3985,-2.499,-2.6381,-2.7373,-2.8312,-2.8762,-2.9037,-2.9363,-2.9509,-2.9523,-2.9704,-2.9489,-2.9653,-2.9779,-2.9779,-2.9779,-2.9741,-2.9666,-2.9176,-2.8649,-2.8097,-2.7494,-2.6788,-2.6487,-2.6487,-2.6487,-2.6487,-2.6487,-2.6487,-2.6487,-2.6487,-2.6555,-2.8046,-2.9291,-3.0178,-3.2155,-3.3559,-3.4204,-3.5014,-3.527,-3.5192,-3.529,-3.5459,-3.5489,-3.5489,-3.5489,-3.5489,-3.5489,-3.5489,-3.5489,-3.5489,-3.5489,-3.5489,-3.5489,-3.5489,-3.5489,-3.5489,-3.5489,-3.5489,-3.5489,-3.5489,-3.5489,-3.5489,-3.5489,-3.5639,-3.5669,-3.6193,-3.721,-3.8197,-3.8691,-3.896,-3.9388,-3.9388,-3.9388,-3.9388,-3.9388,-3.9388,-3.9388,-3.9388,-3.9388,-3.9388,-3.9388,-3.9388,-3.9388,-3.9388,-3.9388,-3.9388,-3.9448,-3.9612,-4.0202,-4.0569,-4.0606,-4.042,-3.9861,-3.9659,-3.9493,-3.9388,-2.3003,-2.2847,-2.276,-2.2656,-2.2529,-2.274,-2.251,-2.1953,-2.1926,-2.1465,-2.084,-2.083,-2.083,-2.0898,-2.0947,-2.1124,-2.1243,-2.2272,-2.3465,-2.4793,-2.6093,-2.7569,-2.8336,-2.8614,-2.8533,-2.8782,-2.8806,-2.8767,-2.8715,-2.9443,-2.974,-2.9779,-2.9779,-2.9779,-2.9729,-2.9453,-2.8825,-2.826,-2.7745,-2.7216,-2.6713,-2.6487,-2.6487,-2.6487,-2.6487,-2.6487,-2.6487,-2.6487,-2.6487,-2.6858,-2.7986,-2.9046,-3.0201,-3.2164,-3.3266,-3.3917,-3.4791,-3.5067,-3.4887,-3.5133,-3.5489,-3.5489,-3.5489,-3.5489,-3.5489,-3.5489,-3.5489,-3.5489,-3.5489,-3.5489,-3.5489,-3.5489,-3.5489,-3.5489,-3.5489,-3.5489,-3.5489,-3.5489,-3.5489,-3.5489,-3.5489,-3.5489,-3.5699,-3.5893,-3.6552,-3.7315,-3.8287,-3.9095,-3.9254,-3.9388,-3.9388,-3.9388,-3.9388,-3.9388,-3.9388,-3.9388,-3.9388,-3.9388,-3.9388,-3.9388,-3.9388,-3.9388,-3.9388,-3.9388,-3.9493,-3.9694,-3.9978,-4.0442,-4.0554,-4.033,-3.9869,-3.9326,-3.9265,-3.9388,-3.9388,-2.3023,-2.2896,-2.2721,-2.2617,-2.2549,-2.2695,-2.2441,-2.1963,-2.1936,-2.1484,-2.0801,-2.0693,-2.0693,-2.0723,-2.0791,-2.0947,-2.1342,-2.2148,-2.3154,-2.4537,-2.6058,-2.743,-2.812,-2.8382,-2.8207,-2.8084,-2.8084,-2.8176,-2.8267,-2.9287,-2.9663,-2.9779,-2.9779,-2.9779,-2.9654,-2.9214,-2.8662,-2.8109,-2.7557,-2.7052,-2.6575,-2.6487,-2.6487,-2.6487,-2.6487,-2.6487,-2.6487,-2.6499,-2.6625,-2.7065,-2.7945,-2.9074,-3.0364,-3.1653,-3.2684,-3.3457,-3.4177,-3.4643,-3.4476,-3.4839,-3.5457,-3.5489,-3.5489,-3.5489,-3.5489,-3.5489,-3.5489,-3.5489,-3.5489,-3.5489,-3.5457,-3.5489,-3.5489,-3.5489,-3.5489,-3.5489,-3.5489,-3.5489,-3.5489,-3.5489,-3.5489,-3.5519,-3.5863,-3.6178,-3.703,-3.7734,-3.8571,-3.92,-3.9298,-3.9388,-3.9388,-3.9388,-3.9388,-3.9388,-3.9388,-3.9388,-3.9388,-3.9388,-3.9388,-3.9388,-3.9388,-3.9388,-3.9403,-3.9418,-3.9619,-3.9903,-4.0119,-4.0276,-4.0121,-3.9906,-3.9511,-3.9184,-3.9271,-3.9388,-3.9388,-2.2867,-2.2598,-2.2886,-2.2861,-2.2519,-2.209,-2.1943,-2.1943,-2.1894,-2.1641,-2.1201,-2.0859,-2.0889,-2.1152,-2.1221,-2.1377,-2.1826,-2.2695,-2.3545,-2.4519,-2.5972,-2.7341,-2.7897,-2.8032,-2.7884,-2.8084,-2.8084,-2.8084,-2.8136,-2.9236,-2.9702,-2.9779,-2.9779,-2.9779,-2.9729,-2.9189,-2.8624,-2.8109,-2.7557,-2.7052,-2.6612,-2.6487,-2.6487,-2.6487,-2.6487,-2.6487,-2.6487,-2.6625,-2.6813,-2.7243,-2.8048,-2.8898,-2.9593,-3.0961,-3.1673,-3.1711,-3.3262,-3.3979,-3.4061,-3.4953,-3.5246,-3.5279,-3.5133,-3.5213,-3.5359,-3.5392,-3.5279,-3.5118,-3.5407,-3.5359,-3.5424,-3.5457,-3.5457,-3.5311,-3.5279,-3.5489,-3.5489,-3.5489,-3.5489,-3.5489,-3.5504,-3.5579,-3.5983,-3.6507,-3.7434,-3.8227,-3.896,-3.9284,-3.9358,-3.9388,-3.9388,-3.9388,-3.9388,-3.9388,-3.9388,-3.9388,-3.9388,-3.9388,-3.9388,-3.9388,-3.9388,-3.9388,-3.9403,-3.9469,-3.9762,-4.0151,-4.0066,-3.9929,-3.9843,-3.9793,-3.9576,-3.9337,-3.9388,-3.9388,-3.9388,-2.2847,-2.2519,-2.2666,-2.276,-2.2808,-2.249,-2.2305,-2.2246,-2.2021,-2.1807,-2.168,-2.1475,-2.1494,-2.1641,-2.168,-2.1768,-2.2081,-2.2889,-2.3613,-2.432,-2.5623,-2.692,-2.7542,-2.7493,-2.7481,-2.7924,-2.8084,-2.8084,-2.8124,-2.9236,-2.9702,-2.9779,-2.9779,-2.9779,-2.9628,-2.9214,-2.8624,-2.8109,-2.757,-2.7065,-2.6562,-2.6487,-2.6487,-2.6487,-2.6499,-2.6537,-2.6587,-2.6826,-2.7155,-2.7482,-2.826,-2.9012,-2.9648,-3.0949,-3.1186,-3.1509,-3.2876,-3.3945,-3.4027,-3.4394,-3.4461,-3.4476,-3.4509,-3.4509,-3.4495,-3.4495,-3.4495,-3.4643,-3.4986,-3.4691,-3.3905,-3.4953,-3.5166,-3.4758,-3.4791,-3.5311,-3.5489,-3.5489,-3.5489,-3.5489,-3.5504,-3.5818,-3.6193,-3.6499,-3.7312,-3.8041,-3.8674,-3.9167,-3.9337,-3.9388,-3.9388,-3.9388,-3.9388,-3.9388,-3.9388,-3.9156,-3.9265,-3.9388,-3.9388,-3.9388,-3.9388,-3.9388,-3.9388,-3.9403,-3.9926,-4.039,-4.0345,-4.024,-3.9933,-3.9732,-3.9508,-3.9388,-3.9388,-3.9388,-3.9388,-2.2676,-2.2344,-2.2607,-2.275,-2.2828,-2.2627,-2.2578,-2.2627,-2.2295,-2.21,-2.207,-2.1963,-2.1973,-2.2051,-2.2109,-2.2236,-2.2379,-2.2914,-2.3318,-2.3928,-2.4875,-2.6121,-2.6844,-2.7005,-2.7331,-2.7804,-2.8084,-2.8124,-2.8164,-2.9236,-2.974,-2.9779,-2.9779,-2.9779,-2.9566,-2.9063,-2.8461,-2.7934,-2.7419,-2.6839,-2.6562,-2.6487,-2.6487,-2.6562,-2.6663,-2.6801,-2.6927,-2.7205,-2.7657,-2.7984,-2.8559,-2.9339,-3.0054,-3.0474,-3.072,-3.123,-3.1997,-3.3066,-3.3359,-3.3449,-3.338,-3.2961,-3.329,-3.3498,-3.3518,-3.3533,-3.3533,-3.3754,-3.4259,-3.3719,-3.315,-3.4341,-3.4259,-3.3808,-3.3959,-3.4476,-3.4905,-3.4872,-3.4868,-3.4949,-3.5291,-3.5743,-3.625,-3.6645,-3.7057,-3.7721,-3.8303,-3.8736,-3.9068,-3.8943,-3.8833,-3.8797,-3.8664,-3.8441,-3.8501,-3.8634,-3.887,-3.9316,-3.9352,-3.9228,-3.9388,-3.9388,-3.9388,-3.9538,-4.024,-4.0778,-4.0792,-4.0673,-4.03,-3.9873,-3.9463,-3.9388,-3.9388,-3.9388,-3.9388,-2.2295,-2.206,-2.276,-2.2857,-2.2588,-2.2545,-2.2721,-2.3003,-2.2643,-2.2529,-2.251,-2.2148,-2.2227,-2.249,-2.2529,-2.2705,-2.2939,-2.3085,-2.3138,-2.3504,-2.4418,-2.5566,-2.6326,-2.6607,-2.7168,-2.7723,-2.7924,-2.7723,-2.8084,-2.8897,-2.9443,-2.9779,-2.9779,-2.9779,-2.9478,-2.885,-2.8298,-2.7883,-2.7444,-2.6901,-2.6587,-2.6487,-2.6562,-2.67,-2.6952,-2.7203,-2.7419,-2.7808,-2.831,-2.8662,-2.8963,-2.9353,-2.9655,-2.9805,-2.9792,-3.0177,-3.1007,-3.1792,-3.2393,-3.2522,-3.2069,-3.1696,-3.201,-3.2357,-3.2558,-3.2571,-3.2571,-3.2678,-3.301,-3.2713,-3.2571,-3.2749,-3.289,-3.277,-3.277,-3.3276,-3.3808,-3.3939,-3.3962,-3.4182,-3.4654,-3.514,-3.5741,-3.6201,-3.6346,-3.7067,-3.7555,-3.7829,-3.8086,-3.7919,-3.782,-3.7706,-3.7491,-3.7187,-3.7394,-3.7921,-3.814,-3.8507,-3.8878,-3.8943,-3.9141,-3.9316,-3.9388,-3.9753,-4.0666,-4.0957,-4.0415,-4.0395,-4.0598,-4.0104,-3.9205,-3.9388,-3.9388,-3.9388,-3.9388,-2.2715,-2.2402,-2.2867,-2.3023,-2.2925,-2.2916,-2.2838,-2.2672,-2.2808,-2.2916,-2.2906,-2.2799,-2.2783,-2.2916,-2.2916,-2.2984,-2.3042,-2.3091,-2.3125,-2.3507,-2.4125,-2.5336,-2.6088,-2.6483,-2.7157,-2.7481,-2.7441,-2.7087,-2.725,-2.8119,-2.9197,-2.9663,-2.9663,-2.9702,-2.9364,-2.8687,-2.8298,-2.7971,-2.757,-2.7077,-2.6625,-2.6487,-2.6675,-2.7002,-2.7228,-2.7494,-2.7908,-2.8398,-2.8787,-2.8888,-2.934,-2.9679,-2.9716,-2.9818,-2.996,-3.0758,-3.1143,-3.1402,-3.1559,-3.1609,-3.1267,-3.0533,-3.0633,-3.0983,-3.1328,-3.1609,-3.1609,-3.1719,-3.1938,-3.1829,-3.1623,-3.1609,-3.1719,-3.1742,-3.1888,-3.2393,-3.2876,-3.2996,-3.3017,-3.3332,-3.3802,-3.4333,-3.4932,-3.5147,-3.5377,-3.6196,-3.6771,-3.7029,-3.7153,-3.7029,-3.6993,-3.6942,-3.6695,-3.6524,-3.6888,-3.7386,-3.7478,-3.7659,-3.8146,-3.8446,-3.8337,-3.859,-3.9119,-3.9706,-4.0353,-4.0085,-3.9488,-3.9689,-4.0109,-3.9416,-3.8661,-3.9065,-3.9388,-3.9352,-3.9388,-2.2637,-2.2363,-2.2857,-2.3101,-2.3101,-2.3091,-2.2935,-2.2789,-2.2994,-2.3101,-2.3101,-2.3071,-2.3101,-2.3081,-2.3071,-2.3081,-2.3091,-2.3101,-2.3101,-2.3299,-2.392,-2.4713,-2.5473,-2.5975,-2.6449,-2.6789,-2.6924,-2.6648,-2.6719,-2.7574,-2.8688,-2.9663,-2.9495,-2.9456,-2.9285,-2.856,-2.799,-2.7814,-2.7595,-2.7105,-2.6763,-2.6512,-2.6851,-2.7266,-2.7431,-2.7908,-2.8411,-2.8963,-2.9202,-2.9226,-2.9704,-2.9767,-2.9779,-2.9818,-2.9895,-3.0482,-3.052,-3.0558,-3.062,-3.0671,-3.0279,-2.9998,-2.9779,-3.0101,-3.0394,-3.0633,-3.0658,-3.0696,-3.0983,-3.1132,-3.0884,-3.0633,-3.0658,-3.0683,-3.1156,-3.1573,-3.1815,-3.2033,-3.2236,-3.2486,-3.2916,-3.3409,-3.3782,-3.3982,-3.4743,-3.6154,-3.6538,-3.6148,-3.6316,-3.632,-3.6415,-3.6509,-3.6226,-3.5979,-3.6444,-3.6822,-3.6948,-3.7249,-3.7761,-3.7958,-3.765,-3.7947,-3.8595,-3.9182,-3.9765,-3.9287,-3.8669,-3.905,-3.9312,-3.8437,-3.7776,-3.8026,-3.8546,-3.9192,-3.9228,-2.2363,-2.21,-2.276,-2.3101,-2.3101,-2.3101,-2.3081,-2.3101,-2.3091,-2.3101,-2.3101,-2.3101,-2.3101,-2.3101,-2.3101,-2.3101,-2.3101,-2.3101,-2.3101,-2.3135,-2.3637,-2.4296,-2.4798,-2.4925,-2.5786,-2.6224,-2.6141,-2.5683,-2.6461,-2.7238,-2.8199,-2.9456,-2.853,-2.835,-2.885,-2.79,-2.748,-2.7712,-2.7329,-2.6788,-2.665,-2.66,-2.6826,-2.7417,-2.7896,-2.8423,-2.8963,-2.9415,-2.9779,-2.9779,-2.9779,-2.9779,-2.9779,-2.9779,-2.9869,-2.9908,-2.9998,-2.9998,-3.0024,-3.0037,-2.996,-2.9818,-2.9779,-2.9945,-3.015,-3.0303,-3.0367,-3.047,-3.0804,-3.083,-3.0624,-3.0636,-3.0661,-3.0509,-3.0611,-3.0862,-3.0959,-3.1211,-3.1442,-3.1655,-3.1856,-3.2482,-3.3861,-3.4176,-3.4237,-3.6018,-3.6379,-3.5595,-3.5703,-3.5781,-3.5867,-3.6091,-3.5931,-3.5727,-3.596,-3.6318,-3.6452,-3.6824,-3.726,-3.7305,-3.6919,-3.7414,-3.8089,-3.8615,-3.9009,-3.8435,-3.8021,-3.828,-3.8022,-3.6902,-3.6501,-3.6825,-3.7445,-3.8281,-3.8708,-2.2886,-2.2818,-2.3013,-2.3101,-2.3101,-2.3101,-2.3101,-2.3101,-2.3101,-2.3101,-2.3101,-2.3101,-2.3101,-2.3101,-2.3101,-2.3101,-2.3101,-2.3101,-2.3101,-2.3387,-2.3757,-2.4006,-2.467,-2.4628,-2.5336,-2.5557,-2.5263,-2.4638,-2.5452,-2.6367,-2.6964,-2.7302,-2.6919,-2.7267,-2.8014,-2.7023,-2.6852,-2.7562,-2.7329,-2.6806,-2.6539,-2.6957,-2.7344,-2.7883,-2.8423,-2.8938,-2.939,-2.9654,-2.9779,-2.9779,-2.9779,-2.9779,-2.9779,-2.9779,-2.9779,-2.9779,-2.9779,-2.9779,-2.9779,-2.9792,-2.9817,-2.9829,-2.9892,-3.0105,-3.0256,-3.0369,-3.047,-3.0545,-3.0583,-3.0557,-3.057,-3.0696,-3.0721,-3.0419,-3.0105,-3.02,-3.0254,-3.0522,-3.0766,-3.0906,-3.1008,-3.2111,-3.3611,-3.4238,-3.4323,-3.462,-3.5009,-3.4989,-3.5484,-3.5705,-3.5596,-3.5692,-3.5691,-3.5598,-3.5805,-3.5923,-3.6178,-3.6082,-3.6345,-3.631,-3.6229,-3.6818,-3.7491,-3.7907,-3.8104,-3.7568,-3.7207,-3.7195,-3.6688,-3.5643,-3.5425,-3.5774,-3.61,-3.6746,-3.742,-2.3101,-2.3101,-2.3101,-2.3101,-2.3101,-2.3101,-2.3101,-2.3101,-2.3101,-2.3101,-2.3101,-2.3101,-2.3101,-2.3101,-2.3101,-2.3101,-2.3101,-2.3101,-2.3101,-2.3387,-2.3637,-2.38,-2.4049,-2.4125,-2.4211,-2.4435,-2.393,-2.3757,-2.466,-2.5294,-2.585,-2.6127,-2.6057,-2.6001,-2.6765,-2.6391,-2.6327,-2.7585,-2.7373,-2.7007,-2.6703,-2.722,-2.7897,-2.8448,-2.8812,-2.9289,-2.9578,-2.9779,-2.9779,-2.9779,-2.9779,-2.9779,-2.9779,-2.9779,-2.9779,-2.9779,-2.9779,-2.9779,-2.9779,-2.9829,-2.993,-3.0018,-3.0156,-3.0444,-3.0934,-3.1072,-3.1148,-3.121,-3.1072,-3.1035,-3.1022,-3.1097,-3.1085,-3.0896,-3.052,-3.0361,-3.0465,-3.0631,-3.0923,-3.1175,-3.1605,-3.2516,-3.3784,-3.447,-3.4647,-3.5464,-3.5487,-3.5378,-3.5717,-3.5805,-3.5617,-3.5542,-3.568,-3.583,-3.6067,-3.6063,-3.5982,-3.5829,-3.5686,-3.5962,-3.6289,-3.6488,-3.6845,-3.7183,-3.7249,-3.6778,-3.649,-3.6332,-3.5669,-3.4747,-3.4635,-3.4831,-3.5116,-3.5346,-3.5722,-2.3101,-2.3101,-2.3101,-2.3101,-2.3101,-2.3101,-2.3101,-2.3101,-2.3101,-2.3101,-2.3101,-2.3101,-2.3101,-2.3101,-2.3101,-2.3101,-2.3101,-2.3101,-2.3101,-2.3101,-2.3178,-2.3387,-2.3343,-2.3222,-2.3474,-2.3757,-2.3767,-2.3887,-2.4372,-2.483,-2.5293,-2.5644,-2.533,-2.4962,-2.5869,-2.5754,-2.5489,-2.698,-2.7336,-2.709,-2.7213,-2.7606,-2.8176,-2.86,-2.8963,-2.9276,-2.9641,-2.9779,-2.9779,-2.9779,-2.9779,-2.9779,-2.9779,-2.9779,-2.9779,-2.9779,-2.9779,-2.9779,-2.9804,-2.993,-3.0193,-3.0432,-3.0608,-3.0972,-3.1461,-3.1687,-3.1763,-3.1825,-3.1687,-3.1574,-3.1562,-3.1612,-3.1587,-3.1311,-3.0922,-3.062,-3.0721,-3.0846,-3.1173,-3.1524,-3.2303,-3.3144,-3.396,-3.465,-3.5265,-3.6103,-3.6417,-3.6417,-3.6367,-3.6182,-3.6019,-3.5994,-3.6056,-3.6267,-3.6355,-3.6267,-3.6069,-3.5927,-3.5881,-3.6134,-3.6298,-3.6414,-3.6449,-3.648,-3.6379,-3.6103,-3.574,-3.55,-3.4717,-3.4149,-3.4169,-3.4308,-3.4108,-3.4262,-3.4066,-2.3101,-2.3101,-2.3101,-2.3101,-2.3101,-2.3101,-2.3101,-2.3101,-2.3101,-2.3101,-2.3101,-2.3101,-2.3101,-2.3101,-2.3101,-2.3101,-2.3101,-2.3101,-2.3101,-2.3101,-2.3101,-2.3101,-2.3101,-2.3101,-2.3101,-2.356,-2.4135,-2.4681,-2.4051,-2.433,-2.4239,-2.3654,-2.3352,-2.3742,-2.5122,-2.5025,-2.5294,-2.6534,-2.7112,-2.6978,-2.7342,-2.7654,-2.7995,-2.8456,-2.8943,-2.9437,-2.9779,-2.9779,-2.9779,-2.9779,-2.9779,-2.9779,-2.9779,-2.9779,-2.9779,-2.9779,-2.9779,-2.9779,-2.9842,-3.0143,-3.047,-3.0696,-3.0959,-3.1499,-3.1888,-3.2114,-3.2303,-3.2629,-3.2558,-3.2328,-3.2315,-3.2503,-3.2491,-3.18,-3.1286,-3.1198,-3.121,-3.1436,-3.1712,-3.224,-3.2905,-3.3872,-3.4856,-3.5307,-3.5579,-3.6169,-3.6405,-3.6417,-3.6417,-3.6417,-3.6417,-3.6417,-3.6417,-3.6417,-3.6405,-3.6392,-3.6279,-3.6107,-3.6019,-3.6081,-3.6144,-3.6254,-3.6279,-3.6355,-3.6069,-3.5819,-3.5391,-3.5278,-3.4663,-3.4237,-3.4033,-3.3922,-3.3598,-3.3484,-3.3484]},{"header":{"parameterUnit":"m.s-1","parameterCategory":1,"la1":31.0,"la2":29.5877,"lo1":-88.7671,"lo2":-86.6584,"dx":0.0162,"dy":0.0185,"nx":115,"ny":88,"refTime":"2022-11-30T18:00:00:Z","depth":0,"parameterNumber":3,"parameterNumberName":"V-component_of_WINDS"},"data":[0.0,0.0,0.0,0.0,0.0,0.0,0.0,0.0,0.0,0.0,0.0,0.0,0.0,0.0,0.0,0.0,0.0,0.0,0.0,0.0,0.0,0.0,0.0,0.0,0.0,0.0,0.0,0.0,0.0,0.0,0.0,0.0,0.0,0.0,0.0,0.0,0.0,0.0,0.0,0.0,0.0,0.0,0.0,0.0,0.0,0.0,0.0,0.0,0.0,0.0,0.0,0.0,0.0,0.0,0.0,0.0,0.0,0.0,0.0,0.0,0.0,0.0,0.0,0.0,0.0,0.0,0.0,0.0,0.0,0.0,0.0,0.0,0.0,0.0,0.0,0.0,0.0,0.0,0.0,0.0,0.0,0.0,0.0,0.0,0.0,0.0,0.0,0.0,0.0,0.0,0.0,0.0,0.0,0.0,0.0,0.0,0.0,0.0,0.0,0.0,0.0,0.0,0.0,0.0,0.0,0.0,0.0,0.0,0.0,0.0,0.0,0.0,0.0,0.0,0.0,0.0,0.0,0.0,0.0,0.0,0.0,0.0,0.0,0.0,0.0,0.0,0.0,0.0,0.0,0.0,0.0,0.0,0.0,0.0,0.0,0.0,0.0,0.0,0.0,0.0,0.0,0.0,0.0,0.0,0.0,0.0,0.0,0.0,0.0,0.0,0.0,0.0,0.0,0.0,0.0,0.0,0.0,0.0,0.0,0.0,0.0,0.0,0.0,0.0,0.0,0.0,0.0,0.0,0.0,0.0,0.0,0.0,0.0,0.0,0.0,0.0,0.0,0.0,0.0,0.0,0.0,0.0,0.0,0.0,0.0,0.0,0.0,0.0,0.0,0.0,0.0,0.0,0.0,0.0,0.0,0.0,0.0,0.0,0.0,0.0,0.0,0.0,0.0,0.0,0.0,0.0,0.0,0.0,0.0,0.0,0.0,0.0,0.0,0.0,0.0,0.0,0.0,0.0,0.0,0.0,0.0,0.0,0.0,0.0,0.0,0.0,0.0,0.0,0.0,0.0,0.0,0.0,0.0,0.0,0.0,0.0,0.0,0.0,0.0,0.0,0.0,0.0,0.0,0.0,0.0,0.0,0.0,0.0,0.0,0.0,0.0,0.0,0.0,0.0,0.0,0.0,0.0,0.0,0.0,0.0,0.0,0.0,0.0,0.0,0.0,0.0,0.0,0.0,0.0,0.0,0.0,0.0,0.0,0.0,0.0,0.0,0.0,0.0,0.0,0.0,0.0,0.0,0.0,0.0,0.0,0.0,0.0,0.0,0.0,0.0,0.0,0.0,0.0,0.0,0.0,0.0,0.0,0.0,0.0,0.0,0.0,0.0,0.0,0.0,0.0,0.0,0.0,0.0,0.0,0.0,0.0,0.0,0.0,0.0,0.0,0.0,0.0,0.0,0.0,0.0,0.0,0.0,0.0,0.0,0.0,0.0,0.0,0.0,0.0,0.0,0.0,0.0,0.0,0.0,0.0,0.0,0.0,0.0,0.0,0.0,0.0,0.0,0.0,0.0,0.0,0.0,0.0,0.0,0.0,0.0,0.0,0.0,0.0,0.0,0.0,0.0,0.0,0.0,0.0,0.0,0.0,0.0,0.0,0.0,0.0,0.0,0.0,0.0,0.0,0.0,0.0,0.0,0.0,0.0,0.0,0.0,0.0,0.0,0.0,0.0,0.0,0.0,0.0,0.0,0.0,0.0,0.0,0.0,0.0,0.0,0.0,0.0,0.0,0.0,0.0,0.0,0.0,0.0,0.0,0.0,0.0,0.0,0.0,0.0,0.0,0.0,0.0,0.0,0.0,0.0,0.0,0.0,0.0,0.0,0.0,0.0,0.0,0.0,0.0,0.0,0.0,0.0,0.0,0.0,0.0,0.0,0.0,0.0,0.0,0.0,0.0,0.0,0.0,0.0,0.0,0.0,0.0,0.0,0.0,0.0,0.0,0.0,0.0,0.0,0.0,0.0,0.0,0.0,0.0,0.0,0.0,0.0,0.0,0.0,0.0,0.0,0.0,0.0,0.0,0.0,0.0,0.0,0.0,0.0,0.0,0.0,0.0,0.0,0.0,0.0,0.0,0.0,0.0,0.0,0.0,0.0,0.0,0.0,0.0,0.0,0.0,0.0,0.0,0.0,0.0,0.0,0.0,0.0,0.0,0.0,0.0,0.0,0.0,0.0,0.0,0.0,0.0,0.0,0.0,0.0,0.0,0.0,0.0,0.0,0.0,0.0,0.0,0.0,0.0,0.0,0.0,0.0,0.0,0.0,0.0,0.0,0.0,0.0,0.0,0.0,0.0,0.0,0.0,0.0,0.0,0.0,0.0,0.0,0.0,0.0,0.0,0.0,0.0,0.0,0.0,0.0,0.0,0.0,0.0,0.0,0.0,0.0,0.0,0.0,0.0,0.0,0.0,0.0,0.0,0.0,0.0,0.0,0.0,0.0,0.0,0.0,0.0,0.0,0.0,0.0,0.0,0.0,0.0,0.0,0.0,0.0,0.0,0.0,0.0,0.0,0.0,0.0,0.0,0.0,0.0,0.0,0.0,0.0,0.0,0.0,0.0,0.0,0.0,0.0,0.0,0.0,0.0,0.0,0.0,0.0,0.0,0.0,0.0,0.0,0.0,0.0,0.0,0.0,0.0,0.0,0.0,0.0,0.0,0.0,0.0,0.0,0.0,0.0,0.0,0.0,0.0,0.0,0.0,0.0,0.0,0.0,0.0,0.0,0.0,0.0,0.0,0.0,0.0,0.0,0.0,0.0,0.0,0.0,0.0,0.0,0.0,0.0,0.0,0.0,0.0,0.0,0.0,0.0,0.0,0.0,0.0,0.0,0.0,0.0,0.0,0.0,0.0,0.0,0.0,0.0,0.0,0.0,0.0,0.0,0.0,0.0,0.0,0.0,0.0,0.0,0.0,0.0,0.0,0.0,0.0,0.0,0.0,0.0,0.0,0.0,0.0,0.0,0.0,0.0,0.0,0.0,0.0,0.0,0.0,0.0,0.0,0.0,0.0,0.0,0.0,0.0,0.0,0.0,0.0,0.0,0.0,0.0,0.0,0.0,0.0,0.0,0.0,0.0,0.0,0.0,0.0,0.0,0.0,0.0,0.0,0.0,0.0,0.0,0.0,0.0,0.0,0.0,0.0,0.0,0.0,0.0,0.0,0.0,0.0,0.0,0.0,0.0,0.0,0.0,0.0,0.0,0.0,0.0,0.0,0.0,0.0,0.0,0.0,0.0,0.0,0.0,0.0,0.0,0.0,0.0,0.0,0.0,0.0,0.0,0.0,0.0,0.0,0.0,0.0,0.0,0.0,0.0,0.0,0.0,0.0,0.0,0.0,0.0,0.0,0.0,0.0,0.0,0.0,0.0,0.0,0.0,0.0,0.0,0.0,0.0,0.0,0.0,0.0,0.0,0.0,0.0,0.0,0.0,0.0,0.0,0.0,0.0,0.0,0.0,0.0,0.0,0.0,0.0,0.0,0.0,0.0,0.0,0.0,0.0,0.0,0.0,0.0,0.0,0.0,0.0,0.0,0.0,0.0,0.0,0.0,0.0,0.0,0.0,0.0,0.0,0.0,0.0,0.0,0.0,0.0,0.0,0.0,0.0,0.0,0.0,0.0,0.0,0.0,0.0,0.0,0.0,0.0,0.0,0.0,0.0,0.0,0.0,0.0,0.0,0.0,0.0,0.0,0.0,0.0,0.0,0.0,0.0,0.0,0.0,0.0,0.0,0.0,0.0,0.0,0.0,0.0,0.0,0.0,0.0,0.0,0.0,0.0,0.0,0.0,0.0,0.0,0.0,0.0,0.0,0.0,0.0,0.0,0.0,0.0,0.0,0.0,0.0,0.0,0.0,0.0,0.0,0.0,0.0,0.0,0.0,0.0,0.0,0.0,0.0,0.0,0.0,0.0,0.0,0.0,0.0,0.0,0.0,0.0,0.0,0.0,0.0,0.0,0.0,0.0,0.0,0.0,0.0,0.0,0.0,0.0,0.0,0.0,0.0,0.0,0.0,0.0,0.0,0.0,0.0,0.0,0.0,0.0,0.0,0.0,0.0,0.0,0.0,0.0,0.0,0.0,0.0,0.0,0.0,0.0,0.0,0.0,0.0,0.0,0.0,0.0,0.0,0.0,0.0,0.0,0.0,0.0,0.0,0.0,0.0,0.0,0.0,0.0,0.0,0.0,0.0,0.0,0.0,0.0,0.0,0.0,0.0,0.0,0.0,0.0,0.0,0.0,0.0,-0.7385,0.0,0.0,0.0,-0.8044,0.0,0.0,0.0,0.0,0.0,0.0,0.0,0.0,0.0,0.0,0.0,0.0,0.0,0.0,0.0,0.0,0.0,0.0,0.0,0.0,0.0,0.0,0.0,0.0,0.0,0.0,0.0,0.0,0.0,0.0,0.0,0.0,0.0,0.0,0.0,0.0,0.0,0.0,0.0,0.0,0.0,0.0,0.0,0.0,0.0,0.0,0.0,0.0,0.0,0.0,0.0,0.0,0.0,0.0,0.0,0.0,0.0,0.0,0.0,0.0,0.0,0.0,0.0,0.0,0.0,0.0,0.0,0.0,0.0,0.0,0.0,0.0,0.0,0.0,0.0,0.0,0.0,0.0,0.0,0.0,0.0,0.0,0.0,0.0,0.0,0.0,0.0,0.0,0.0,0.0,0.0,0.0,0.0,0.0,0.0,0.0,0.0,0.0,0.0,0.0,0.0,0.0,0.0,0.0,0.0,0.0,0.0,0.0,0.0,0.0,-0.6669,-0.7171,-0.7226,-0.7242,-0.7242,0.0,0.0,0.0,0.0,0.0,0.0,0.0,0.0,0.0,0.0,0.0,0.0,0.0,0.0,0.0,0.0,0.0,0.0,0.0,0.0,0.0,0.0,0.0,0.0,0.0,0.0,0.0,0.0,0.0,0.0,0.0,0.0,0.0,0.0,0.0,0.0,0.0,0.0,0.0,0.0,0.0,0.0,0.0,0.0,0.0,0.0,0.0,0.0,0.0,0.0,0.0,0.0,0.0,0.0,0.0,0.0,0.0,0.0,0.0,0.0,0.0,0.0,0.0,0.0,0.0,0.0,0.0,0.0,0.0,0.0,0.0,0.0,0.0,0.0,0.0,0.0,0.0,0.0,0.0,0.0,0.0,0.0,0.0,0.0,0.0,0.0,0.0,0.0,0.0,0.0,0.0,0.0,0.0,0.0,0.0,0.0,0.0,0.0,0.0,0.0,0.0,0.0,0.0,0.0,0.0,0.0,0.0,0.0,0.0,0.0,0.0,0.0,-0.6556,-0.6684,-0.6735,0.0,0.0,0.0,0.0,0.0,0.0,0.0,0.0,0.0,0.0,0.0,0.0,0.0,0.0,0.0,0.0,0.0,0.0,0.0,0.0,0.0,0.0,0.0,0.0,0.0,0.0,0.0,0.0,0.0,0.0,0.0,0.0,0.0,0.0,0.0,0.0,0.0,0.0,0.0,0.0,0.0,0.0,0.0,0.0,0.0,0.0,0.0,0.0,0.0,0.0,0.0,0.0,0.0,0.0,0.0,0.0,0.0,0.0,0.0,0.0,0.0,0.0,0.0,0.0,0.0,0.0,0.0,0.0,0.0,0.0,0.0,0.0,0.0,0.0,0.0,0.0,0.0,0.0,0.0,0.0,0.0,0.0,0.0,0.0,0.0,0.0,0.0,0.0,0.0,0.0,0.0,0.0,0.0,0.0,0.0,0.0,0.0,0.0,0.0,0.0,0.0,0.0,0.0,0.0,0.0,0.0,0.0,0.0,0.0,0.0,-0.5101,-0.5673,-0.5826,0.0,-0.6343,0.0,0.0,0.0,0.0,0.0,0.0,0.0,0.0,0.0,0.0,0.0,0.0,0.0,0.0,0.0,0.0,0.0,0.0,0.0,0.0,0.0,0.0,0.0,0.0,0.0,0.0,0.0,0.0,0.0,0.0,0.0,0.0,0.0,0.0,0.0,0.0,0.0,0.0,0.0,0.0,0.0,0.0,0.0,0.0,0.0,0.0,0.0,0.0,0.0,0.0,0.0,0.0,0.0,0.0,0.0,0.0,0.0,0.0,0.0,0.0,0.0,0.0,0.0,0.0,0.0,0.0,0.0,0.0,0.0,0.0,0.0,0.0,0.0,0.0,0.0,0.0,0.0,0.0,0.0,0.0,0.0,0.0,0.0,0.0,0.0,0.0,0.0,0.0,0.0,0.0,0.0,0.0,0.0,0.0,0.0,0.0,0.0,0.0,0.0,0.0,0.0,0.0,0.0,0.0,0.0,0.0,0.0,0.0,0.0,0.0,-0.4408,-0.4932,-0.5276,-0.5671,0.0,0.0,0.0,0.0,0.0,0.0,0.0,0.0,0.0,0.0,0.0,0.0,0.0,0.0,0.0,0.0,0.0,0.0,0.0,0.0,0.0,0.0,0.0,0.0,0.0,0.0,0.0,0.0,0.0,0.0,0.0,0.0,0.0,0.0,0.0,0.0,0.0,0.0,0.0,0.0,0.0,0.0,0.0,0.0,0.0,0.0,0.0,0.0,0.0,0.0,0.0,0.0,0.0,0.0,0.0,0.0,0.0,0.0,0.0,0.0,0.0,0.0,0.0,0.0,0.0,0.0,0.0,0.0,0.0,0.0,0.0,0.0,0.0,0.0,0.0,0.0,0.0,0.0,0.0,0.0,0.0,0.0,0.0,0.0,0.0,0.0,0.0,0.0,0.0,0.0,0.0,0.0,0.0,0.0,0.0,0.0,0.0,0.0,0.0,0.0,0.0,0.0,0.0,0.0,0.0,0.0,0.0,0.0,0.0,0.0,-0.3297,-0.3852,-0.4474,-0.4823,-0.5233,-0.575,0.0,0.0,0.0,0.0,0.0,0.0,0.0,0.0,0.0,0.0,0.0,0.0,0.0,0.0,0.0,0.0,0.0,0.0,0.0,0.0,0.0,0.0,0.0,0.0,0.0,0.0,0.0,0.0,0.0,0.0,0.0,0.0,0.0,0.0,0.0,0.0,0.0,0.0,0.0,0.0,0.0,0.0,0.0,0.0,0.0,0.0,0.0,0.0,0.0,0.0,0.0,0.0,0.0,0.0,0.0,0.0,0.0,0.0,0.0,0.0,0.0,0.0,0.0,0.0,0.0,0.0,0.0,0.0,0.0,0.0,0.0,0.0,0.0,0.0,0.0,0.0,0.0,0.0,0.0,0.0,0.0,0.0,0.0,0.0,0.0,0.0,0.0,0.0,0.0,0.0,0.0,0.0,0.0,0.0,0.0,0.0,0.0,0.0,0.0,0.0,0.0,0.0,0.0,0.0,0.0,0.0,0.0,0.0,-0.2238,-0.271,-0.343,-0.4429,-0.4459,-0.4605,0.0,0.0,0.0,0.0,0.0,0.0,0.0,0.0,0.0,0.0,0.0,0.0,0.0,0.0,0.0,0.0,0.0,0.0,0.0,0.0,0.0,0.0,0.0,0.0,0.0,0.0,0.0,0.0,0.0,0.0,0.0,0.0,0.0,0.0,0.0,0.0,0.0,0.0,0.0,0.0,0.0,0.0,0.0,0.0,0.0,0.0,0.0,0.0,0.0,0.0,0.0,0.0,0.0,0.0,0.0,0.0,0.0,0.0,0.0,0.0,0.0,0.0,0.0,0.0,0.0,0.0,0.0,0.0,0.0,0.0,0.0,0.0,0.0,0.0,0.0,0.0,0.0,0.0,0.0,0.0,0.0,0.0,0.0,0.0,0.0,0.0,0.0,0.0,0.0,0.0,0.0,0.0,0.0,0.0,0.0,0.0,0.0,0.0,0.0,0.0,0.0,0.0,0.0,0.0,0.0,0.0,0.0,0.0,0.0,-0.1626,-0.2352,-0.313,-0.3895,-0.3988,-0.4188,0.0,0.0,0.0,0.0,0.0,0.0,0.0,0.0,0.0,0.0,0.0,0.0,0.0,0.0,0.0,0.0,0.0,0.0,0.0,0.0,0.0,0.0,0.0,0.0,0.0,0.0,0.0,0.0,0.0,0.0,0.0,0.0,0.0,0.0,0.0,0.0,0.0,0.0,0.0,0.0,0.0,0.0,0.0,0.0,0.0,0.0,0.0,0.0,0.0,0.0,0.0,0.0,0.0,0.0,0.0,0.0,0.0,0.0,0.0,0.0,0.0,0.0,0.0,0.0,0.0,0.0,0.0,0.0,0.0,0.0,0.0,0.0,0.0,0.0,0.0,0.0,0.0,0.0,0.0,0.0,0.0,0.0,0.0,0.0,0.0,0.0,0.0,0.0,0.0,0.0,0.0,0.0,0.0,0.0,0.0,0.0,0.0,0.0,0.0,0.0,0.0,0.0,0.0,0.0,0.0,0.0,0.0,0.0,0.0,-0.1338,-0.2085,-0.2729,-0.3281,-0.3464,-0.37,0.0,0.0,0.0,0.0,0.0,0.0,0.0,0.0,0.0,0.0,0.0,0.0,0.0,0.0,0.0,0.0,0.0,0.0,0.0,0.0,0.0,0.0,0.0,0.0,0.0,0.0,0.0,0.0,0.0,0.0,0.0,0.0,0.0,0.0,0.0,0.0,0.0,0.0,0.0,0.0,0.0,0.0,0.0,0.0,0.0,0.0,0.0,0.0,0.0,0.0,0.0,0.0,0.0,0.0,0.0,0.0,0.0,0.0,0.0,0.0,0.0,0.0,0.0,0.0,0.0,0.0,0.0,0.0,0.0,0.0,0.0,0.0,0.0,0.0,0.0,0.0,0.0,0.0,0.0,0.0,0.0,0.0,0.0,0.0,0.0,0.0,0.0,0.0,0.0,0.0,0.0,0.0,0.0,0.0,0.0,0.0,0.0,0.0,0.0,0.0,0.0,0.0,0.0,0.0,0.0,0.0,0.0,0.0,-0.0571,-0.1352,-0.177,-0.2224,-0.2691,-0.2908,-0.3169,0.0,0.0,0.0,0.0,0.0,0.0,0.0,0.0,0.0,0.0,0.0,0.0,0.0,0.0,0.0,0.0,0.0,0.0,0.0,0.0,0.0,0.0,0.0,0.0,0.0,0.0,0.0,0.0,0.0,0.0,0.0,0.0,0.0,0.0,0.0,0.0,0.0,0.0,0.0,0.0,0.0,0.0,0.0,0.0,0.0,0.0,0.0,0.0,0.0,0.0,0.0,0.0,0.0,0.0,0.0,0.0,0.0,0.0,0.0,0.0,0.0,0.0,0.0,0.0,0.0,0.0,0.0,0.0,0.0,0.0,0.0,0.0,0.0,0.0,0.0,0.0,0.0,0.0,0.0,0.0,0.0,0.0,0.0,0.0,0.0,0.0,0.0,0.0,0.0,0.0,0.0,0.0,0.0,0.0,0.0,0.0,0.0,0.0,0.0,0.0,0.0,0.0,0.0,0.0,0.0,0.0,0.0,0.0,0.0,-0.1032,-0.1311,-0.1746,-0.233,-0.2542,-0.2818,0.0,0.0,0.0,0.0,0.0,0.0,0.0,0.0,0.0,0.0,0.0,0.0,0.0,0.0,0.0,0.0,0.0,0.0,0.0,0.0,0.0,0.0,0.0,0.0,0.0,0.0,0.0,0.0,0.0,0.0,0.0,0.0,0.0,0.0,0.0,0.0,0.0,0.0,0.0,0.0,0.0,0.0,0.0,0.0,0.0,0.0,0.0,0.0,0.0,0.0,0.0,0.0,0.0,0.0,0.0,0.0,0.0,0.0,0.0,0.0,0.0,0.0,0.0,0.0,0.0,0.0,0.0,0.0,0.0,0.0,0.0,0.0,0.0,0.0,0.0,0.0,0.0,0.0,0.0,0.0,0.0,0.0,0.0,0.0,0.0,0.0,0.0,0.0,0.0,0.0,0.0,0.0,0.0,0.0,0.0,0.0,0.0,0.0,0.0,0.0,0.0,0.0,0.0,0.0,0.0,0.0,0.0,0.0,0.0,-0.0536,-0.0867,-0.1264,-0.1814,-0.2055,-0.235,-0.278,0.0,0.0,0.0,0.0,0.0,0.0,0.0,0.0,0.0,0.0,0.0,0.0,0.0,0.0,0.0,0.0,0.0,0.0,0.0,0.0,0.0,0.0,0.0,0.0,0.0,0.0,0.0,0.0,0.0,0.0,0.0,0.0,0.0,0.0,0.0,0.0,0.0,0.0,0.0,0.0,0.0,0.0,0.0,0.0,0.0,0.0,0.0,0.0,0.0,0.0,0.0,0.0,0.0,0.0,0.0,0.0,0.0,0.0,0.0,0.0,0.0,0.0,0.0,0.0,0.0,0.0,0.0,0.0,0.0,0.0,0.0,0.0,0.0,0.0,0.0,0.0,0.0,0.0,0.0,0.0,0.0,0.0,0.0,0.0,0.0,0.0,0.0,0.0,0.0,0.0,0.0,0.0,0.0,0.0,0.0,0.0,0.0,0.0,0.0,0.0,0.0,0.0,0.0,0.0,0.0,0.0,0.0,0.0,0.0035,-0.0425,-0.0815,-0.1163,-0.1431,-0.1814,0.0,0.0,0.0,0.0,0.0,0.0,0.0,0.0,0.0,0.0,0.0,0.0,0.0,0.0,0.0,0.0,0.0,0.0,0.0,0.0,0.0,0.0,0.0,0.0,0.0,0.0,0.0,0.0,0.0,0.0,0.0,0.0,0.0,0.0,0.0,0.0,0.0,0.0,0.0,0.0,0.0,0.0,0.0,0.0,0.0,0.0,0.0,0.0,0.0,0.0,0.0,0.0,0.0,0.0,0.0,0.0,0.0,0.0,0.0,0.0,0.0,0.0,0.0,0.0,0.0,0.0,0.0,0.0,0.0,0.0,0.0,0.0,0.0,0.0,0.0,0.0,0.0,0.0,0.0,0.0,0.0,0.0,0.0,0.0,0.0,0.0,0.0,0.0,0.0,0.0,0.0,0.0,0.0,0.0,0.0,0.0,0.0,0.0,0.0,0.0,0.0,0.0,0.0,0.0,0.0,0.0,0.0,0.0,0.0,0.0431,0.0041,-0.0403,-0.0879,-0.1169,-0.1482,0.0,0.0,0.0,0.0,0.0,0.0,0.0,0.0,0.0,0.0,0.0,0.0,0.0,0.0,0.0,0.0,0.0,0.0,0.0,0.0,0.0,0.0,0.0,0.0,0.0,0.0,0.0,0.0,0.0,0.0,0.0,0.0,0.0,0.0,0.0,0.0,0.0,0.0,0.0,0.0,0.0,0.0,0.0,0.0,0.0,0.0,0.0,0.0,0.0,0.0,0.0,0.0,0.0,0.0,0.0,0.0,0.0,0.0,0.0,0.0,0.0,0.0,0.0,0.0,0.0,0.0,0.0,0.0,0.0,0.0,0.0,0.0,0.0,0.0,0.0,0.0,0.0,0.0,0.0,0.0,0.0,0.0,0.0,0.0,0.0,0.0,0.0,0.0,0.0,0.0,0.0,0.0,0.0,0.0,0.0,0.0,0.0,0.0,0.0,0.0,0.0,0.0,0.0,0.0,0.0,0.0,0.0,0.0,0.0955,0.0853,0.03,-0.013,-0.0458,-0.0801,-0.1153,0.0,0.0,0.0,0.0,0.0,0.0,0.0,0.0,0.0,0.0,0.0,0.0,0.0,0.0,0.0,0.0,0.0,0.0,0.0,0.0,0.0,0.0,0.0,0.0,0.0,0.0,0.0,0.0,0.0,0.0,0.0,0.0,0.0,0.0,0.0,0.0,0.0,0.0,0.0,0.0,0.0,0.0,0.0,0.0,0.0,0.0,0.0,0.0,0.0,0.0,0.0,0.0,0.0,0.0,0.0,0.0,0.0,0.0,0.0,0.0,0.0,0.0,0.0,0.0,0.0,0.0,0.0,0.0,0.0,0.0,0.0,0.0,0.0,0.0,0.0,0.0,0.0,0.0,0.0,0.0,0.0,0.0,0.0,0.0,0.0,0.0,0.0,0.0,0.0,0.0,0.0,0.0,0.0,0.0,0.0,0.0,0.0,0.0,0.0,0.0,0.0,0.0,0.0,0.0,0.0,0.0,0.0,0.0,0.144,0.1267,0.0566,0.0135,0.0,-0.0446,-0.0875,0.0,0.0,0.0,0.0,0.0,0.0,0.0,0.0,0.0,0.0,0.0,0.0,0.0,0.0,0.0,0.0,0.0,0.0,0.0,0.0,0.0,0.0,0.0,0.0,0.0,0.0,0.0,0.0,0.0,0.0,0.0,0.0,0.0,0.0,0.0,0.0,0.0,0.0,0.0,0.0,0.0,0.0,0.0,0.0,0.0,0.0,0.0,0.0,0.0,0.0,0.0,0.0,0.0,0.0,0.0,0.0,0.0,0.0,0.0,0.0,0.0,0.0,0.0,0.0,0.0,0.0,0.0,0.0,0.0,0.0,0.0,0.0,0.0,0.0,0.0,0.0,0.0,0.0,0.0,0.0,0.0,0.0,0.0,0.0,0.0,0.0,0.0,0.0,0.0,0.0,0.0,0.0,0.0,0.0,0.0,0.0,0.0,0.0,0.0,0.0,0.0,0.0,0.0,0.0,0.0,0.0,0.0,0.0,0.261,0.1921,0.1587,0.0941,0.0045,-0.0418,-0.0663,0.0,0.0,0.0,0.0,0.0,0.0,0.0,0.0,0.0,0.0,0.0,0.0,0.0,0.0,0.0,0.0,0.0,0.0,0.0,0.0,0.0,0.0,0.0,0.0,0.0,0.0,0.0,0.0,0.0,0.0,0.0,0.0,0.0,0.0,0.0,0.0,0.0,0.0,0.0,0.0,0.0,0.0,0.0,0.0,0.0,0.0,0.0,0.0,0.0206,0.0,0.0,0.0,0.0,0.0,0.0,0.0,0.0,0.0,0.0,0.0,0.0,0.0,0.0,0.0,0.0,0.0,0.0,0.0,0.0,0.0,0.0,0.0,0.0,0.0,0.0,0.0,0.0,0.0,0.0,0.0,0.0,0.0,0.0,0.0,0.0,0.0,0.0,0.0,0.0,0.0,0.0,0.0,0.0,0.0,0.0,0.0,0.0,0.0,0.0,0.0,0.0,0.0,0.0,0.0,0.0,0.0,0.0,0.0,0.3602,0.3242,0.2301,0.1478,0.085,0.0,-0.0529,0.0,0.0,0.0,0.0,0.0,0.0,0.0,0.0,0.0,0.0,0.0,0.0,0.0,0.0,0.0,0.0,0.0,0.0,0.0,0.0,0.0,0.0,0.0,0.0,0.0,0.0,0.0,0.0,0.0,0.0,0.0,0.0,0.0,0.0,0.0,0.0,0.0,0.0,0.0,0.0,0.0,0.0,0.0,0.0,0.0,0.0,0.0,0.0,0.0,0.0,0.0,0.0,0.0,0.0,0.0,0.0,0.0,0.0,0.0,0.0,0.0,0.0,0.0,0.0,0.0,0.0,0.0,0.0,0.0,0.0,0.0,0.0,0.0,0.0,0.0,0.0,0.0,0.0,0.0,0.0,0.0,0.0,0.0,0.0,0.0,0.0,0.0,0.0,0.0,0.0,0.0,0.0,0.0,0.0,0.0,0.0,0.0,0.0,0.0,0.0,0.0,0.0,0.0,0.0,0.0,0.0,0.0,0.4573,0.4564,0.4558,0.3143,0.2192,0.1789,0.0657,-0.0125,-0.0572,0.0,0.0,0.0,0.0,0.0,0.0,0.0,0.0,0.0,0.0,0.0,0.0,0.0,0.0,0.0,0.0,0.0,0.0,0.0,0.0,0.0,0.0,0.0,0.0,0.0,0.0,0.0,0.0,0.0,0.0,0.0,0.0,0.0,0.0,0.0,0.0,0.0,0.0,0.3612,0.3752,0.0,0.0,0.0,0.0,0.0,0.0,0.0,0.0,0.2524,0.0,0.0,0.0,0.0,0.0,0.0,0.0,0.0,0.0,0.0,0.0,0.0,0.0,0.0,0.0,0.0,0.0,0.0,0.0,0.0,0.0,0.0,0.0,0.0,0.0,0.0,0.0,0.0,0.0,0.0,0.0,0.0,0.0,0.0,0.0,0.0,0.0,0.0,0.0,0.0,0.0,0.0,0.0,0.0,0.0,0.0,0.0,0.0,0.0,0.0,0.0,0.0,0.0,0.0,0.0,0.0,0.5574,0.5791,0.5684,0.5279,0.4949,0.384,0.1922,0.1723,0.1112,-0.0039,0.0,0.0,0.0,0.0,0.0,0.0,0.0,0.0,0.0,0.0,0.0,0.0,0.0,0.0,0.0,0.0,0.0,0.0,0.0,0.0,0.0,0.0,0.0,0.0,0.0,0.0,0.0,0.0,0.0,0.0,0.0,0.0,0.0,0.0,0.0,0.0,0.0,0.0,0.0,0.4532,0.4637,0.0,0.0,0.0,0.0,0.0,0.0,0.0,0.0,0.2923,0.0,0.0,0.0,0.0,0.0,0.0,0.0,0.0,0.0,0.0,0.0,0.0,0.0,0.0,0.0,0.0,0.0,0.0,0.0,0.0,0.0,0.0,0.0,0.0,0.0,0.0,0.0,0.0,0.0,0.0,0.0,0.0,0.0,0.0,0.0,0.0,0.0,0.0,0.0,0.0,0.0,0.0,0.0,0.0,0.0,0.0,0.0,0.0,0.0,0.0,0.0,0.0,0.0,0.0,0.0,0.605,0.6398,0.6469,0.6284,0.5716,0.4868,0.3707,0.2832,0.2001,0.0,0.0,0.0,0.0,0.0,0.0,0.0,0.0,0.0,0.0,0.0,0.0,0.0,0.0,0.0,0.0,0.0,0.0,0.0,0.0,0.0,0.0,0.0,0.0,0.0,0.0,0.0,0.0,0.0,0.0,0.0,0.0,0.0,0.0,0.0,0.0,0.0,0.0,0.0,0.0,0.5136,0.5151,0.5434,0.0,0.0,0.0,0.0,0.0,0.0,0.4327,0.4075,0.0,0.0,0.0,0.0,0.0,0.0,0.0,0.0,0.0,0.0,0.0,0.0,0.0,0.0,0.0,0.0,0.0,0.0,0.0,0.0,0.0,0.0,0.0,0.0,0.0,0.0,0.0,0.0,0.0,0.0,0.0,0.0,0.0,0.0,0.0,0.0,0.0,0.0,0.0,0.0,0.0,0.0,0.0,0.0,0.0,0.0,0.0,0.0,0.0,0.0,0.0,0.0,0.0,0.0,0.0,0.6409,0.6716,0.6957,0.7041,0.618,0.559,0.5318,0.3815,0.277,0.0,0.0,0.0,0.0,0.0,0.0,0.0,0.0,0.0,0.0,0.0,0.0,0.0,0.0,0.0,0.0,0.0,0.0,0.0,0.0,0.0,0.0,0.0,0.0,0.0,0.0,0.0,0.0,0.0,0.0,0.0,0.0,0.0,0.0,0.0,0.0,0.0,0.0,0.0,0.0,0.0,0.569,0.6141,0.5742,0.0,0.0,0.0,0.0,0.5762,0.5392,0.0,0.0,0.0,0.0,0.0,0.0,0.0,0.0,0.0,0.0,0.0,0.0,0.0,0.0,0.0,0.0,0.0,0.0,0.0,0.0,0.0,0.0,0.0,0.0,0.0,0.0,0.0,0.0,0.0,0.0,0.0,0.0,0.0,0.0,0.0,0.0,0.0,0.0,0.0,0.0,0.0,0.0,0.0,0.0,0.0,0.0,0.0,0.0,0.0,0.0,0.0,0.0,0.0,0.0,0.0,0.0,0.6731,0.6857,0.6953,0.7082,0.6847,0.6211,0.5158,0.4689,0.3849,0.0,0.0,0.0,0.0,0.0,0.0,0.0,0.0,0.0,0.0,0.0,0.0,0.0,0.0,0.0,0.0,0.0,0.0,0.0,0.0,0.0,0.0,0.0,0.0,0.0,0.0,0.0,0.0,0.0,0.0,0.0,0.0,0.0,0.0,0.0,0.0,0.0,0.0,0.0,0.0,0.0,0.627,0.6489,0.6199,0.5811,0.0,0.0,0.5878,0.5803,0.5762,0.0,0.0,0.0,0.0,0.0,0.0,0.0,0.0,0.0,0.0,0.0,0.0,0.0,0.0,0.0,0.0,0.0,0.0,0.0,0.0,0.0,0.0,0.0,0.0,0.0,0.0,0.0,0.0,0.0,0.0,0.0,0.0,0.0,0.0,0.0,0.0,0.0,0.0,0.0,0.0,0.0,0.0,0.0,0.0,0.0,0.0,0.0,0.0,0.0,0.0,0.0,0.0,0.0,0.0,0.0,0.7794,0.8021,0.8022,0.8075,0.8097,0.7384,0.6743,0.6147,0.5477,0.4712,0.0,0.0,0.0,0.0,0.0,0.0,0.0,0.0,0.0,0.0,0.0,0.0,0.0,0.0,0.0,0.0,0.0,0.0,0.0,0.0,0.0,0.0,0.0,0.0,0.0,0.0,0.0,0.0,0.0,0.0,0.0,0.0,0.0,0.0,0.0,0.0,0.0,0.0,0.0,0.0,0.0,0.0,0.6995,0.6992,0.0,0.0,0.0,0.6162,0.6083,0.0,0.0,0.0,0.0,0.0,0.0,0.0,0.0,0.0,0.0,0.0,0.0,0.0,0.0,0.0,0.0,0.0,0.0,0.0,0.0,0.0,0.0,0.0,0.0,0.0,0.0,0.0,0.0,0.0,0.0,0.0,0.0,0.0,0.0,0.0,0.0,0.0,0.0,0.0,0.0,0.0,0.0,0.0,0.0,0.0,0.0,0.0,0.0,0.0,0.0,0.0,0.0,0.0,0.0,0.0,0.0,0.0,0.9193,0.9257,0.9323,0.9274,0.8056,0.74,0.7239,0.6188,0.0,0.0,0.0,0.0,0.0,0.0,0.0,0.0,0.0,0.0,0.0,0.0,0.0,0.0,0.0,0.0,0.0,0.0,0.0,0.0,0.0,0.0,0.0,0.0,0.0,0.0,0.0,0.3655,0.0,0.0,0.0,0.0,0.0,0.0,0.0,0.0,0.0,0.0,0.0,0.0,0.0,0.0,0.7974,0.7512,0.748,0.7211,0.0,0.0,0.6377,0.63,0.63,0.6287,0.0,0.0,0.0,0.0,0.0,0.0,0.0,0.0,0.0,0.0,0.0,0.0,0.0,0.0,0.0,0.0,0.0,0.0,0.0,0.0,0.0,0.0,0.0,0.0,0.0,0.0,0.0,0.0,0.0,0.0,0.0,0.0,0.0,0.0,0.0,0.0,0.0,0.0,0.0,0.0,0.0,0.0,0.0,0.0,0.0,0.0,0.0,0.0,0.0,0.0,0.0,0.0,0.0,0.0,0.9314,0.975,1.0238,1.0476,1.0466,0.9076,0.8308,0.8287,0.6651,0.5569,0.0,0.0,0.0,0.0,0.0,0.0,0.0,0.0,0.0,0.0,0.0,0.0,0.0,0.0,0.0,0.0,0.0,0.0,0.0,0.0,0.0,0.0,0.0,0.0,0.0,0.0,0.0,0.0,0.0,0.0,0.0,0.0,0.0,0.0,0.0,0.0,0.0,0.0,0.0,0.0,0.0,0.7622,0.7989,0.7246,0.6602,0.0,0.6451,0.6528,0.6338,0.63,0.6364,0.6544,0.0,0.0,0.0,0.0,0.0,0.0,0.0,0.0,0.0,0.0,0.0,0.0,0.0,0.0,0.0,0.0,0.0,0.0,0.0,0.0,0.0,0.0,0.0,0.0,0.0,0.0,0.0,0.0,0.0,0.0,0.0,0.0,0.0,0.0,0.0,0.0,0.0,0.0,0.0,0.0,0.0,0.0,0.0,0.0,0.0,0.0,0.0,0.0,0.0,0.0,0.0,0.0,0.0,1.0751,1.1211,1.1478,1.1566,1.138,1.0153,0.937,0.907,0.7602,0.6739,0.0,0.0,0.0,0.0,0.0,0.0,0.0,0.0,0.0,0.0,0.0,0.0,0.0,0.0,0.0,0.0,0.0,0.0,0.0,0.0,0.0,0.0,0.0,0.0,0.0,0.0,0.0,0.0,0.5136,0.5487,0.5902,0.0,0.0,0.0,0.0,0.0,0.0,0.0,0.0,0.0,0.0,0.9373,0.9225,0.9173,0.0,0.0,0.7399,0.7285,0.6863,0.6788,0.6969,0.7453,0.7488,0.0,0.0,0.0,0.0,0.0,0.0,0.0,0.0,0.0,0.0,0.0,0.0,0.0,0.0,0.0,0.0,0.0,0.0,0.0,0.0,0.0,0.0,0.0,0.0,0.0,0.0,0.0,0.0,0.0,0.0,0.0,0.0,0.0,0.0,0.0,0.0,0.0,0.0,0.0,0.0,0.0,0.0,0.0,0.0,0.0,0.0,0.0,0.0,0.0,0.0,0.0,0.0,1.1794,1.2305,1.2556,1.2601,1.2412,1.1144,1.0342,0.9977,0.8712,0.8004,0.0,0.0,0.0,0.0,0.0,0.0,0.0,0.0,0.0,0.0,0.0,0.0,0.0,0.0,0.0,0.0,0.0,0.0,0.0,0.0,0.0,0.0,0.0,0.0,0.0,0.0,0.0,0.0,0.5839,0.6082,0.6499,0.0,0.0,0.0,0.0,0.0,0.0,0.0,0.0,0.0,0.0,1.042,1.0135,1.0228,0.9856,0.8492,0.8321,0.8132,0.7589,0.7549,0.7822,0.8474,0.0,0.0,0.0,0.0,0.0,0.0,0.0,0.0,0.0,0.0,0.0,0.0,0.0,0.0,0.0,0.0,0.0,0.0,0.0,0.0,0.0,0.0,0.0,0.0,0.0,0.0,0.0,1.1895,0.0,0.0,1.2313,0.0,0.0,0.0,0.0,0.0,0.0,0.0,0.0,0.0,0.0,0.0,0.0,0.0,0.0,0.0,0.0,0.0,0.0,0.0,0.0,0.0,0.0,1.2228,1.2783,1.3365,1.3613,1.3546,1.2037,1.1218,1.115,0.9948,0.9185,0.9046,0.0,0.0,0.0,0.0,0.0,0.0,0.0,0.0,0.0,0.0,0.0,0.0,0.0,0.0,0.0,0.0,0.0,0.0,0.0,0.0,0.0,0.0,0.0,0.0,0.0,0.0,0.6357,0.6428,0.6546,0.0,0.0,0.0,0.0,0.0,0.0,0.0,0.0,0.0,1.0748,1.0426,1.0199,1.0493,0.9852,0.9377,0.9051,0.9089,0.8932,0.8467,0.8541,0.8888,0.0,0.0,0.0,0.0,0.0,0.0,0.0,0.0,0.0,0.0,0.0,0.0,0.0,0.0,0.0,0.0,0.0,0.0,0.0,0.0,0.0,0.0,0.0,0.0,0.0,0.0,0.0,1.3578,1.5361,0.0,0.0,0.0,0.0,0.0,0.0,0.0,0.0,0.0,0.0,0.0,1.662,1.641,0.0,0.0,0.0,0.0,0.0,0.0,0.0,0.0,0.0,0.0,0.0,0.0,1.3952,1.4599,1.5559,1.5637,1.4743,1.4002,1.3144,1.228,1.1006,0.9965,0.9278,0.0,0.0,0.0,0.0,0.0,0.0,0.0,0.0,0.0,0.0,0.0,0.0,0.0,0.0,0.0,0.0,0.0,0.0,0.0,0.0,0.0,0.0,0.0,0.0,0.0,0.7143,0.0,0.0,0.0,0.0,0.0,0.0,0.0,0.0,0.0,0.0,1.0144,1.07,1.1285,1.1194,1.1238,1.1625,1.1477,1.1143,0.0,0.0,0.0,0.0,0.0,0.0,0.0,0.0,0.0,0.0,0.0,0.0,0.0,0.0,1.1151,1.0413,1.0454,1.0639,1.0645,0.0,0.0,0.0,0.0,0.0,0.0,0.0,0.0,0.0,0.0,0.0,0.0,0.0,0.0,1.5848,1.7757,1.7506,0.0,0.0,0.0,0.0,0.0,0.0,0.0,0.0,1.8145,1.8379,1.8338,1.8093,1.7781,1.7392,1.7007,1.5638,0.0,0.0,0.0,0.0,0.0,0.0,0.0,0.0,1.5033,1.579,1.6696,1.6741,1.5873,1.5389,1.4744,1.3855,1.253,1.1363,1.0373,1.0263,0.9883,0.0,0.0,0.0,0.0,0.0,0.0,0.0,0.0,0.0,0.0,0.0,0.0,0.0,0.0,0.0,0.0,0.0,0.0,0.0,0.0,0.0,0.0,0.0,0.8318,0.0,0.0,0.0,0.0,0.0,0.0,0.0,0.0,0.0,1.0187,1.0744,1.1307,1.1666,1.1906,1.2134,1.2432,0.0,0.0,0.0,0.0,0.0,0.0,0.0,1.1488,1.1649,1.2132,1.2537,1.2711,1.2795,1.2816,1.2816,0.0,0.0,1.164,1.1633,1.1751,1.1751,1.1757,1.1789,1.1859,1.1936,1.2069,0.0,0.0,0.0,0.0,1.4246,0.0,0.0,0.0,1.7125,1.788,0.0,1.8582,0.0,0.0,0.0,0.0,1.8517,1.8658,0.0,0.0,1.9955,2.0265,1.9744,1.9725,1.9512,1.9105,1.811,1.7605,1.7482,1.619,0.0,0.0,0.0,0.0,0.0,0.0,1.546,1.6418,1.6873,1.7024,1.6944,1.623,1.5855,1.5703,1.4449,1.3302,1.2432,1.1837,1.1391,1.1106,1.0168,0.0,0.0,0.0,0.0,0.0,0.0,0.0,0.0,0.0,0.0,0.0,0.0,0.0,0.0,0.0,0.0,0.0,0.0,0.0,0.0,1.005,0.0,0.0,0.0,0.0,0.0,0.0,0.0,0.0,0.0,1.0963,1.079,1.1253,1.1706,1.1911,0.0,0.0,0.0,0.0,1.2947,1.3022,1.2814,1.2649,1.2442,1.2579,1.2785,1.2937,0.0,0.0,1.3572,1.3387,1.326,1.3207,1.344,1.3404,1.2755,1.263,1.2637,1.2676,1.2676,1.2637,1.2683,1.2815,1.2961,1.7426,0.0,0.0,0.0,0.0,1.5595,1.6599,1.8296,1.8064,1.894,2.0586,2.0291,0.0,0.0,0.0,0.0,0.0,0.0,1.9591,1.9756,2.0161,2.0329,2.0352,2.0352,2.0284,2.0147,1.9885,1.9712,1.9692,1.9306,1.7912,1.5585,0.0,0.0,0.0,0.0,1.7658,1.8499,1.919,1.8992,1.7928,1.7519,1.6659,1.5408,1.4971,1.4629,1.4371,1.4213,1.3933,1.3523,1.2376,0.0,0.0,0.0,0.0,0.0,0.0,0.0,0.0,0.0,0.0,0.0,0.0,0.0,0.0,0.0,0.0,0.0,0.0,0.0,1.0474,1.0657,1.0533,0.0,0.0,0.0,0.0,0.0,0.0,0.0,0.0,0.0,1.1826,1.1998,1.2221,0.0,0.0,1.2864,1.3046,1.3114,1.3194,1.3397,1.3272,0.0,1.3026,1.3233,1.3381,1.3222,1.3566,1.3913,1.3955,1.3888,1.3834,1.3828,1.3908,1.3893,1.3736,1.3668,1.3662,1.3668,1.3668,1.3668,1.3675,1.3869,1.405,2.0169,1.9191,1.8168,1.8088,1.8559,1.8451,1.9032,2.0044,1.9859,2.0558,2.1842,2.1482,2.1734,2.2411,2.1523,0.0,0.0,0.0,2.0718,2.0923,2.1325,2.1394,2.1183,2.1155,2.1155,2.1145,2.0974,2.1202,2.1735,2.1569,2.0452,1.8357,0.0,1.7533,1.7347,1.8132,1.891,1.9591,2.0061,1.986,1.8946,1.8434,1.7415,1.5824,1.5763,1.5587,1.5199,1.5199,1.5056,1.4772,1.4002,1.3361,0.0,0.0,0.0,0.0,0.0,0.0,0.0,0.0,0.0,0.0,0.0,0.8908,0.8977,0.0,0.0,0.0,1.0643,1.1155,1.1235,1.1362,0.0,0.0,0.0,0.0,0.0,0.0,0.0,1.1095,1.1678,1.2187,1.2438,1.2585,1.2726,1.2945,1.3065,1.3173,1.336,0.0,1.3621,1.3794,1.369,1.3607,1.3614,1.3752,1.3805,1.364,1.3878,1.4082,1.4088,1.4088,1.4088,1.4088,1.4088,1.4088,1.4088,1.4088,1.4088,1.4088,1.4088,1.4088,1.4088,1.4322,1.4596,2.3075,2.3394,2.1103,2.0829,2.1918,2.2205,2.2213,2.213,2.2103,2.244,2.2888,2.2366,2.3147,2.4791,2.3257,0.0,2.275,2.2233,2.2034,2.2178,2.3073,2.3036,2.2151,2.2113,2.2103,2.213,2.1755,2.2207,2.3408,2.3113,2.246,2.1507,2.0102,1.9124,1.8602,1.8986,1.943,1.9961,1.9971,1.9932,1.9863,1.9026,1.7989,1.6749,1.6715,1.6324,1.5482,1.5411,1.5411,1.5403,1.523,1.4976,1.4674,0.0,0.0,0.0,0.0,0.0,0.0,0.0,0.0,0.0,0.0,0.0,0.0,0.0,0.0,1.1135,1.1681,0.0,1.2245,1.2031,0.0,0.0,0.0,1.143,1.143,1.1409,1.1577,1.1906,0.0,0.0,1.2817,1.3066,1.3253,1.328,1.3447,1.3613,1.3633,1.3901,1.4088,1.4068,1.4082,1.4082,1.4055,1.4075,1.4082,1.4062,1.4088,1.4088,1.4095,1.4128,1.4122,1.4088,1.4108,1.4115,1.4095,1.4088,1.4137,1.4382,1.4235,1.413,1.4353,1.462,1.5186,2.3813,2.4601,2.4003,2.3499,2.3084,2.3178,2.3156,2.3147,2.3147,2.3209,2.3331,2.322,2.3404,2.3843,2.3439,2.3267,2.3294,2.3183,2.3121,2.3136,2.3404,2.3356,2.3147,2.3147,2.3147,2.3136,2.3073,2.3183,2.3478,2.3402,2.3102,2.2624,2.2258,2.1318,1.9841,1.9893,2.0169,2.0661,2.0661,2.0259,1.9443,1.8916,1.8298,1.7691,1.7681,1.7579,1.7339,1.7329,1.7339,1.7329,1.6624,1.6251,1.6313,1.4769,0.0,0.0,0.0,0.0,0.0,0.0,0.0,0.0,0.0,1.1381,1.1851,0.0,1.2684,0.0,1.2699,1.2464,1.2056,1.1946,0.0,0.0,1.1603,1.143,1.143,1.163,1.1913,1.2164,1.2496,1.2878,1.3367,1.3453,1.3621,1.3841,1.3734,1.3686,1.3941,1.4035,1.4088,1.4088,1.4088,1.4088,1.4088,1.4088,1.4095,1.4088,1.4088,1.4088,1.4088,1.4275,1.4355,1.4155,1.4275,1.4315,1.422,1.4088,1.474,1.59,1.5184,1.4445,1.5524,1.6037,1.6682,2.4919,2.5652,2.5664,2.5358,2.4826,2.4838,2.4588,2.4145,2.4145,2.4156,2.4192,2.4624,2.4838,2.4803,2.4373,2.4192,2.4156,2.4156,2.4156,2.4192,2.4624,2.4588,2.4181,2.4192,2.4145,2.4192,2.4145,2.4409,2.4803,2.4826,2.4516,2.3913,2.3877,2.3172,2.1856,2.1393,2.1312,2.1568,2.1319,2.0679,1.9672,1.9182,1.8678,1.8144,1.8212,1.8279,1.8337,1.8438,1.8472,1.8472,1.7901,1.7625,1.7693,1.6084,1.4953,0.0,0.0,0.0,0.0,0.0,0.0,0.0,0.0,0.0,0.0,0.0,1.438,1.4523,1.4157,1.3778,1.3413,1.3362,1.3184,1.2734,1.2537,1.2262,1.1852,1.1957,1.2135,1.2296,1.2714,1.3126,1.3492,1.3713,1.3901,1.4062,1.3941,1.3895,1.4048,1.4088,1.4088,1.4088,1.4088,1.4088,1.4088,1.4251,1.4331,1.4338,1.4841,1.5312,1.5312,1.5871,1.6268,1.6162,1.6215,1.6131,1.5604,1.6035,1.6731,1.7031,1.6656,1.6321,1.7095,1.7826,1.8619,2.6034,2.6487,2.6487,2.6487,2.6487,2.6487,2.599,2.5194,2.5194,2.5194,2.5229,2.6129,2.6487,2.6452,2.5594,2.5182,2.5194,2.5194,2.5182,2.5264,2.6094,2.6025,2.5194,2.5182,2.5194,2.5194,2.5182,2.5664,2.6487,2.6487,2.6062,2.5254,2.523,2.4849,2.4102,2.329,2.2757,2.2531,2.1984,2.1266,2.0326,1.9811,1.9202,1.8516,1.8573,1.8717,1.8908,1.9065,1.9175,1.9175,1.9019,1.8875,1.8754,1.7256,1.6293,0.0,1.4868,0.0,0.0,0.0,0.0,0.0,0.0,0.0,0.0,1.5162,1.5699,1.6052,1.5603,1.5234,1.5199,1.5199,1.4807,1.3854,1.3709,1.3346,1.2445,1.2305,1.2307,1.2369,1.287,1.3287,1.3585,1.3886,1.4082,1.4088,1.4075,1.4068,1.4088,1.4088,1.4088,1.4088,1.4088,1.4166,1.4397,1.4672,1.4979,1.5087,1.6089,1.7011,1.6988,1.7869,1.8594,1.8493,1.8432,1.8235,1.7454,1.8327,1.914,1.9262,1.8746,1.8348,1.8896,1.9536,2.0368,2.6399,2.6487,2.6487,2.6487,2.6487,2.6487,2.6383,2.6198,2.6211,2.6198,2.6233,2.643,2.6487,2.6487,2.6314,2.6211,2.6233,2.6198,2.6198,2.6233,2.6418,2.6383,2.6233,2.6211,2.6198,2.6198,2.6211,2.6314,2.6487,2.6487,2.6482,2.6394,2.637,2.613,2.5683,0.0,0.0,0.0,2.3018,2.2355,2.1381,2.1077,2.0428,1.9405,1.9374,0.0,1.944,1.9483,1.9517,1.9506,1.9473,0.0,0.0,0.0,0.0,0.0,0.0,0.0,0.0,0.0,0.0,0.0,1.6423,1.6356,1.5957,1.623,1.6289,1.6035,1.5737,1.549,1.5226,1.5199,1.4807,1.3846,1.3716,1.3346,1.2452,1.2311,1.2423,1.2752,1.3002,1.3414,1.3908,1.4055,1.4088,1.4088,1.4088,1.4088,1.413,1.413,1.4088,1.4088,1.4166,1.4454,1.5262,1.5749,1.632,1.712,1.7792,1.8235,1.8335,1.8731,1.8956,1.8825,1.8837,1.8937,1.8456,1.8862,2.0456,2.3555,2.1699,1.9815,2.074,2.0881,2.1203,2.7471,2.7095,2.7095,2.6837,0.0,2.6487,2.6487,2.6487,2.6487,2.6487,2.6487,2.6487,2.6487,2.6487,2.6487,2.6487,2.6487,2.6487,2.6487,2.6487,2.6487,2.6487,2.6487,2.6487,2.6487,2.6487,2.6487,2.6637,2.6889,2.6901,2.7085,2.7381,2.7394,2.7285,2.709,2.709,2.6311,2.4719,2.4307,2.3746,2.2949,2.2332,2.1542,2.0665,2.0455,0.0,0.0,0.0,0.0,0.0,0.0,0.0,0.0,1.9105,0.0,1.8426,1.7142,1.6661,1.7255,1.6982,1.6904,1.7226,1.7416,1.7494,1.7364,1.7492,1.7619,1.7654,1.753,1.7387,1.7243,1.7198,1.6838,1.5891,1.525,1.459,1.3667,1.3044,1.2706,1.2649,1.3106,1.3601,1.4028,1.4088,1.4088,1.413,1.4573,1.4894,1.481,1.4412,1.425,1.4776,1.4894,1.5362,1.6562,1.7096,1.7568,1.839,1.9314,1.9878,1.9913,2.0571,2.1038,2.0866,2.1137,2.13,2.0979,2.1545,2.2906,2.4897,2.4132,2.2859,2.3213,2.2953,2.286,2.8588,2.792,2.792,2.7537,2.6952,2.6782,2.6611,2.6487,2.6487,0.0,0.0,2.6487,2.6487,2.6487,2.6487,2.6487,2.6487,2.6487,2.6487,2.6487,2.6487,2.6487,2.6487,2.6487,2.6487,2.6499,2.66,2.6864,2.7316,2.7381,2.7708,2.8197,2.8211,2.8211,2.8235,2.8059,2.7413,2.6323,2.5721,2.511,2.4434,2.3445,2.2595,2.1968,2.1516,2.1356,2.1526,2.1639,2.169,2.169,2.1608,2.1482,2.1376,2.0083,1.961,2.0118,1.8469,1.7849,1.885,1.8334,1.8025,1.8216,1.8236,1.8257,1.835,1.843,1.8666,1.9131,1.918,1.9199,1.9277,1.9277,1.8912,1.8008,1.7076,1.613,1.5289,1.4477,1.3786,1.3248,1.3974,1.4607,1.5247,1.5099,1.4783,1.4902,1.5548,1.5985,1.5869,1.5345,1.5144,1.5827,1.5992,1.6497,1.7772,1.8473,1.8895,1.9609,2.0765,2.156,2.1756,2.2448,2.3076,2.2993,2.352,2.3522,2.3448,2.4042,2.521,2.5632,2.5681,2.5586,2.5264,2.4912,2.4563,2.8925,2.8812,2.8812,2.8748,2.8588,2.7855,2.7129,2.6487,2.6487,2.6487,2.6487,2.6487,2.6487,2.6487,2.6487,2.6487,2.6487,2.6487,2.6487,2.6487,2.6487,2.6487,2.6487,2.6487,2.6487,2.6524,2.6977,2.7205,2.7318,2.7758,2.8273,2.875,2.8775,2.8812,2.87,2.7883,2.7521,2.7749,2.7069,2.6183,2.4995,2.4241,2.3498,2.2835,2.2336,2.2061,2.2092,2.2123,2.2123,2.2111,2.2123,2.1894,2.142,2.1149,2.0882,2.0585,2.0231,2.0135,2.0275,2.0201,1.9846,1.9199,1.911,1.8818,1.813,1.8071,1.8237,1.8646,1.8744,1.8887,1.9219,1.9307,1.9016,1.8128,1.7794,1.7412,1.6871,1.6607,1.6309,1.5955,1.6862,1.7903,1.8582,1.7976,1.7261,1.7338,1.7105,1.709,1.7131,1.6968,1.6887,1.705,1.709,1.7602,1.8765,1.9504,2.0256,2.1341,2.2165,2.2677,2.2721,2.2906,2.3208,2.3603,2.374,2.3881,2.4108,2.466,2.523,2.5635,2.572,2.5684,2.5596,2.546,2.5226,2.9773,2.9678,2.9306,2.9103,2.8971,2.8556,2.8214,2.7868,2.7855,2.7584,2.7229,2.7637,2.7868,2.7868,2.7855,2.7868,2.7855,2.7855,2.7855,2.7835,2.7397,2.7162,2.7162,2.7175,2.7058,2.7009,2.763,2.803,2.8184,2.8436,2.9074,3.0081,3.0144,3.0015,2.9682,2.8985,2.8461,2.8097,2.7197,2.6726,2.6719,2.5521,2.4851,2.4888,2.4057,2.3478,2.3195,2.3195,2.3016,2.2696,2.2696,2.2549,2.2322,2.192,2.1753,2.1896,2.1101,2.0814,2.127,2.0878,2.043,2.0009,1.9562,1.9144,1.8754,1.8478,1.85,1.8955,1.9153,1.9404,1.9609,1.9844,1.9916,1.9734,1.9171,1.8815,1.8702,1.8216,1.8062,1.8355,1.8431,1.8863,1.9945,1.9067,1.8254,1.8079,1.8065,1.8399,1.8966,1.9076,1.8829,1.839,1.8238,1.8923,2.0236,2.0847,2.1511,2.2418,2.2838,2.3071,2.3101,2.3101,2.3188,2.3428,2.3779,2.416,2.4424,2.498,2.5399,2.5584,2.5702,2.5674,2.5684,2.5684,2.545,3.0229,3.0104,2.9711,2.9455,2.9303,2.93,2.9192,2.9034,2.9192,2.8907,2.8395,2.8812,2.8989,2.8989,2.8989,2.8989,2.8989,2.8989,2.8989,2.8939,2.8465,2.8219,2.8232,2.8372,2.8322,2.8239,2.8897,2.9355,2.9555,2.9674,3.0316,3.1422,3.1536,3.1213,3.0596,3.016,2.9441,2.8461,2.7394,2.7243,2.8009,2.6578,2.6047,2.6373,2.5385,2.4587,2.4217,2.4192,2.3979,2.3521,2.3484,2.3484,2.3453,2.2873,2.2762,2.3126,2.2075,2.1666,2.2267,2.1878,2.1323,2.0802,2.0227,1.9653,1.9073,1.8859,1.8867,1.9131,1.9385,1.9648,1.9873,2.0176,2.0635,2.1063,2.0507,2.0208,2.0536,1.9967,1.9798,2.051,2.0059,1.999,2.0415,2.0023,1.9443,1.9202,1.9264,1.9837,2.0556,2.0713,2.0331,1.9724,1.9436,2.0058,2.1615,2.1941,2.2243,2.2886,2.3033,2.3081,2.311,2.3159,2.3325,2.35,2.4082,2.457,2.4746,2.5225,2.5644,2.5703,2.5723,2.5684,2.5684,2.5684,2.5596,2.9687,2.9737,3.0129,3.0308,3.0179,3.0192,2.978,2.9205,2.9827,3.0133,3.0009,2.9317,2.9066,2.8989,2.9052,2.9097,2.9097,2.8989,2.9066,2.9149,2.9569,2.9785,2.984,3.0389,3.066,3.0649,3.1158,3.1392,3.1416,3.193,3.2288,3.2451,3.2464,3.2042,3.1209,3.0655,3.0127,2.9642,2.8524,2.7996,2.8034,2.7002,2.6449,2.6474,2.541,2.4763,2.4713,2.4713,2.4687,2.4637,2.46,2.4625,2.4612,2.4548,2.4323,2.3966,2.3748,2.3748,2.3817,2.4202,2.347,2.1606,2.1599,2.0766,1.8656,1.8901,1.9098,1.8893,1.8769,1.9153,1.9795,1.998,2.0391,2.1093,2.1099,2.138,2.1993,2.2186,2.2298,2.2737,2.2442,2.2712,2.2529,2.2102,2.1792,2.1224,2.0897,2.0882,2.1092,2.1162,2.1084,2.0663,2.075,2.1146,2.1826,2.2217,2.2432,2.2617,2.2867,2.3071,2.3188,2.3452,2.3818,2.3997,2.459,2.5029,2.5294,2.5664,2.5654,2.5684,2.5684,2.5684,2.5684,2.5684,2.5625,2.9262,2.9621,2.9849,3.0383,3.0999,3.1427,3.1174,3.0598,3.1277,3.1589,3.15,3.0819,3.0464,3.0494,3.048,3.0494,3.0494,3.048,3.0697,3.1,3.0842,3.092,3.1304,3.1578,3.1613,3.1575,3.2227,3.2455,3.243,3.3045,3.3415,3.3429,3.3415,3.3241,3.2827,3.2088,3.1359,3.0632,3.0191,2.9521,2.8573,2.7519,2.714,2.7293,2.6377,2.5624,2.531,2.5272,2.5134,2.4858,2.48,2.48,2.48,2.48,2.4687,2.4506,2.4481,2.4481,2.4462,2.4675,2.4417,2.3433,2.306,2.233,2.1386,2.1159,2.072,1.9991,1.9555,1.9524,1.9883,2.0146,2.0557,2.1093,2.1455,2.1855,2.2432,2.2691,2.2916,2.3081,2.3101,2.3101,2.3042,2.273,2.2471,2.2227,2.1885,2.1631,2.1621,2.1621,2.166,2.1728,2.1885,2.1904,2.1973,2.2012,2.2344,2.2721,2.2974,2.313,2.3486,2.3633,2.3926,2.4355,2.4814,2.5117,2.51,2.5528,2.5684,2.5684,2.5684,2.5684,2.5684,2.5684,2.5606,2.8981,2.9579,2.9953,3.0881,3.2064,3.2572,3.2482,3.2123,3.2557,3.2781,3.2736,3.2273,3.2034,3.2019,3.1869,3.178,3.1795,3.1959,3.2288,3.2721,3.2292,3.2349,3.2818,3.3036,3.3017,3.2944,3.346,3.3624,3.347,3.4041,3.4428,3.4428,3.4394,3.4279,3.3945,3.3276,3.2536,3.1633,3.1352,3.0682,2.9604,2.8238,2.7632,2.777,2.7002,2.6285,2.5862,2.5858,2.5674,2.5297,2.5272,2.5272,2.5272,2.5272,2.5209,2.5059,2.5001,2.5034,2.5021,2.5172,2.5098,2.4674,2.415,2.3676,2.3206,2.2788,2.2208,2.1474,2.0806,2.0406,1.9961,2.0195,2.0615,2.1122,2.1631,2.2051,2.2461,2.2838,2.3081,2.3101,2.3101,2.3101,2.3062,2.2847,2.2652,2.2604,2.2324,2.2051,2.2051,2.206,2.2129,2.2324,2.2402,2.2441,2.2256,2.2324,2.2578,2.2799,2.3101,2.3247,2.3711,2.3838,2.4111,2.4648,2.499,2.5244,2.5343,2.5577,2.5684,2.5684,2.5684,2.5684,2.5684,2.5684,2.5605,2.8981,2.9774,3.0883,3.2153,3.3395,3.344,3.3455,3.3366,3.3471,3.3485,3.3562,3.3411,3.341,3.3381,3.2811,3.2452,3.2542,3.3051,3.3335,3.3499,3.3961,3.4336,3.4455,3.5021,3.5287,3.4999,3.508,3.5219,3.5246,3.5344,3.5424,3.5392,3.5344,3.4905,3.4211,3.3993,3.3498,3.2571,3.1829,3.1292,3.1151,2.9207,2.7904,2.745,2.6801,2.6461,2.6424,2.6436,2.6411,2.6399,2.6348,2.6373,2.6386,2.6373,2.6109,2.5636,2.5561,2.5561,2.5636,2.6047,2.585,2.4727,2.4796,2.4249,2.304,2.3301,2.3374,2.2855,2.2293,2.1497,2.0236,2.0087,2.0371,2.1054,2.1611,2.2041,2.2422,2.2799,2.3062,2.3071,2.3071,2.3091,2.3101,2.3081,2.3023,2.2955,2.2682,2.248,2.249,2.248,2.2373,2.2217,2.2353,2.2604,2.2925,2.2783,2.2847,2.311,2.3179,2.3296,2.3721,2.4111,2.4531,2.4941,2.5322,2.5576,2.5625,2.5664,2.5674,2.5684,2.5684,2.5684,2.5684,2.5684,2.5605,3.0118,3.148,3.1944,3.2647,3.3499,3.3933,3.4181,3.4283,3.4681,3.5147,3.5377,3.4671,3.4497,3.4789,3.4105,3.3529,3.3185,3.3395,3.3709,3.4129,3.4414,3.4743,3.5145,3.54,3.5489,3.5489,3.5489,3.5489,3.5489,3.5489,3.5489,3.5489,3.5489,3.5294,3.5019,3.4953,3.4476,3.3553,3.3122,3.2584,3.173,3.0464,2.9313,2.8222,2.7074,2.6487,2.6487,2.6487,2.6487,2.6487,2.6487,2.6487,2.6487,2.6487,2.6411,2.621,2.6185,2.6185,2.621,2.6373,2.6308,2.5834,2.5854,2.5669,2.5178,2.5199,2.5086,2.4401,2.409,2.3146,2.1597,2.0733,2.0449,2.0801,2.1445,2.1816,2.1914,2.2477,2.2994,2.2852,2.2906,2.3091,2.3091,2.3101,2.3101,2.3081,2.2955,2.291,2.2867,2.2867,2.2769,2.2701,2.2779,2.3023,2.3496,2.3008,2.276,2.3081,2.335,2.374,2.4121,2.4502,2.4912,2.5264,2.5654,2.5654,2.5674,2.5674,2.5684,2.5684,2.5684,2.5693,2.5684,2.5713,2.5605,3.1998,3.3107,3.369,3.4134,3.4577,3.5248,3.5626,3.5739,3.6146,3.6465,3.6545,3.598,3.5679,3.5554,3.5276,3.4798,3.4204,3.4158,3.4382,3.4818,3.4848,3.5055,3.5429,3.5489,3.5489,3.5489,3.5489,3.5489,3.5489,3.5489,3.5489,3.5489,3.5489,3.5489,3.5489,3.5489,3.5133,3.4543,3.4177,3.3421,3.2335,3.1322,3.0178,2.8839,2.7559,2.676,2.6521,2.6487,2.6487,2.6487,2.6487,2.6487,2.6487,2.6487,2.6487,2.6487,2.6487,2.6487,2.6487,2.6487,2.6487,2.6487,2.6487,2.6487,2.6487,2.6487,2.6129,2.5616,2.5111,2.4301,2.322,2.2103,2.1308,2.0868,2.123,2.1553,2.1298,2.2077,2.2535,2.2607,2.2744,2.2906,2.3071,2.3091,2.3101,2.3101,2.3101,2.3101,2.3101,2.3101,2.3101,2.311,2.3208,2.3428,2.3721,2.3516,2.3437,2.3711,2.3779,2.4141,2.4473,2.4863,2.5205,2.5576,2.5684,2.5684,2.5684,2.5684,2.5684,2.5684,2.5703,2.5723,2.5742,2.582,2.5742,3.4593,3.4778,3.6149,3.6521,3.655,3.7182,3.7687,3.7662,3.7726,3.7417,3.7178,3.7417,3.6927,3.604,3.6322,3.6167,3.5648,3.5539,3.5471,3.5432,3.5415,3.5429,3.5489,3.5489,3.5489,3.5489,3.5489,3.5489,3.5489,3.5489,3.5489,3.5489,3.5489,3.5489,3.5489,3.5489,3.5457,3.5231,3.4543,3.3897,3.3354,3.1878,3.0484,2.9187,2.8222,2.7364,2.6589,2.6521,2.6487,2.6487,2.6487,2.6487,2.6487,2.6487,2.6487,2.6487,2.6487,2.6487,2.6487,2.6487,2.6487,2.6487,2.6487,2.6487,2.6487,2.6487,2.6452,2.6233,2.5629,2.4969,2.4707,2.3927,2.2713,2.1089,2.1411,2.161,2.152,2.1683,2.206,2.2402,2.2568,2.2715,2.2964,2.3101,2.3101,2.3101,2.3101,2.313,2.3188,2.3208,2.314,2.3247,2.3555,2.3857,2.3994,2.4121,2.4287,2.4434,2.4404,2.4541,2.4795,2.5174,2.5352,2.5615,2.5674,2.5684,2.5684,2.5684,2.5684,2.5693,2.5723,2.581,2.5986,2.6055,2.6045,3.6382,3.679,3.7288,3.7467,3.744,3.7706,3.8064,3.8525,3.8553,3.8718,3.8924,3.869,3.8258,3.7847,3.7587,3.7294,3.7086,3.7041,3.6508,3.5668,3.5522,3.5489,3.5489,3.5489,3.5489,3.5489,3.5489,3.5489,3.5489,3.5489,3.5489,3.5489,3.5489,3.5489,3.5489,3.5489,3.5489,3.5457,3.5213,3.48,3.4203,3.3181,3.1959,3.0572,2.9287,2.8214,2.7397,2.6782,2.6521,2.6487,2.6487,2.6487,2.6487,2.6487,2.6487,2.6487,2.6487,2.6487,2.6487,2.6487,2.6487,2.6487,2.6487,2.6487,2.6487,2.6487,2.6487,2.6487,2.6164,2.5816,2.5123,2.4755,2.3963,2.275,2.2993,2.3007,2.2662,2.2533,2.2473,2.248,2.251,2.2662,2.3018,2.3178,2.3261,2.3218,2.3184,2.3218,2.3516,2.3594,2.374,2.3965,2.417,2.4297,2.4473,2.4658,2.4853,2.4941,2.4932,2.4883,2.5117,2.5303,2.5527,2.5596,2.5654,2.5684,2.5684,2.5684,2.5684,2.5684,2.5703,2.5947,2.623,2.624,2.6094,3.7009,3.7441,3.8008,3.823,3.8274,3.8513,3.8897,3.9315,3.9342,3.9447,3.9542,3.9463,3.9005,3.8553,3.8274,3.8064,3.7851,3.7822,3.7294,3.6414,3.5975,3.5782,3.5554,3.5489,3.534,3.5145,3.5115,3.525,3.5489,3.5265,3.525,3.5459,3.5489,3.5489,3.5489,3.5489,3.5489,3.5474,3.525,3.4801,3.4128,3.3469,3.2404,3.0966,2.995,2.8921,2.7835,2.7484,2.7129,2.6624,2.6487,2.6487,2.6487,2.6487,2.6487,2.6487,2.6487,2.6487,2.6487,2.6487,2.6487,2.6487,2.6487,2.6487,2.6487,2.6487,2.6487,2.6487,2.6452,2.6245,2.5699,2.5558,2.5252,2.4696,2.4104,2.3865,2.3505,2.3224,2.3101,2.3151,2.3381,2.3587,2.3916,2.3975,2.3978,2.3931,2.3728,2.3617,2.3945,2.4014,2.4219,2.4414,2.4551,2.4727,2.5028,2.5195,2.541,2.5439,2.5382,2.5371,2.542,2.5527,2.5645,2.5645,2.5684,2.5684,2.5684,2.5684,2.5684,2.5684,2.5703,2.5967,2.6162,2.5996,2.5908,3.6949,3.7026,3.843,3.9016,3.9053,3.9662,3.9969,4.0045,4.0045,3.9662,3.9315,3.9714,3.9332,3.8402,3.8745,3.8679,3.808,3.8121,3.8035,3.7571,3.6961,3.6214,3.5735,3.5587,3.525,3.4801,3.4728,3.4906,3.5295,3.4966,3.4863,3.5325,3.5429,3.5489,3.5489,3.5489,3.5489,3.5415,3.4861,3.4249,3.3574,3.2871,3.1916,3.0551,3.0297,2.9535,2.8427,2.8363,2.7986,2.6816,2.6645,2.6658,2.6521,2.6487,2.6487,2.6487,2.6487,2.6487,2.6487,2.6487,2.6487,2.6487,2.6487,2.6487,2.6487,2.6487,2.6487,2.6487,2.6487,2.6452,2.6383,2.6349,2.6327,2.6283,2.5064,2.4093,2.3728,2.37,2.3928,2.4287,2.4736,2.5206,2.5518,2.553,2.5494,2.5464,2.5011,2.4695,2.469,2.4776,2.4519,2.4678,2.498,2.5098,2.5322,2.541,2.5596,2.5596,2.5577,2.5605,2.5596,2.5625,2.5684,2.5684,2.5684,2.5684,2.5684,2.5684,2.5684,2.5684,2.5771,2.5986,2.6074,2.6055,2.6035,3.8906,3.853,3.9429,3.9784,3.9791,4.0045,4.0113,4.0113,4.0113,3.9969,3.985,3.9995,3.9876,3.9532,3.9636,3.9679,3.9454,3.9428,3.9102,3.8455,3.7299,3.666,3.6229,3.575,3.5385,3.516,3.5026,3.507,3.4801,3.4966,3.5011,3.4786,3.5295,3.5489,3.5489,3.5489,3.5489,3.5415,3.4831,3.4189,3.3499,3.2796,3.2065,3.1264,3.0628,3.0147,2.9473,2.8556,2.7934,2.7484,2.7384,2.7108,2.6568,2.6487,2.6487,2.6487,2.6487,2.6487,2.6487,2.6487,2.6487,2.6487,2.6487,2.6487,2.6487,2.6487,2.6487,2.6487,2.6487,2.6499,2.6499,2.6537,2.6688,2.6907,2.6158,2.5504,2.5275,2.5187,2.5268,2.5407,2.5566,2.6068,2.6584,2.6861,2.6929,2.7031,2.6509,2.5838,2.5854,2.5278,2.4932,2.5216,2.5469,2.5537,2.5605,2.5615,2.5664,2.5654,2.5654,2.5645,2.5635,2.5664,2.5684,2.5684,2.5684,2.5684,2.5684,2.5684,2.5684,2.5684,2.6006,2.623,2.6465,2.6543,2.6445,3.8657,3.8616,3.9351,3.9825,4.0079,4.0113,4.0113,4.0113,4.0113,4.0113,4.0113,4.0113,4.0113,4.0113,4.0096,4.0096,4.0113,4.0113,3.9808,3.9249,3.7913,3.6558,3.5631,3.5245,3.522,3.4666,3.4681,3.4592,3.4503,3.4651,3.4711,3.5011,3.5295,3.5489,3.5489,3.5489,3.5489,3.5325,3.4607,3.3858,3.3469,3.2527,3.1959,3.1482,3.1029,3.0807,3.0584,2.916,2.8117,2.7723,2.7384,2.6973,2.6589,2.6487,2.6487,2.6487,2.6487,2.6487,2.6487,2.6487,2.6487,2.6487,2.6487,2.6487,2.6487,2.6487,2.6487,2.6487,2.6487,2.66,2.6839,2.704,2.7329,2.7532,2.7331,2.7055,2.6785,2.6773,2.677,2.6821,2.6983,2.7266,2.7945,2.8103,2.8391,2.8373,2.7575,2.7176,2.6941,2.6111,2.5563,2.5933,2.6014,2.5964,2.6224,2.6408,2.6284,2.6235,2.5965,2.5917,2.5868,2.582,2.5684,2.5684,2.5684,2.5684,2.5684,2.5684,2.5684,2.5801,2.6172,2.6318,2.6445,2.667,2.6621,3.7398,3.8091,3.8802,3.9503,4.0062,4.0113,4.0113,4.0113,4.0113,4.0113,4.0113,4.0113,4.0113,4.0113,4.0113,4.0113,4.0113,4.0113,3.9775,3.9123,3.7957,3.6301,3.412,3.4896,3.4726,3.3993,3.3604,3.3784,3.3993,3.3769,3.4233,3.4891,3.5265,3.5489,3.5489,3.5489,3.5489,3.5265,3.4233,3.3634,3.3275,3.2332,3.1615,3.1511,3.1438,3.1365,3.0999,2.9858,2.862,2.7901,2.7061,2.6726,2.6589,2.6487,2.6487,2.6487,2.6487,2.6487,2.6487,2.6487,2.6487,2.6487,2.6487,2.6487,2.6487,2.6487,2.6549,2.6738,2.6625,2.6949,2.7306,2.7795,2.8021,2.8122,2.816,2.8185,2.8247,2.8222,2.821,2.8298,2.8687,2.8925,2.9196,2.9475,2.9803,3.0048,2.9222,2.8788,2.8381,2.7613,2.7008,2.673,2.6658,2.638,2.6791,2.721,2.703,2.6887,2.6514,2.6332,2.6245,2.611,2.582,2.5684,2.5684,2.5684,2.5684,2.5684,2.5732,2.5859,2.6123,2.6084,2.6064,2.6377,2.6475,3.8616,3.8819,3.9571,3.996,4.0079,4.0113,4.0113,4.0113,4.0113,4.0113,4.0113,4.0113,4.0113,4.0113,4.0113,4.0113,4.0096,3.9978,3.9274,3.7502,3.721,3.564,3.4015,3.4369,3.4457,3.4053,3.3694,3.335,3.32,3.3814,3.4128,3.4113,3.5115,3.5489,3.5489,3.5489,3.5489,3.5265,3.4173,3.3544,3.326,3.2243,3.1496,3.1496,3.1496,3.1496,3.1175,2.9875,2.8957,2.8556,2.7855,2.7007,2.6624,2.6487,2.6487,2.6487,2.6487,2.6487,2.6499,2.6537,2.6512,2.66,2.6637,2.6487,2.6487,2.6562,2.6813,2.7165,2.7374,2.7538,2.7871,2.8034,2.836,2.8662,2.8762,2.8888,2.9214,2.9001,2.895,2.9264,2.9453,2.9741,3.0143,3.0561,3.0939,3.1324,3.1036,3.0493,2.9761,2.8993,2.8402,2.7804,2.7851,2.7662,2.7804,2.8215,2.8215,2.8028,2.7568,2.6839,2.6754,2.662,2.6428,2.61,2.5684,2.5684,2.5684,2.5927,2.6024,2.6045,2.6222,2.6419,2.6596,2.6596,2.6567,3.8667,3.9056,3.9808,4.0113,4.0113,4.0113,4.0113,4.0113,4.0113,4.0113,4.0113,4.0113,4.0113,4.0113,4.0113,4.0113,4.0011,3.9681,3.8613,3.7073,3.6414,3.5446,3.4193,3.3683,3.3544,3.3514,3.3215,3.2931,3.32,3.3634,3.4158,3.4442,3.5175,3.5459,3.5489,3.5489,3.5489,3.5235,3.4203,3.3499,3.3305,3.2213,3.1496,3.1496,3.1496,3.1496,3.1365,2.9875,2.9115,2.8716,2.7835,2.6973,2.6624,2.6487,2.6487,2.6487,2.6487,2.665,2.6788,2.6901,2.6979,2.7193,2.7266,2.7231,2.717,2.711,2.7247,2.7718,2.8003,2.8203,2.8448,2.8825,2.9063,2.9214,2.9315,2.9478,2.9654,2.9515,2.9415,2.9716,2.9729,2.988,3.0294,3.0884,3.1295,3.1357,3.1324,3.0819,3.0541,2.9818,2.9315,2.8947,2.9085,2.912,2.9131,2.9304,2.9487,2.9304,2.9028,2.8121,2.74,2.7305,2.721,2.6658,2.6014,2.5732,2.5732,2.6024,2.68,2.7444,2.7726,2.7484,2.7376,2.7472,2.7367,3.8497,3.9233,3.9842,4.0113,4.0113,4.0113,4.0113,4.0113,4.0113,4.0113,4.0113,4.0113,4.0113,4.0113,4.0113,4.0062,3.9706,3.8913,3.7703,3.6604,3.5798,3.4939,3.3986,3.314,3.2587,3.2392,3.2333,3.2602,3.2946,3.3455,3.3993,3.4981,3.5444,3.5489,3.5489,3.5489,3.5489,3.5325,3.4203,3.3499,3.329,3.2213,3.1555,3.1496,3.1496,3.1496,3.1175,3.0011,2.9066,2.9066,2.7617,2.685,2.6658,2.6533,2.6487,2.6499,2.6587,2.6864,2.7178,2.7344,2.7607,2.8097,2.8072,2.8072,2.7972,2.7799,2.7875,2.8235,2.8572,2.8923,2.9051,2.9352,2.9641,2.9741,2.9767,2.9779,2.9779,2.9779,2.9767,2.9767,2.9779,2.9867,3.0131,3.0595,3.1009,3.1389,3.1339,3.1296,3.1066,3.0911,3.0586,3.0496,3.0777,3.0866,3.0866,3.0777,3.0911,3.0631,3.0406,2.9498,2.8448,2.8262,2.8028,2.6982,2.638,2.638,2.6696,2.7352,2.82,2.9004,2.8935,2.8423,2.8338,2.8434,2.8232,3.9266,3.9926,4.0045,4.0113,4.0113,4.0113,4.0113,4.0113,4.0113,4.0113,4.0113,4.0113,4.0113,4.0096,4.0096,3.9774,3.9005,3.8,3.6845,3.5876,3.5091,3.4207,3.303,3.2735,3.2198,3.178,3.1824,3.2034,3.2333,3.2916,3.3754,3.4128,3.4996,3.5489,3.5489,3.5489,3.5489,3.531,3.4218,3.3544,3.3215,3.2243,3.1496,3.1496,3.1496,3.1496,3.1146,3.0011,2.9317,2.9827,2.8395,2.7637,2.731,2.6863,2.6559,2.6575,2.6889,2.719,2.7381,2.7758,2.7959,2.8097,2.8222,2.821,2.8185,2.8148,2.8362,2.875,2.9227,2.9579,2.9628,2.9716,2.9754,2.9779,2.9779,2.9779,2.9779,2.9779,2.9779,2.9779,2.9779,2.9804,3.0068,3.0407,3.0896,3.1399,3.1675,3.2019,3.2183,3.2283,3.2339,3.2382,3.2612,3.2655,3.2655,3.2525,3.2426,3.2008,3.1645,3.0989,3.0124,2.9579,2.8901,2.8215,2.7992,2.8262,2.8577,2.8841,2.9364,3.007,2.9728,2.9263,2.9396,2.9529,2.9283,3.9453,4.0096,4.0113,4.0113,4.0113,4.0113,4.0113,4.0113,4.0113,4.0113,4.0113,4.0113,4.0113,4.0011,3.9656,3.9148,3.8294,3.7347,3.624,3.5255,3.4383,3.3337,3.2225,3.2318,3.2049,3.1884,3.2123,3.2482,3.2572,3.317,3.3829,3.4607,3.5265,3.5489,3.5489,3.5489,3.5489,3.522,3.4262,3.3484,3.3365,3.2153,3.157,3.1496,3.1496,3.1496,3.1278,3.0419,2.9889,2.9889,2.862,2.7901,2.7562,2.7272,2.6788,2.6688,2.7052,2.7492,2.7745,2.8222,2.8649,2.8963,2.895,2.8976,2.8988,2.9051,2.9051,2.9327,2.9515,2.9779,2.9767,2.9779,2.9779,2.9779,2.9779,2.9779,2.9779,2.9779,2.9779,2.9779,2.9779,2.9817,2.988,3.0294,3.0809,3.1336,3.1863,3.2416,3.298,3.3124,3.3124,3.3081,3.3081,3.3081,3.3081,3.3081,3.3124,3.2884,3.2655,3.1952,3.1589,3.0944,3.0496,2.9954,2.9954,2.9852,2.9794,2.9873,3.048,3.1075,3.0927,3.0801,3.0651,3.0559,3.034,3.9588,4.0113,4.0113,4.0113,4.0113,4.0113,4.0113,4.0113,4.0113,3.9994,3.9893,3.9876,3.9859,3.974,3.9276,3.8684,3.8,3.7152,3.5853,3.4794,3.3821,3.2742,3.2172,3.2108,3.2318,3.2363,3.2826,3.3425,3.3155,3.3574,3.4337,3.4876,3.531,3.5489,3.5489,3.5489,3.5489,3.51,3.4218,3.3469,3.2886,3.2108,3.1496,3.1496,3.1496,3.1496,3.1409,3.0658,3.0404,3.0072,2.9111,2.8052,2.806,2.7756,2.7316,2.7012,2.7318,2.7808,2.8247,2.88,2.9264,2.9566,2.9729,2.9754,2.9729,2.9603,2.9704,2.9779,2.9779,2.9779,2.9779,2.9779,2.9779,2.9779,2.9779,2.9779,2.9779,2.9779,2.9779,2.9779,2.9779,2.9804,2.9854,3.0018,3.0507,3.1173,3.1712,3.2315,3.286,3.3086,3.3124,3.3124,3.3081,3.3081,3.3124,3.3081,3.3124,3.3038,3.2927,3.2556,3.2413,3.2227,3.1777,3.1279,3.1134,3.1024,3.0919,3.114,3.1959,3.245,3.2355,3.2202,3.1913,3.1701,3.1569,4.0028,4.0113,4.0113,4.0113,4.0113,4.0113,4.0096,4.0062,4.0045,3.9723,3.9123,3.9123,3.9106,3.8988,3.8971,3.8853,3.8207,3.6809,3.5514,3.4589,3.3571,3.282,3.2376,3.2422,3.2886,3.3051,3.341,3.3125,3.3215,3.3949,3.4414,3.4833,3.5295,3.5489,3.5489,3.5489,3.5489,3.5265,3.4173,3.2976,3.2004,3.163,3.1525,3.1496,3.1496,3.1496,3.1409,3.0837,3.0673,3.1029,2.969,2.9137,2.9334,2.8772,2.8308,2.8136,2.8386,2.8737,2.8825,2.9264,2.9603,2.9767,2.9779,2.9779,2.9779,2.9779,2.9779,2.9779,2.9779,2.9779,2.9779,2.9779,2.9779,2.9779,2.9779,2.9779,2.9779,2.9779,2.9779,2.9779,2.9779,2.9779,2.9804,2.9967,3.0206,3.0896,3.1574,3.2177,3.2734,3.2986,3.3124,3.3124,3.3124,3.3124,3.3124,3.3124,3.3124,3.3124,3.3081,3.2982,3.2884,3.2785,3.2884,3.2481,3.2239,3.2237,3.2357,3.2806,3.3621,3.3627,3.3261,3.3114,3.3021,3.281,3.2476,4.0113,4.0113,4.0113,4.0113,4.0113,4.0113,3.9859,3.9512,3.9486,3.9056,3.8481,3.8379,3.8159,3.7889,3.776,3.7743,3.7435,3.6269,3.5342,3.478,3.393,3.3243,3.2854,3.3215,3.3739,3.3694,3.4158,3.4337,3.4083,3.4144,3.4638,3.507,3.534,3.5489,3.5489,3.5489,3.5489,3.513,3.4188,3.2871,3.1854,3.1496,3.1496,3.1496,3.1496,3.1496,3.1394,3.1248,3.1117,3.1175,2.9919,2.9279,2.9405,2.8932,2.8297,2.8635,2.9089,2.9227,2.9026,2.9515,2.9716,2.9779,2.9779,2.9779,2.9779,2.9779,2.9779,2.9779,2.9779,2.9779,2.9779,2.9779,2.9779,2.9779,2.9779,2.9779,2.9779,2.9779,2.9779,2.9779,2.9779,2.9779,2.9779,2.9867,3.0244,3.1047,3.1599,3.2089,3.2659,3.3048,3.3124,3.3124,3.3124,3.3124,3.3124,3.3124,3.3124,3.3124,3.3124,3.3081,3.3081,3.3081,3.3124,3.3124,3.2797,3.3003,3.3557,3.3727,3.3859,3.3953,3.4052,3.3694,3.3393,3.3093,3.2871,3.9994,3.9842,4.0028,4.0011,3.9842,3.9842,3.9377,3.8768,3.8717,3.8311,3.777,3.7601,3.7297,3.7015,3.71,3.7313,3.707,3.589,3.535,3.4923,3.4313,3.364,3.3532,3.4008,3.4277,3.4024,3.4891,3.504,3.4846,3.4848,3.5055,3.5489,3.5459,3.5489,3.5489,3.5444,3.537,3.4726,3.3963,3.2841,3.1765,3.1496,3.1496,3.1496,3.1496,3.1496,3.1496,3.1467,3.1467,3.119,2.9919,2.9444,3.0145,2.9144,2.8862,2.9213,2.9783,2.9566,2.9428,2.9566,2.9741,2.9779,2.9779,2.9779,2.9779,2.9779,2.9779,2.9779,2.9779,2.9779,2.9779,2.9779,2.9779,2.9779,2.9779,2.9779,2.9779,2.9779,2.9779,2.9779,2.9779,2.9779,2.9779,2.9779,3.0269,3.1148,3.1687,3.2089,3.2541,3.3086,3.3124,3.3124,3.3124,3.3124,3.3124,3.3124,3.3124,3.3124,3.3124,3.3124,3.3124,3.3124,3.3124,3.3124,3.3124,3.3212,3.3363,3.3715,3.3985,3.4105,3.4129,3.3871,3.357,3.3275,3.3124,3.9706,3.9123,3.9808,3.969,3.9106,3.9073,3.87,3.8108,3.8041,3.7584,3.6931,3.6863,3.6829,3.688,3.7161,3.7483,3.758,3.5675,3.5227,3.4714,3.3842,3.3652,3.3966,3.4506,3.4913,3.5227,3.5638,3.5576,3.54,3.5299,3.5417,3.5489,3.5489,3.5489,3.5444,3.5355,3.4771,3.4143,3.3484,3.2766,3.1854,3.1496,3.1496,3.1496,3.1496,3.1496,3.1496,3.1496,3.1496,3.1438,3.0142,2.9871,3.0642,2.9465,2.9301,3.0195,3.0037,2.9858,2.9858,2.9743,2.9754,2.9779,2.9779,2.9779,2.9779,2.9779,2.9779,2.9779,2.9779,2.9779,2.9779,2.9779,2.9779,2.9779,2.9779,2.9779,2.9779,2.9779,2.9779,2.9779,2.9779,2.9779,2.9905,2.993,3.0369,3.1223,3.2051,3.2466,3.2692,3.3124,3.3124,3.3124,3.3124,3.3124,3.3124,3.3124,3.3124,3.3124,3.3124,3.3124,3.3124,3.3124,3.3124,3.3124,3.3124,3.3174,3.3312,3.3734,3.4117,3.4224,3.4142,3.3745,3.35,3.3212,3.3124,3.9943,3.9673,3.952,3.9242,3.9022,3.9486,3.8988,3.8024,3.7882,3.7178,3.6096,3.6079,3.6079,3.6197,3.6282,3.6495,3.6335,3.5299,3.5036,3.4759,3.4237,3.4121,3.4681,3.5336,3.5952,3.6103,3.6134,3.6165,3.6181,3.5718,3.5522,3.5489,3.5489,3.5489,3.5429,3.51,3.4352,3.3679,3.3066,3.2363,3.1765,3.1496,3.1496,3.1496,3.1496,3.1496,3.1496,3.1496,3.1496,3.1308,3.0675,3.0945,3.1274,3.0059,3.0217,3.1011,3.0444,3.0216,3.0394,3.0139,2.9779,2.9779,2.9779,2.9779,2.9779,2.9779,2.9779,2.9779,2.9779,2.9779,2.9779,2.9779,2.9779,2.9779,2.9779,2.9779,2.9779,2.9779,2.9779,2.9779,2.9779,2.9779,2.9955,3.0118,3.067,3.1311,3.2127,3.2805,3.3011,3.3124,3.3124,3.3124,3.3124,3.3124,3.3124,3.3124,3.3124,3.3124,3.3124,3.3124,3.3124,3.3124,3.3124,3.3124,3.3212,3.3307,3.3545,3.3935,3.4104,3.4067,3.3826,3.3439,3.324,3.3124,3.3124,3.9977,3.9757,3.9453,3.9174,3.9056,3.9309,3.887,3.8041,3.7898,3.7212,3.5938,3.5752,3.5752,3.5893,3.6011,3.6282,3.6323,3.5791,3.5569,3.5369,3.5216,3.503,3.5431,3.5922,3.643,3.66,3.66,3.6554,3.6508,3.5846,3.5587,3.5489,3.5489,3.5489,3.534,3.4816,3.4158,3.3499,3.2841,3.2168,3.16,3.1496,3.1496,3.1496,3.1496,3.1496,3.1496,3.1511,3.166,3.1619,3.1448,3.1452,3.1443,3.1378,3.1356,3.1336,3.1044,3.0582,3.0771,3.0419,2.9818,2.9779,2.9779,2.9779,2.9779,2.9779,2.9779,2.9779,2.9779,2.9779,2.9818,2.9779,2.9779,2.9779,2.9779,2.9779,2.9779,2.9779,2.9779,2.9779,2.9779,2.9804,3.0093,3.0357,3.1072,3.1662,3.2365,3.2893,3.3048,3.3124,3.3124,3.3124,3.3124,3.3124,3.3124,3.3124,3.3124,3.3124,3.3124,3.3124,3.3124,3.3124,3.3136,3.3149,3.3244,3.3483,3.359,3.3646,3.374,3.3783,3.3523,3.3245,3.3172,3.3124,3.3124,3.9706,3.914,3.974,3.9597,3.9005,3.8261,3.8007,3.8007,3.7922,3.7483,3.6721,3.6129,3.618,3.6637,3.6755,3.7026,3.7239,3.6854,3.6781,3.6869,3.6077,3.6036,3.6275,3.6615,3.6752,3.66,3.66,3.66,3.6584,3.5863,3.5554,3.5489,3.5489,3.5489,3.5429,3.4863,3.4189,3.3499,3.2841,3.2168,3.1645,3.1496,3.1496,3.1496,3.1496,3.1496,3.1496,3.166,3.1884,3.2109,3.1982,3.2378,3.3302,3.2413,3.2513,3.3344,3.1911,3.1204,3.1143,3.0317,3.0037,2.9998,3.0139,3.0075,2.9934,2.9895,2.9998,3.0126,2.9908,2.9934,2.9856,2.9818,2.9818,2.996,2.9998,2.9779,2.9779,2.9779,2.9779,2.9779,2.9792,2.9854,3.0193,3.0633,3.1411,3.2077,3.2692,3.3036,3.3099,3.3124,3.3124,3.3124,3.3124,3.3124,3.3124,3.3124,3.3124,3.3124,3.3124,3.3124,3.3124,3.3124,3.3136,3.3119,3.3438,3.3765,3.3471,3.3208,3.3432,3.3613,3.3356,3.3154,3.3124,3.3124,3.3124,3.9673,3.9005,3.9259,3.952,3.9605,3.8954,3.8633,3.8531,3.8142,3.777,3.755,3.7195,3.7229,3.7483,3.755,3.7702,3.7769,3.717,3.7155,3.7629,3.685,3.6546,3.6716,3.707,3.7054,3.6722,3.66,3.66,3.6569,3.5863,3.5554,3.5489,3.5489,3.5489,3.531,3.4816,3.4189,3.3499,3.2856,3.2183,3.1585,3.1496,3.1496,3.1496,3.1511,3.1555,3.1615,3.1899,3.2362,3.2751,3.2653,3.3448,3.3956,3.3043,3.3516,3.3642,3.2307,3.1241,3.118,3.0833,3.0758,3.0771,3.0733,3.0733,3.072,3.072,3.072,3.0582,3.0279,3.0558,3.1341,3.0317,3.0101,3.0482,3.0444,2.996,2.9779,2.9779,2.9779,2.9779,2.9792,3.0055,3.0369,3.1036,3.1797,3.2418,3.303,3.3084,3.3154,3.3124,3.3124,3.3124,3.3124,3.3124,3.3124,3.3368,3.324,3.3124,3.3124,3.3124,3.3124,3.3124,3.3124,3.3136,3.3576,3.3966,3.3928,3.384,3.3508,3.3413,3.3224,3.3124,3.3124,3.3124,3.3124,3.9276,3.87,3.9157,3.9503,3.9639,3.9191,3.9106,3.9191,3.8616,3.8278,3.8227,3.8041,3.8058,3.8193,3.8294,3.8514,3.8567,3.8229,3.8052,3.8479,3.7851,3.7479,3.7374,3.7427,3.7189,3.6813,3.66,3.6569,3.6538,3.5863,3.5522,3.5489,3.5489,3.5489,3.5235,3.4637,3.3918,3.329,3.2677,3.1914,3.1585,3.1496,3.1496,3.1585,3.1705,3.1869,3.2019,3.2422,3.2961,3.335,3.381,3.4352,3.412,3.4218,3.4495,3.4007,3.3206,3.2141,3.1865,3.1742,3.1815,3.2249,3.1938,3.1719,3.1669,3.1683,3.1683,3.1476,3.0983,3.1513,3.2083,3.0921,3.0983,3.1389,3.1254,3.0771,3.0343,3.0381,3.0444,3.0381,3.0075,3.0326,3.0756,3.1436,3.2213,3.279,3.337,3.3377,3.3441,3.3556,3.3683,3.3725,3.3907,3.416,3.4063,3.3882,3.3641,3.321,3.3167,3.3283,3.3124,3.3124,3.3124,3.325,3.384,3.4293,3.461,3.4508,3.3891,3.3458,3.3187,3.3124,3.3124,3.3124,3.3124,3.8616,3.821,3.952,3.969,3.9123,3.9148,3.9453,3.9943,3.9317,3.9022,3.8988,3.8362,3.8497,3.8954,3.9022,3.9326,3.9732,3.9783,3.9775,3.9605,3.8887,3.8353,3.786,3.7735,3.7308,3.6873,3.6722,3.6873,3.66,3.6086,3.5718,3.5489,3.5489,3.5489,3.513,3.4382,3.3724,3.323,3.2706,3.1989,3.1615,3.1496,3.1585,3.175,3.2049,3.2348,3.2677,3.314,3.3739,3.4158,3.4517,3.4904,3.5185,3.5442,3.5504,3.51,3.4211,3.3429,3.282,3.2664,3.3136,3.3547,3.322,3.2855,3.2629,3.2642,3.2642,3.2536,3.2227,3.25,3.2642,3.2464,3.2321,3.2415,3.2415,3.1924,3.1389,3.1304,3.1394,3.1185,3.0659,3.0817,3.1552,3.224,3.3159,3.3817,3.4413,3.4664,3.4671,3.4594,3.4731,3.4855,3.5114,3.5521,3.5331,3.5054,3.4873,3.4672,3.3722,3.3556,3.3356,3.321,3.3124,3.3357,3.4123,3.4596,3.49,3.4653,3.3991,3.3577,3.3189,3.3124,3.3124,3.3124,3.3124,3.9343,3.8802,3.9706,3.9977,3.9808,3.9791,3.9656,3.9368,3.9605,3.9791,3.9774,3.9588,3.9462,3.9791,3.9791,3.991,4.0011,4.0096,4.0054,3.9808,3.9368,3.8553,3.8048,3.7822,3.7293,3.7054,3.7084,3.7368,3.7249,3.6646,3.5894,3.5587,3.5587,3.5554,3.5073,3.4188,3.38,3.3335,3.2856,3.2198,3.166,3.1496,3.172,3.2108,3.2378,3.2766,3.326,3.3844,3.4384,3.4503,3.4966,3.537,3.5415,3.5457,3.5311,3.4461,3.4061,3.3822,3.3622,3.3602,3.3973,3.4739,3.4624,3.4259,3.3891,3.3602,3.3602,3.3498,3.329,3.3394,3.3616,3.3602,3.3498,3.3449,3.331,3.282,3.2307,3.2213,3.2304,3.1978,3.1452,3.2086,3.2789,3.35,3.4387,3.503,3.5587,3.5994,3.6035,3.5994,3.6116,3.6223,3.6695,3.7167,3.6888,3.6579,3.643,3.6129,3.5184,3.4389,3.4217,3.3992,3.3411,3.3837,3.5001,3.5308,3.5245,3.496,3.4866,3.3665,3.3166,3.3144,3.3124,3.3167,3.3124,3.9208,3.8734,3.969,4.0113,4.0113,4.0096,3.9825,3.9571,3.9926,4.0113,4.0113,4.0062,4.0113,4.0079,4.0062,4.0079,4.0096,4.0113,4.0113,3.9952,3.9516,3.8978,3.8486,3.8149,3.7774,3.7557,3.7485,3.7706,3.7632,3.701,3.6228,3.5587,3.5701,3.5733,3.5368,3.48,3.4106,3.3517,3.2886,3.2302,3.1824,3.1525,3.1929,3.2422,3.2691,3.326,3.3858,3.4517,3.4801,3.4908,3.54,3.5474,3.5489,3.5457,3.5392,3.4758,3.4725,3.4691,3.461,3.4591,3.4986,3.5279,3.5489,3.5166,3.4887,3.4624,3.4576,3.4543,3.4259,3.4124,3.4375,3.4624,3.4576,3.4528,3.4075,3.3636,3.338,3.3171,3.2947,3.27,3.2988,3.3628,3.4302,3.5036,3.5821,3.6791,3.7672,3.8342,3.8102,3.7611,3.7791,3.7971,3.851,3.9007,3.8573,3.8131,3.7845,3.7494,3.6866,3.6099,3.5572,3.5541,3.5677,3.5904,3.6279,3.6396,3.6456,3.6335,3.6023,3.4837,3.379,3.3568,3.3508,3.3326,3.3283,3.8734,3.8278,3.952,4.0113,4.0113,4.0113,4.0079,4.0113,4.0096,4.0113,4.0113,4.0113,4.0113,4.0113,4.0113,4.0113,4.0113,4.0113,4.0113,4.007,3.9731,3.9262,3.8924,3.8843,3.823,3.7978,3.8035,3.8346,3.779,3.7233,3.6585,3.5733,3.6352,3.6369,3.5547,3.5232,3.4393,3.3246,3.2497,3.1854,3.169,3.163,3.1899,3.2602,3.3245,3.3873,3.4517,3.5055,3.5489,3.5489,3.5489,3.5489,3.5489,3.5489,3.5439,3.5407,3.5279,3.5279,3.5231,3.5246,3.5311,3.5457,3.5489,3.5529,3.5457,3.5481,3.5477,3.5518,3.528,3.5232,3.5463,3.5633,3.5663,3.5407,3.4982,3.4578,3.4308,3.421,3.4238,3.4094,3.4387,3.5138,3.647,3.7215,3.761,3.8625,3.9355,4.0144,4.0178,3.9479,3.9401,3.9646,4.008,4.0471,4.029,3.9809,3.9261,3.8805,3.8332,3.7796,3.7243,3.7578,3.8256,3.7781,3.7261,3.777,3.7938,3.7453,3.6878,3.6264,3.5248,3.434,3.4012,3.4017,3.3797,3.974,3.9622,3.996,4.0113,4.0113,4.0113,4.0113,4.0113,4.0113,4.0113,4.0113,4.0113,4.0113,4.0113,4.0113,4.0113,4.0113,4.0113,4.0113,3.9901,3.9636,3.9463,3.9005,3.9032,3.8553,3.843,3.8624,3.9049,3.8453,3.7831,3.7456,3.7235,3.7393,3.6849,3.5615,3.5296,3.4292,3.3066,3.2497,3.2018,3.191,3.2197,3.2587,3.323,3.3873,3.4487,3.5026,3.534,3.5489,3.5489,3.5489,3.5489,3.5489,3.5489,3.5489,3.5489,3.5489,3.5489,3.5489,3.5504,3.5534,3.5549,3.5624,3.5878,3.6058,3.6193,3.6312,3.6402,3.6447,3.6417,3.6432,3.6582,3.6611,3.6252,3.5878,3.5517,3.5189,3.5267,3.5392,3.5632,3.5828,3.6939,3.8326,3.9127,3.9571,4.0089,4.063,4.1239,4.1638,4.1346,4.0949,4.115,4.1513,4.1772,4.1646,4.1415,4.0802,4.0338,3.9838,3.9366,3.8935,3.9053,3.9249,3.8491,3.8104,3.8903,3.8952,3.7767,3.7252,3.7233,3.6764,3.5931,3.5631,3.5641,3.5047,4.0113,4.0113,4.0113,4.0113,4.0113,4.0113,4.0113,4.0113,4.0113,4.0113,4.0113,4.0113,4.0113,4.0113,4.0113,4.0113,4.0113,4.0113,4.0113,3.9901,3.9731,3.961,3.9437,3.9368,3.9315,3.9199,3.9532,3.9636,3.8989,3.858,3.8234,3.7926,3.7737,3.7134,3.5761,3.4943,3.4156,3.3021,3.2766,3.2689,3.261,3.302,3.332,3.3903,3.4337,3.4906,3.525,3.5489,3.5489,3.5489,3.5489,3.5489,3.5489,3.5489,3.5489,3.5489,3.5489,3.5489,3.5489,3.5549,3.5669,3.5774,3.5938,3.6282,3.6866,3.703,3.712,3.7195,3.703,3.6985,3.6971,3.706,3.7045,3.6821,3.6372,3.5944,3.5907,3.6023,3.6287,3.6663,3.7168,3.824,3.9469,4.027,4.0837,4.1707,4.2198,4.2162,4.2566,4.2671,4.2447,4.2357,4.2521,4.2701,4.2604,4.2505,4.2317,4.1857,4.1233,4.1278,4.1017,4.0525,4.0121,4.0048,4.012,4.0579,4.026,3.9132,3.8841,3.9016,3.8382,3.7515,3.7329,3.7084,3.6749,4.0113,4.0113,4.0113,4.0113,4.0113,4.0113,4.0113,4.0113,4.0113,4.0113,4.0113,4.0113,4.0113,4.0113,4.0113,4.0113,4.0113,4.0113,4.0113,4.0113,4.0045,3.9901,3.9927,4.002,3.985,3.9636,3.9653,3.9558,3.9193,3.8881,3.8487,3.8019,3.7642,3.7183,3.5934,3.5124,3.4446,3.3843,3.3607,3.383,3.3982,3.4091,3.418,3.4388,3.467,3.4968,3.5325,3.5489,3.5489,3.5489,3.5489,3.5489,3.5489,3.5489,3.5489,3.5489,3.5489,3.5489,3.5519,3.5669,3.5983,3.6267,3.6477,3.6911,3.7494,3.7764,3.7853,3.7928,3.7764,3.7629,3.7614,3.7674,3.7644,3.7315,3.6851,3.6492,3.6611,3.6761,3.715,3.7569,3.8497,3.9499,4.0472,4.1294,4.2028,4.2931,4.3305,4.3305,4.3245,4.312,4.2925,4.2895,4.297,4.3125,4.323,4.3125,4.2985,4.2722,4.2198,4.2777,4.2971,4.2075,4.1838,4.2431,4.2595,4.2085,4.1754,4.0929,4.0829,4.0338,3.9394,3.8439,3.8383,3.8219,3.842,4.0113,4.0113,4.0113,4.0113,4.0113,4.0113,4.0113,4.0113,4.0113,4.0113,4.0113,4.0113,4.0113,4.0113,4.0113,4.0113,4.0113,4.0113,4.0113,4.0113,4.0113,4.0113,4.0113,4.0113,4.0113,3.9799,3.9385,3.9022,3.9344,3.9126,3.8884,3.8694,3.8672,3.772,3.5961,3.5409,3.5217,3.4736,3.4858,3.5158,3.5075,3.5078,3.4881,3.5062,3.5345,3.5394,3.5489,3.5489,3.5489,3.5489,3.5489,3.5489,3.5489,3.5489,3.5489,3.5489,3.5489,3.5489,3.5564,3.5923,3.6312,3.6582,3.6896,3.7539,3.8003,3.8272,3.8497,3.8886,3.8715,3.8527,3.8512,3.8736,3.8721,3.7898,3.7285,3.718,3.7195,3.7464,3.7793,3.8422,3.9215,4.0367,4.1632,4.2171,4.2402,4.3105,4.329,4.3305,4.3305,4.3305,4.3305,4.3305,4.3305,4.3305,4.329,4.3275,4.314,4.303,4.2925,4.3,4.3075,4.311,4.314,4.323,4.2985,4.2404,4.2177,4.2043,4.1309,4.0621,3.9847,3.9195,3.9165,3.9031,3.9031]}]]